Illinois River (Oklahoma), Tahlequah (07196500)

StateOklahomaLatestGood (896 cfs)
RiverIllinois RiverRatingObservedEstimated
Updated2021-04-10 22:30 (39 minutes ago)Flood - The river is flooding. Obstacles can be treacherous or deadly. The river should be avoided at this stage for casual trips and definitely for the inexperienced. Trips should be attempted only with protective gear and equipment.Flood(none)3443
Discharge896 cfs (median: 863 cfs)High - The river is high and potentially dangerous, especially for the young and / or inexperienced. Normal stream obstacles are sometimes difficult to navigate. Extended distances can be attempted, but canoe travel may not be advisable.High(none)1734
Height5.84 feetGood - Conditions are ideal for a canoe or kayak. Boats typically will drag on fewer than one-quarter of riffles, if at all, and portages are unnecessary or rare. Normal float lengths can be attempted without a problem.Good300924
TrendSteady (rising over 24 hours)Low - River is low but can still be floated. Some riffles are okay but most come with significant dragging and might need a portage. Float lengths should be reduced to accommodate low flow, dragging, and portages.Low(none)607
USGSExternal icon USGS Site (External icon Google Maps)Poor - River is too low to float comfortably. Most or all riffles will drag or must be portaged and some obstacles (such as slick shelf rock) cause undue problems. Avoid the river at this stage for casual paddling trips.Poor(none)234

Trending Data

Plot Image

Trips for Illinois River (Oklahoma), Tahlequah (07196500)

DateStartEndDistanceConditionDischargeHeightFishingDetails

A total of 0 rows are displayed.

Condition Descriptions

Fishing Conditions

Fish Species

Notes

Classic Trip List

The classic River Trips application is still available for use. It is updated with the new system using a data retrofit. It is no longer maintained. The original River Trips application is no longer updated (as of 1 Dec 2016) but can be checked for errors or for the condition of the data before it was converted to the new system.

Gauge Data Table

ObservationHeightDischargeMaximum
Discharge
Minimum
Discharge
Mean
Discharge
P05P10P20P25P50
(Median)
P75P80P90P95
2021-04-10 22:30 5.84 896 9820 (2008) 44 (1956) 1450 184 298 395 534 863 1580 1750 3800 6370
2021-04-10 21:30 5.84 896 9820 (2008) 44 (1956) 1450 184 298 395 534 863 1580 1750 3800 6370
2021-04-10 20:30 5.84 896 9820 (2008) 44 (1956) 1450 184 298 395 534 863 1580 1750 3800 6370
2021-04-10 19:30 5.84 896 9820 (2008) 44 (1956) 1450 184 298 395 534 863 1580 1750 3800 6370
2021-04-10 18:30 5.85 903 9820 (2008) 44 (1956) 1450 184 298 395 534 863 1580 1750 3800 6370
2021-04-10 17:30 5.85 903 9820 (2008) 44 (1956) 1450 184 298 395 534 863 1580 1750 3800 6370
2021-04-10 16:30 5.85 903 9820 (2008) 44 (1956) 1450 184 298 395 534 863 1580 1750 3800 6370
2021-04-10 15:30 5.85 903 9820 (2008) 44 (1956) 1450 184 298 395 534 863 1580 1750 3800 6370
2021-04-10 14:30 5.84 896 9820 (2008) 44 (1956) 1450 184 298 395 534 863 1580 1750 3800 6370
2021-04-10 13:30 5.84 896 9820 (2008) 44 (1956) 1450 184 298 395 534 863 1580 1750 3800 6370
2021-04-10 12:30 5.82 882 9820 (2008) 44 (1956) 1450 184 298 395 534 863 1580 1750 3800 6370
2021-04-10 11:30 5.85 903 9820 (2008) 44 (1956) 1450 184 298 395 534 863 1580 1750 3800 6370
2021-04-10 10:30 5.80 868 9820 (2008) 44 (1956) 1450 184 298 395 534 863 1580 1750 3800 6370
2021-04-10 09:30 5.82 882 9820 (2008) 44 (1956) 1450 184 298 395 534 863 1580 1750 3800 6370
2021-04-10 08:30 5.81 875 9820 (2008) 44 (1956) 1450 184 298 395 534 863 1580 1750 3800 6370
2021-04-10 07:30 5.78 855 9820 (2008) 44 (1956) 1450 184 298 395 534 863 1580 1750 3800 6370
2021-04-10 06:30 5.80 868 9820 (2008) 44 (1956) 1450 184 298 395 534 863 1580 1750 3800 6370
2021-04-10 05:30 5.80 868 9820 (2008) 44 (1956) 1450 184 298 395 534 863 1580 1750 3800 6370
2021-04-10 04:30 5.79 861 9820 (2008) 44 (1956) 1450 184 298 395 534 863 1580 1750 3800 6370
2021-04-10 03:30 5.79 861 9820 (2008) 44 (1956) 1450 184 298 395 534 863 1580 1750 3800 6370
2021-04-10 02:30 5.76 841 9820 (2008) 44 (1956) 1450 184 298 395 534 863 1580 1750 3800 6370
2021-04-10 01:30 5.77 848 9820 (2008) 44 (1956) 1450 184 298 395 534 863 1580 1750 3800 6370
2021-04-10 00:30 5.79 861 9820 (2008) 44 (1956) 1450 184 298 395 534 863 1580 1750 3800 6370
2021-04-09 23:30 5.79 861 15800 (1986) 40 (1956) 1500 193 305 408 499 908 1690 1890 2560 4070
2021-04-09 22:30 5.79 861 15800 (1986) 40 (1956) 1500 193 305 408 499 908 1690 1890 2560 4070
2021-04-09 21:30 5.80 868 15800 (1986) 40 (1956) 1500 193 305 408 499 908 1690 1890 2560 4070
2021-04-09 20:30 5.76 841 15800 (1986) 40 (1956) 1500 193 305 408 499 908 1690 1890 2560 4070
2021-04-09 19:30 5.76 841 15800 (1986) 40 (1956) 1500 193 305 408 499 908 1690 1890 2560 4070
2021-04-09 18:30 5.74 827 15800 (1986) 40 (1956) 1500 193 305 408 499 908 1690 1890 2560 4070
2021-04-09 17:30 5.75 834 15800 (1986) 40 (1956) 1500 193 305 408 499 908 1690 1890 2560 4070
2021-04-09 16:30 5.77 848 15800 (1986) 40 (1956) 1500 193 305 408 499 908 1690 1890 2560 4070
2021-04-09 15:30 5.79 861 15800 (1986) 40 (1956) 1500 193 305 408 499 908 1690 1890 2560 4070
2021-04-09 14:30 5.78 855 15800 (1986) 40 (1956) 1500 193 305 408 499 908 1690 1890 2560 4070
2021-04-09 13:30 5.78 855 15800 (1986) 40 (1956) 1500 193 305 408 499 908 1690 1890 2560 4070
2021-04-09 12:30 5.78 855 15800 (1986) 40 (1956) 1500 193 305 408 499 908 1690 1890 2560 4070
2021-04-09 11:30 5.79 861 15800 (1986) 40 (1956) 1500 193 305 408 499 908 1690 1890 2560 4070
2021-04-09 10:30 5.79 861 15800 (1986) 40 (1956) 1500 193 305 408 499 908 1690 1890 2560 4070
2021-04-09 09:30 5.76 841 15800 (1986) 40 (1956) 1500 193 305 408 499 908 1690 1890 2560 4070
2021-04-09 08:30 5.78 855 15800 (1986) 40 (1956) 1500 193 305 408 499 908 1690 1890 2560 4070
2021-04-09 07:30 5.76 841 15800 (1986) 40 (1956) 1500 193 305 408 499 908 1690 1890 2560 4070
2021-04-09 06:30 5.77 848 15800 (1986) 40 (1956) 1500 193 305 408 499 908 1690 1890 2560 4070
2021-04-09 05:30 5.76 841 15800 (1986) 40 (1956) 1500 193 305 408 499 908 1690 1890 2560 4070
2021-04-09 04:30 5.75 834 15800 (1986) 40 (1956) 1500 193 305 408 499 908 1690 1890 2560 4070
2021-04-09 03:30 5.75 834 15800 (1986) 40 (1956) 1500 193 305 408 499 908 1690 1890 2560 4070
2021-04-09 02:30 5.75 834 15800 (1986) 40 (1956) 1500 193 305 408 499 908 1690 1890 2560 4070
2021-04-09 01:30 5.75 834 15800 (1986) 40 (1956) 1500 193 305 408 499 908 1690 1890 2560 4070
2021-04-09 00:30 5.73 821 15800 (1986) 40 (1956) 1500 193 305 408 499 908 1690 1890 2560 4070
2021-04-08 23:30 5.73 821 6050 (1965) 37 (1956) 1210 205 287 422 507 934 1570 1790 2740 3130
2021-04-08 22:30 5.73 821 6050 (1965) 37 (1956) 1210 205 287 422 507 934 1570 1790 2740 3130
2021-04-08 21:30 5.75 834 6050 (1965) 37 (1956) 1210 205 287 422 507 934 1570 1790 2740 3130
2021-04-08 20:30 5.74 827 6050 (1965) 37 (1956) 1210 205 287 422 507 934 1570 1790 2740 3130
2021-04-08 19:30 5.73 821 6050 (1965) 37 (1956) 1210 205 287 422 507 934 1570 1790 2740 3130
2021-04-08 18:30 5.73 821 6050 (1965) 37 (1956) 1210 205 287 422 507 934 1570 1790 2740 3130
2021-04-08 17:30 5.73 821 6050 (1965) 37 (1956) 1210 205 287 422 507 934 1570 1790 2740 3130
2021-04-08 16:30 5.73 821 6050 (1965) 37 (1956) 1210 205 287 422 507 934 1570 1790 2740 3130
2021-04-08 15:30 5.74 827 6050 (1965) 37 (1956) 1210 205 287 422 507 934 1570 1790 2740 3130
2021-04-08 14:30 5.73 821 6050 (1965) 37 (1956) 1210 205 287 422 507 934 1570 1790 2740 3130
2021-04-08 13:30 5.73 821 6050 (1965) 37 (1956) 1210 205 287 422 507 934 1570 1790 2740 3130
2021-04-08 12:30 5.74 827 6050 (1965) 37 (1956) 1210 205 287 422 507 934 1570 1790 2740 3130
2021-04-08 11:30 5.74 827 6050 (1965) 37 (1956) 1210 205 287 422 507 934 1570 1790 2740 3130
2021-04-08 10:30 5.75 834 6050 (1965) 37 (1956) 1210 205 287 422 507 934 1570 1790 2740 3130
2021-04-08 09:30 5.76 841 6050 (1965) 37 (1956) 1210 205 287 422 507 934 1570 1790 2740 3130
2021-04-08 08:30 5.76 841 6050 (1965) 37 (1956) 1210 205 287 422 507 934 1570 1790 2740 3130
2021-04-08 07:30 5.77 848 6050 (1965) 37 (1956) 1210 205 287 422 507 934 1570 1790 2740 3130
2021-04-08 06:30 5.76 841 6050 (1965) 37 (1956) 1210 205 287 422 507 934 1570 1790 2740 3130
2021-04-08 05:30 5.77 848 6050 (1965) 37 (1956) 1210 205 287 422 507 934 1570 1790 2740 3130
2021-04-08 03:30 5.77 848 6050 (1965) 37 (1956) 1210 205 287 422 507 934 1570 1790 2740 3130
2021-04-08 02:30 5.78 855 6050 (1965) 37 (1956) 1210 205 287 422 507 934 1570 1790 2740 3130
2021-04-08 01:30 5.76 841 6050 (1965) 37 (1956) 1210 205 287 422 507 934 1570 1790 2740 3130
2021-04-08 00:30 5.76 841 6050 (1965) 37 (1956) 1210 205 287 422 507 934 1570 1790 2740 3130
2021-04-07 23:30 5.78 855 11000 (1965) 38 (1956) 1330 202 296 422 467 886 1650 2050 2900 3670
2021-04-07 22:30 5.76 841 11000 (1965) 38 (1956) 1330 202 296 422 467 886 1650 2050 2900 3670
2021-04-07 21:30 5.76 841 11000 (1965) 38 (1956) 1330 202 296 422 467 886 1650 2050 2900 3670
2021-04-07 18:30 5.77 848 11000 (1965) 38 (1956) 1330 202 296 422 467 886 1650 2050 2900 3670
2021-04-07 17:30 5.76 841 11000 (1965) 38 (1956) 1330 202 296 422 467 886 1650 2050 2900 3670
2021-04-07 16:30 5.77 848 11000 (1965) 38 (1956) 1330 202 296 422 467 886 1650 2050 2900 3670
2021-04-07 15:30 5.76 841 11000 (1965) 38 (1956) 1330 202 296 422 467 886 1650 2050 2900 3670
2021-04-07 14:30 5.76 841 11000 (1965) 38 (1956) 1330 202 296 422 467 886 1650 2050 2900 3670
2021-04-07 13:30 5.78 855 11000 (1965) 38 (1956) 1330 202 296 422 467 886 1650 2050 2900 3670
2021-04-07 12:30 5.76 841 11000 (1965) 38 (1956) 1330 202 296 422 467 886 1650 2050 2900 3670
2021-04-07 11:30 5.77 848 11000 (1965) 38 (1956) 1330 202 296 422 467 886 1650 2050 2900 3670
2021-04-07 10:30 5.76 841 11000 (1965) 38 (1956) 1330 202 296 422 467 886 1650 2050 2900 3670
2021-04-07 09:30 5.75 834 11000 (1965) 38 (1956) 1330 202 296 422 467 886 1650 2050 2900 3670
2021-04-07 08:30 5.78 855 11000 (1965) 38 (1956) 1330 202 296 422 467 886 1650 2050 2900 3670
2021-04-07 07:30 5.77 848 11000 (1965) 38 (1956) 1330 202 296 422 467 886 1650 2050 2900 3670
2021-04-07 06:30 5.78 855 11000 (1965) 38 (1956) 1330 202 296 422 467 886 1650 2050 2900 3670
2021-04-07 05:30 5.79 861 11000 (1965) 38 (1956) 1330 202 296 422 467 886 1650 2050 2900 3670
2021-04-07 04:30 5.78 855 11000 (1965) 38 (1956) 1330 202 296 422 467 886 1650 2050 2900 3670
2021-04-07 03:30 5.78 855 11000 (1965) 38 (1956) 1330 202 296 422 467 886 1650 2050 2900 3670
2021-04-07 02:30 5.78 855 11000 (1965) 38 (1956) 1330 202 296 422 467 886 1650 2050 2900 3670
2021-04-07 01:30 5.77 848 11000 (1965) 38 (1956) 1330 202 296 422 467 886 1650 2050 2900 3670
2021-04-07 00:30 5.77 848 11000 (1965) 38 (1956) 1330 202 296 422 467 886 1650 2050 2900 3670
2021-04-06 23:30 5.78 855 8670 (1965) 41 (1956) 1380 221 317 400 467 934 1570 1760 3050 5110
2021-04-06 22:30 5.78 855 8670 (1965) 41 (1956) 1380 221 317 400 467 934 1570 1760 3050 5110
2021-04-06 21:30 5.80 868 8670 (1965) 41 (1956) 1380 221 317 400 467 934 1570 1760 3050 5110
2021-04-06 20:30 5.78 855 8670 (1965) 41 (1956) 1380 221 317 400 467 934 1570 1760 3050 5110
2021-04-06 19:30 5.77 848 8670 (1965) 41 (1956) 1380 221 317 400 467 934 1570 1760 3050 5110
2021-04-06 18:30 5.77 848 8670 (1965) 41 (1956) 1380 221 317 400 467 934 1570 1760 3050 5110
2021-04-06 17:30 5.77 848 8670 (1965) 41 (1956) 1380 221 317 400 467 934 1570 1760 3050 5110
2021-04-06 16:30 5.79 861 8670 (1965) 41 (1956) 1380 221 317 400 467 934 1570 1760 3050 5110
2021-04-06 15:30 5.79 861 8670 (1965) 41 (1956) 1380 221 317 400 467 934 1570 1760 3050 5110
2021-04-06 14:30 5.79 861 8670 (1965) 41 (1956) 1380 221 317 400 467 934 1570 1760 3050 5110
2021-04-06 13:30 5.78 855 8670 (1965) 41 (1956) 1380 221 317 400 467 934 1570 1760 3050 5110
2021-04-06 12:30 5.80 868 8670 (1965) 41 (1956) 1380 221 317 400 467 934 1570 1760 3050 5110
2021-04-06 11:30 5.79 861 8670 (1965) 41 (1956) 1380 221 317 400 467 934 1570 1760 3050 5110
2021-04-06 10:30 5.79 861 8670 (1965) 41 (1956) 1380 221 317 400 467 934 1570 1760 3050 5110
2021-04-06 09:30 5.82 882 8670 (1965) 41 (1956) 1380 221 317 400 467 934 1570 1760 3050 5110
2021-04-06 08:30 5.81 875 8670 (1965) 41 (1956) 1380 221 317 400 467 934 1570 1760 3050 5110
2021-04-06 07:30 5.83 889 8670 (1965) 41 (1956) 1380 221 317 400 467 934 1570 1760 3050 5110
2021-04-06 06:30 5.82 882 8670 (1965) 41 (1956) 1380 221 317 400 467 934 1570 1760 3050 5110
2021-04-06 05:30 5.80 868 8670 (1965) 41 (1956) 1380 221 317 400 467 934 1570 1760 3050 5110
2021-04-06 04:30 5.82 882 8670 (1965) 41 (1956) 1380 221 317 400 467 934 1570 1760 3050 5110
2021-04-06 03:30 5.81 875 8670 (1965) 41 (1956) 1380 221 317 400 467 934 1570 1760 3050 5110
2021-04-06 02:30 5.80 868 8670 (1965) 41 (1956) 1380 221 317 400 467 934 1570 1760 3050 5110
2021-04-06 01:30 5.82 882 8670 (1965) 41 (1956) 1380 221 317 400 467 934 1570 1760 3050 5110
2021-04-06 00:30 5.82 882 8670 (1965) 41 (1956) 1380 221 317 400 467 934 1570 1760 3050 5110
2021-04-05 23:30 5.82 882 17700 (1957) 41 (1956) 1620 229 322 398 470 929 1710 1900 4040 5690
2021-04-05 22:30 5.82 882 17700 (1957) 41 (1956) 1620 229 322 398 470 929 1710 1900 4040 5690
2021-04-05 21:30 5.83 889 17700 (1957) 41 (1956) 1620 229 322 398 470 929 1710 1900 4040 5690
2021-04-05 20:30 5.83 889 17700 (1957) 41 (1956) 1620 229 322 398 470 929 1710 1900 4040 5690
2021-04-05 19:30 5.82 882 17700 (1957) 41 (1956) 1620 229 322 398 470 929 1710 1900 4040 5690
2021-04-05 18:30 5.81 875 17700 (1957) 41 (1956) 1620 229 322 398 470 929 1710 1900 4040 5690
2021-04-05 17:30 5.84 896 17700 (1957) 41 (1956) 1620 229 322 398 470 929 1710 1900 4040 5690
2021-04-05 16:30 5.83 889 17700 (1957) 41 (1956) 1620 229 322 398 470 929 1710 1900 4040 5690
2021-04-05 15:30 5.83 889 17700 (1957) 41 (1956) 1620 229 322 398 470 929 1710 1900 4040 5690
2021-04-05 14:30 5.86 911 17700 (1957) 41 (1956) 1620 229 322 398 470 929 1710 1900 4040 5690
2021-04-05 13:30 5.87 918 17700 (1957) 41 (1956) 1620 229 322 398 470 929 1710 1900 4040 5690
2021-04-05 12:30 5.86 911 17700 (1957) 41 (1956) 1620 229 322 398 470 929 1710 1900 4040 5690
2021-04-05 11:30 5.88 925 17700 (1957) 41 (1956) 1620 229 322 398 470 929 1710 1900 4040 5690
2021-04-05 10:30 5.85 903 17700 (1957) 41 (1956) 1620 229 322 398 470 929 1710 1900 4040 5690
2021-04-05 09:30 5.86 911 17700 (1957) 41 (1956) 1620 229 322 398 470 929 1710 1900 4040 5690
2021-04-05 08:30 5.86 911 17700 (1957) 41 (1956) 1620 229 322 398 470 929 1710 1900 4040 5690
2021-04-05 07:30 5.88 925 17700 (1957) 41 (1956) 1620 229 322 398 470 929 1710 1900 4040 5690
2021-04-05 06:30 5.87 918 17700 (1957) 41 (1956) 1620 229 322 398 470 929 1710 1900 4040 5690
2021-04-05 05:30 5.87 918 17700 (1957) 41 (1956) 1620 229 322 398 470 929 1710 1900 4040 5690
2021-04-05 04:30 5.87 918 17700 (1957) 41 (1956) 1620 229 322 398 470 929 1710 1900 4040 5690
2021-04-05 03:30 5.88 925 17700 (1957) 41 (1956) 1620 229 322 398 470 929 1710 1900 4040 5690
2021-04-05 02:30 5.89 932 17700 (1957) 41 (1956) 1620 229 322 398 470 929 1710 1900 4040 5690
2021-04-05 01:30 5.88 925 17700 (1957) 41 (1956) 1620 229 322 398 470 929 1710 1900 4040 5690
2021-04-05 00:30 5.89 932 17700 (1957) 41 (1956) 1620 229 322 398 470 929 1710 1900 4040 5690
2021-04-04 23:30 5.88 925 36500 (1957) 46 (1956) 1770 228 274 404 483 922 1710 2000 3360 4330
2021-04-04 22:30 5.89 932 36500 (1957) 46 (1956) 1770 228 274 404 483 922 1710 2000 3360 4330
2021-04-04 21:30 5.89 932 36500 (1957) 46 (1956) 1770 228 274 404 483 922 1710 2000 3360 4330
2021-04-04 20:30 5.90 939 36500 (1957) 46 (1956) 1770 228 274 404 483 922 1710 2000 3360 4330
2021-04-04 19:30 5.88 925 36500 (1957) 46 (1956) 1770 228 274 404 483 922 1710 2000 3360 4330
2021-04-04 18:30 5.90 939 36500 (1957) 46 (1956) 1770 228 274 404 483 922 1710 2000 3360 4330
2021-04-04 17:30 5.90 939 36500 (1957) 46 (1956) 1770 228 274 404 483 922 1710 2000 3360 4330
2021-04-04 16:30 5.90 939 36500 (1957) 46 (1956) 1770 228 274 404 483 922 1710 2000 3360 4330
2021-04-04 15:30 5.88 925 36500 (1957) 46 (1956) 1770 228 274 404 483 922 1710 2000 3360 4330
2021-04-04 14:30 5.89 932 36500 (1957) 46 (1956) 1770 228 274 404 483 922 1710 2000 3360 4330
2021-04-04 13:30 5.92 954 36500 (1957) 46 (1956) 1770 228 274 404 483 922 1710 2000 3360 4330
2021-04-04 12:30 5.94 969 36500 (1957) 46 (1956) 1770 228 274 404 483 922 1710 2000 3360 4330
2021-04-04 11:30 5.93 962 36500 (1957) 46 (1956) 1770 228 274 404 483 922 1710 2000 3360 4330
2021-04-04 10:30 5.93 962 36500 (1957) 46 (1956) 1770 228 274 404 483 922 1710 2000 3360 4330
2021-04-04 09:30 5.92 954 36500 (1957) 46 (1956) 1770 228 274 404 483 922 1710 2000 3360 4330
2021-04-04 08:30 5.95 976 36500 (1957) 46 (1956) 1770 228 274 404 483 922 1710 2000 3360 4330
2021-04-04 07:30 5.96 984 36500 (1957) 46 (1956) 1770 228 274 404 483 922 1710 2000 3360 4330
2021-04-04 06:30 5.94 969 36500 (1957) 46 (1956) 1770 228 274 404 483 922 1710 2000 3360 4330
2021-04-04 05:30 5.95 976 36500 (1957) 46 (1956) 1770 228 274 404 483 922 1710 2000 3360 4330
2021-04-04 04:30 5.95 976 36500 (1957) 46 (1956) 1770 228 274 404 483 922 1710 2000 3360 4330
2021-04-04 03:30 5.94 969 36500 (1957) 46 (1956) 1770 228 274 404 483 922 1710 2000 3360 4330
2021-04-04 02:30 5.95 976 36500 (1957) 46 (1956) 1770 228 274 404 483 922 1710 2000 3360 4330
2021-04-04 01:30 5.95 976 36500 (1957) 46 (1956) 1770 228 274 404 483 922 1710 2000 3360 4330
2021-04-04 00:30 5.95 976 36500 (1957) 46 (1956) 1770 228 274 404 483 922 1710 2000 3360 4330
2021-04-03 23:30 5.96 984 6160 (1988) 50 (1956) 1270 220 284 408 485 944 1600 1840 2450 3910
2021-04-03 21:30 5.96 984 6160 (1988) 50 (1956) 1270 220 284 408 485 944 1600 1840 2450 3910
2021-04-03 20:30 5.96 984 6160 (1988) 50 (1956) 1270 220 284 408 485 944 1600 1840 2450 3910
2021-04-03 19:30 5.97 991 6160 (1988) 50 (1956) 1270 220 284 408 485 944 1600 1840 2450 3910
2021-04-03 18:30 5.97 991 6160 (1988) 50 (1956) 1270 220 284 408 485 944 1600 1840 2450 3910
2021-04-03 17:30 5.99 1010 6160 (1988) 50 (1956) 1270 220 284 408 485 944 1600 1840 2450 3910
2021-04-03 16:30 5.99 1010 6160 (1988) 50 (1956) 1270 220 284 408 485 944 1600 1840 2450 3910
2021-04-03 15:30 5.97 991 6160 (1988) 50 (1956) 1270 220 284 408 485 944 1600 1840 2450 3910
2021-04-03 14:30 5.98 999 6160 (1988) 50 (1956) 1270 220 284 408 485 944 1600 1840 2450 3910
2021-04-03 13:30 6.00 1010 6160 (1988) 50 (1956) 1270 220 284 408 485 944 1600 1840 2450 3910
2021-04-03 12:30 5.99 1010 6160 (1988) 50 (1956) 1270 220 284 408 485 944 1600 1840 2450 3910
2021-04-03 11:30 6.00 1010 6160 (1988) 50 (1956) 1270 220 284 408 485 944 1600 1840 2450 3910
2021-04-03 10:30 6.00 1010 6160 (1988) 50 (1956) 1270 220 284 408 485 944 1600 1840 2450 3910
2021-04-03 09:30 6.03 1040 6160 (1988) 50 (1956) 1270 220 284 408 485 944 1600 1840 2450 3910
2021-04-03 08:30 6.01 1020 6160 (1988) 50 (1956) 1270 220 284 408 485 944 1600 1840 2450 3910
2021-04-03 07:30 6.02 1030 6160 (1988) 50 (1956) 1270 220 284 408 485 944 1600 1840 2450 3910
2021-04-03 06:30 6.02 1030 6160 (1988) 50 (1956) 1270 220 284 408 485 944 1600 1840 2450 3910
2021-04-03 05:30 6.03 1040 6160 (1988) 50 (1956) 1270 220 284 408 485 944 1600 1840 2450 3910
2021-04-03 04:30 6.03 1040 6160 (1988) 50 (1956) 1270 220 284 408 485 944 1600 1840 2450 3910
2021-04-03 03:30 6.04 1050 6160 (1988) 50 (1956) 1270 220 284 408 485 944 1600 1840 2450 3910
2021-04-03 02:30 6.05 1050 6160 (1988) 50 (1956) 1270 220 284 408 485 944 1600 1840 2450 3910
2021-04-03 01:30 6.04 1050 6160 (1988) 50 (1956) 1270 220 284 408 485 944 1600 1840 2450 3910
2021-04-03 00:30 6.04 1050 6160 (1988) 50 (1956) 1270 220 284 408 485 944 1600 1840 2450 3910
2021-04-02 23:30 6.04 1050 12800 (2008) 50 (1956) 1370 202 261 399 482 974 1620 1780 2850 4260
2021-04-02 22:30 6.05 1050 12800 (2008) 50 (1956) 1370 202 261 399 482 974 1620 1780 2850 4260
2021-04-02 21:30 6.03 1040 12800 (2008) 50 (1956) 1370 202 261 399 482 974 1620 1780 2850 4260
2021-04-02 20:30 6.04 1050 12800 (2008) 50 (1956) 1370 202 261 399 482 974 1620 1780 2850 4260
2021-04-02 19:30 6.03 1040 12800 (2008) 50 (1956) 1370 202 261 399 482 974 1620 1780 2850 4260
2021-04-02 18:30 6.04 1050 12800 (2008) 50 (1956) 1370 202 261 399 482 974 1620 1780 2850 4260
2021-04-02 17:30 6.06 1060 12800 (2008) 50 (1956) 1370 202 261 399 482 974 1620 1780 2850 4260
2021-04-02 16:30 6.07 1070 12800 (2008) 50 (1956) 1370 202 261 399 482 974 1620 1780 2850 4260
2021-04-02 15:30 6.07 1070 12800 (2008) 50 (1956) 1370 202 261 399 482 974 1620 1780 2850 4260
2021-04-02 14:30 6.08 1080 12800 (2008) 50 (1956) 1370 202 261 399 482 974 1620 1780 2850 4260
2021-04-02 13:30 6.10 1090 12800 (2008) 50 (1956) 1370 202 261 399 482 974 1620 1780 2850 4260
2021-04-02 12:30 6.09 1080 12800 (2008) 50 (1956) 1370 202 261 399 482 974 1620 1780 2850 4260
2021-04-02 11:30 6.11 1100 12800 (2008) 50 (1956) 1370 202 261 399 482 974 1620 1780 2850 4260
2021-04-02 10:30 6.11 1100 12800 (2008) 50 (1956) 1370 202 261 399 482 974 1620 1780 2850 4260
2021-04-02 09:30 6.11 1100 12800 (2008) 50 (1956) 1370 202 261 399 482 974 1620 1780 2850 4260
2021-04-02 08:30 6.12 1110 12800 (2008) 50 (1956) 1370 202 261 399 482 974 1620 1780 2850 4260
2021-04-02 07:30 6.15 1130 12800 (2008) 50 (1956) 1370 202 261 399 482 974 1620 1780 2850 4260
2021-04-02 06:30 6.13 1120 12800 (2008) 50 (1956) 1370 202 261 399 482 974 1620 1780 2850 4260
2021-04-02 05:30 6.13 1120 12800 (2008) 50 (1956) 1370 202 261 399 482 974 1620 1780 2850 4260
2021-04-02 04:30 6.16 1140 12800 (2008) 50 (1956) 1370 202 261 399 482 974 1620 1780 2850 4260
2021-04-02 03:30 6.13 1120 12800 (2008) 50 (1956) 1370 202 261 399 482 974 1620 1780 2850 4260
2021-04-02 02:30 6.17 1150 12800 (2008) 50 (1956) 1370 202 261 399 482 974 1620 1780 2850 4260
2021-04-02 01:30 6.16 1140 12800 (2008) 50 (1956) 1370 202 261 399 482 974 1620 1780 2850 4260
2021-04-02 00:30 6.15 1130 12800 (2008) 50 (1956) 1370 202 261 399 482 974 1620 1780 2850 4260
2021-04-01 23:30 6.16 1140 12300 (2008) 54 (1956) 1530 203 265 398 464 1000 1760 1890 3650 5180
2021-04-01 22:30 6.17 1150 12300 (2008) 54 (1956) 1530 203 265 398 464 1000 1760 1890 3650 5180
2021-04-01 21:30 6.16 1140 12300 (2008) 54 (1956) 1530 203 265 398 464 1000 1760 1890 3650 5180
2021-04-01 20:30 6.18 1160 12300 (2008) 54 (1956) 1530 203 265 398 464 1000 1760 1890 3650 5180
2021-04-01 19:30 6.18 1160 12300 (2008) 54 (1956) 1530 203 265 398 464 1000 1760 1890 3650 5180
2021-04-01 18:30 6.19 1170 12300 (2008) 54 (1956) 1530 203 265 398 464 1000 1760 1890 3650 5180
2021-04-01 17:30 6.19 1170 12300 (2008) 54 (1956) 1530 203 265 398 464 1000 1760 1890 3650 5180
2021-04-01 16:30 6.19 1170 12300 (2008) 54 (1956) 1530 203 265 398 464 1000 1760 1890 3650 5180
2021-04-01 15:30 6.20 1180 12300 (2008) 54 (1956) 1530 203 265 398 464 1000 1760 1890 3650 5180
2021-04-01 14:30 6.22 1190 12300 (2008) 54 (1956) 1530 203 265 398 464 1000 1760 1890 3650 5180
2021-04-01 13:30 6.23 1200 12300 (2008) 54 (1956) 1530 203 265 398 464 1000 1760 1890 3650 5180
2021-04-01 12:30 6.23 1200 12300 (2008) 54 (1956) 1530 203 265 398 464 1000 1760 1890 3650 5180
2021-04-01 11:30 6.24 1210 12300 (2008) 54 (1956) 1530 203 265 398 464 1000 1760 1890 3650 5180
2021-04-01 10:30 6.24 1210 12300 (2008) 54 (1956) 1530 203 265 398 464 1000 1760 1890 3650 5180
2021-04-01 09:30 6.27 1240 12300 (2008) 54 (1956) 1530 203 265 398 464 1000 1760 1890 3650 5180
2021-04-01 08:30 6.26 1230 12300 (2008) 54 (1956) 1530 203 265 398 464 1000 1760 1890 3650 5180
2021-04-01 07:30 6.26 1230 12300 (2008) 54 (1956) 1530 203 265 398 464 1000 1760 1890 3650 5180
2021-04-01 06:30 6.25 1220 12300 (2008) 54 (1956) 1530 203 265 398 464 1000 1760 1890 3650 5180
2021-04-01 05:30 6.30 1260 12300 (2008) 54 (1956) 1530 203 265 398 464 1000 1760 1890 3650 5180
2021-04-01 04:30 6.27 1240 12300 (2008) 54 (1956) 1530 203 265 398 464 1000 1760 1890 3650 5180
2021-04-01 03:30 6.29 1250 12300 (2008) 54 (1956) 1530 203 265 398 464 1000 1760 1890 3650 5180
2021-04-01 02:30 6.29 1250 12300 (2008) 54 (1956) 1530 203 265 398 464 1000 1760 1890 3650 5180
2021-04-01 01:30 6.30 1260 12300 (2008) 54 (1956) 1530 203 265 398 464 1000 1760 1890 3650 5180
2021-04-01 00:30 6.31 1270 12300 (2008) 54 (1956) 1530 203 265 398 464 1000 1760 1890 3650 5180
2021-03-31 23:30 6.31 1270 12600 (1985) 57 (1956) 1570 204 257 400 463 1040 1890 2030 3190 5930
2021-03-31 22:30 6.30 1260 12600 (1985) 57 (1956) 1570 204 257 400 463 1040 1890 2030 3190 5930
2021-03-31 21:30 6.31 1270 12600 (1985) 57 (1956) 1570 204 257 400 463 1040 1890 2030 3190 5930
2021-03-31 20:30 6.31 1270 12600 (1985) 57 (1956) 1570 204 257 400 463 1040 1890 2030 3190 5930
2021-03-31 19:30 6.32 1280 12600 (1985) 57 (1956) 1570 204 257 400 463 1040 1890 2030 3190 5930
2021-03-31 18:30 6.33 1290 12600 (1985) 57 (1956) 1570 204 257 400 463 1040 1890 2030 3190 5930
2021-03-31 17:30 6.33 1290 12600 (1985) 57 (1956) 1570 204 257 400 463 1040 1890 2030 3190 5930
2021-03-31 16:30 6.35 1310 12600 (1985) 57 (1956) 1570 204 257 400 463 1040 1890 2030 3190 5930
2021-03-31 15:30 6.35 1310 12600 (1985) 57 (1956) 1570 204 257 400 463 1040 1890 2030 3190 5930
2021-03-31 14:30 6.36 1320 12600 (1985) 57 (1956) 1570 204 257 400 463 1040 1890 2030 3190 5930
2021-03-31 13:30 6.38 1330 12600 (1985) 57 (1956) 1570 204 257 400 463 1040 1890 2030 3190 5930
2021-03-31 12:30 6.38 1330 12600 (1985) 57 (1956) 1570 204 257 400 463 1040 1890 2030 3190 5930
2021-03-31 11:30 6.38 1330 12600 (1985) 57 (1956) 1570 204 257 400 463 1040 1890 2030 3190 5930
2021-03-31 10:30 6.40 1350 12600 (1985) 57 (1956) 1570 204 257 400 463 1040 1890 2030 3190 5930
2021-03-31 09:30 6.40 1350 12600 (1985) 57 (1956) 1570 204 257 400 463 1040 1890 2030 3190 5930
2021-03-31 08:30 6.43 1380 12600 (1985) 57 (1956) 1570 204 257 400 463 1040 1890 2030 3190 5930
2021-03-31 07:30 6.41 1360 12600 (1985) 57 (1956) 1570 204 257 400 463 1040 1890 2030 3190 5930
2021-03-31 06:30 6.43 1380 12600 (1985) 57 (1956) 1570 204 257 400 463 1040 1890 2030 3190 5930
2021-03-31 05:30 6.40 1350 12600 (1985) 57 (1956) 1570 204 257 400 463 1040 1890 2030 3190 5930
2021-03-31 04:30 6.45 1400 12600 (1985) 57 (1956) 1570 204 257 400 463 1040 1890 2030 3190 5930
2021-03-31 03:30 6.44 1390 12600 (1985) 57 (1956) 1570 204 257 400 463 1040 1890 2030 3190 5930
2021-03-31 02:30 6.43 1380 12600 (1985) 57 (1956) 1570 204 257 400 463 1040 1890 2030 3190 5930
2021-03-31 01:30 6.44 1390 12600 (1985) 57 (1956) 1570 204 257 400 463 1040 1890 2030 3190 5930
2021-03-31 00:30 6.44 1390 12600 (1985) 57 (1956) 1570 204 257 400 463 1040 1890 2030 3190 5930
2021-03-30 23:30 6.47 1420 16300 (1988) 57 (1956) 1720 192 267 401 474 1030 1840 2180 3190 7200
2021-03-30 22:30 6.48 1430 16300 (1988) 57 (1956) 1720 192 267 401 474 1030 1840 2180 3190 7200
2021-03-30 21:30 6.49 1440 16300 (1988) 57 (1956) 1720 192 267 401 474 1030 1840 2180 3190 7200
2021-03-30 20:30 6.48 1430 16300 (1988) 57 (1956) 1720 192 267 401 474 1030 1840 2180 3190 7200
2021-03-30 19:30 6.48 1430 16300 (1988) 57 (1956) 1720 192 267 401 474 1030 1840 2180 3190 7200
2021-03-30 18:30 6.51 1460 16300 (1988) 57 (1956) 1720 192 267 401 474 1030 1840 2180 3190 7200
2021-03-30 17:30 6.51 1460 16300 (1988) 57 (1956) 1720 192 267 401 474 1030 1840 2180 3190 7200
2021-03-30 16:30 6.51 1460 16300 (1988) 57 (1956) 1720 192 267 401 474 1030 1840 2180 3190 7200
2021-03-30 15:30 6.54 1490 16300 (1988) 57 (1956) 1720 192 267 401 474 1030 1840 2180 3190 7200
2021-03-30 14:30 6.53 1480 16300 (1988) 57 (1956) 1720 192 267 401 474 1030 1840 2180 3190 7200
2021-03-30 13:30 6.53 1480 16300 (1988) 57 (1956) 1720 192 267 401 474 1030 1840 2180 3190 7200
2021-03-30 12:30 6.55 1500 16300 (1988) 57 (1956) 1720 192 267 401 474 1030 1840 2180 3190 7200
2021-03-30 11:30 6.56 1510 16300 (1988) 57 (1956) 1720 192 267 401 474 1030 1840 2180 3190 7200
2021-03-30 10:30 6.58 1530 16300 (1988) 57 (1956) 1720 192 267 401 474 1030 1840 2180 3190 7200
2021-03-30 09:30 6.58 1530 16300 (1988) 57 (1956) 1720 192 267 401 474 1030 1840 2180 3190 7200
2021-03-30 08:30 6.60 1550 16300 (1988) 57 (1956) 1720 192 267 401 474 1030 1840 2180 3190 7200
2021-03-30 07:30 6.60 1550 16300 (1988) 57 (1956) 1720 192 267 401 474 1030 1840 2180 3190 7200
2021-03-30 06:30 6.61 1560 16300 (1988) 57 (1956) 1720 192 267 401 474 1030 1840 2180 3190 7200
2021-03-30 05:30 6.61 1560 16300 (1988) 57 (1956) 1720 192 267 401 474 1030 1840 2180 3190 7200
2021-03-30 04:30 6.62 1570 16300 (1988) 57 (1956) 1720 192 267 401 474 1030 1840 2180 3190 7200
2021-03-30 03:30 6.64 1590 16300 (1988) 57 (1956) 1720 192 267 401 474 1030 1840 2180 3190 7200
2021-03-30 02:30 6.66 1610 16300 (1988) 57 (1956) 1720 192 267 401 474 1030 1840 2180 3190 7200
2021-03-30 01:30 6.65 1600 16300 (1988) 57 (1956) 1720 192 267 401 474 1030 1840 2180 3190 7200
2021-03-30 00:30 6.66 1610 16300 (1988) 57 (1956) 1720 192 267 401 474 1030 1840 2180 3190 7200
2021-03-29 23:30 6.69 1640 11300 (2018) 62 (1956) 1630 190 293 405 491 898 1990 2300 3330 7680
2021-03-29 22:30 6.67 1620 11300 (2018) 62 (1956) 1630 190 293 405 491 898 1990 2300 3330 7680
2021-03-29 21:30 6.67 1620 11300 (2018) 62 (1956) 1630 190 293 405 491 898 1990 2300 3330 7680
2021-03-29 20:30 6.69 1640 11300 (2018) 62 (1956) 1630 190 293 405 491 898 1990 2300 3330 7680
2021-03-29 19:30 6.69 1640 11300 (2018) 62 (1956) 1630 190 293 405 491 898 1990 2300 3330 7680
2021-03-29 18:30 6.71 1660 11300 (2018) 62 (1956) 1630 190 293 405 491 898 1990 2300 3330 7680
2021-03-29 17:30 6.73 1680 11300 (2018) 62 (1956) 1630 190 293 405 491 898 1990 2300 3330 7680
2021-03-29 16:30 6.71 1660 11300 (2018) 62 (1956) 1630 190 293 405 491 898 1990 2300 3330 7680
2021-03-29 15:30 6.72 1670 11300 (2018) 62 (1956) 1630 190 293 405 491 898 1990 2300 3330 7680
2021-03-29 14:30 6.75 1700 11300 (2018) 62 (1956) 1630 190 293 405 491 898 1990 2300 3330 7680
2021-03-29 13:30 6.79 1750 11300 (2018) 62 (1956) 1630 190 293 405 491 898 1990 2300 3330 7680
2021-03-29 12:30 6.77 1720 11300 (2018) 62 (1956) 1630 190 293 405 491 898 1990 2300 3330 7680
2021-03-29 11:30 6.80 1760 11300 (2018) 62 (1956) 1630 190 293 405 491 898 1990 2300 3330 7680
2021-03-29 10:30 6.81 1770 11300 (2018) 62 (1956) 1630 190 293 405 491 898 1990 2300 3330 7680
2021-03-29 09:30 6.80 1760 11300 (2018) 62 (1956) 1630 190 293 405 491 898 1990 2300 3330 7680
2021-03-29 08:30 6.81 1770 11300 (2018) 62 (1956) 1630 190 293 405 491 898 1990 2300 3330 7680
2021-03-29 07:30 6.83 1790 11300 (2018) 62 (1956) 1630 190 293 405 491 898 1990 2300 3330 7680
2021-03-29 06:30 6.84 1800 11300 (2018) 62 (1956) 1630 190 293 405 491 898 1990 2300 3330 7680
2021-03-29 05:30 6.84 1800 11300 (2018) 62 (1956) 1630 190 293 405 491 898 1990 2300 3330 7680
2021-03-29 04:30 6.85 1810 11300 (2018) 62 (1956) 1630 190 293 405 491 898 1990 2300 3330 7680
2021-03-29 03:30 6.84 1800 11300 (2018) 62 (1956) 1630 190 293 405 491 898 1990 2300 3330 7680
2021-03-29 02:30 6.84 1800 11300 (2018) 62 (1956) 1630 190 293 405 491 898 1990 2300 3330 7680
2021-03-29 01:30 6.88 1850 11300 (2018) 62 (1956) 1630 190 293 405 491 898 1990 2300 3330 7680
2021-03-29 00:30 6.85 1810 11300 (2018) 62 (1956) 1630 190 293 405 491 898 1990 2300 3330 7680
2021-03-28 23:30 6.86 1820 14200 (2018) 67 (1956) 1540 190 294 413 484 915 1840 2110 3620 4840
2021-03-28 22:30 6.87 1830 14200 (2018) 67 (1956) 1540 190 294 413 484 915 1840 2110 3620 4840
2021-03-28 21:30 6.88 1850 14200 (2018) 67 (1956) 1540 190 294 413 484 915 1840 2110 3620 4840
2021-03-28 20:30 6.91 1880 14200 (2018) 67 (1956) 1540 190 294 413 484 915 1840 2110 3620 4840
2021-03-28 19:30 6.93 1900 14200 (2018) 67 (1956) 1540 190 294 413 484 915 1840 2110 3620 4840
2021-03-28 18:30 6.94 1910 14200 (2018) 67 (1956) 1540 190 294 413 484 915 1840 2110 3620 4840
2021-03-28 17:30 6.96 1940 14200 (2018) 67 (1956) 1540 190 294 413 484 915 1840 2110 3620 4840
2021-03-28 16:30 6.98 1960 14200 (2018) 67 (1956) 1540 190 294 413 484 915 1840 2110 3620 4840
2021-03-28 15:30 7.00 1980 14200 (2018) 67 (1956) 1540 190 294 413 484 915 1840 2110 3620 4840
2021-03-28 14:30 7.02 2010 14200 (2018) 67 (1956) 1540 190 294 413 484 915 1840 2110 3620 4840
2021-03-28 13:30 7.03 2020 14200 (2018) 67 (1956) 1540 190 294 413 484 915 1840 2110 3620 4840
2021-03-28 12:30 7.06 2060 14200 (2018) 67 (1956) 1540 190 294 413 484 915 1840 2110 3620 4840
2021-03-28 11:30 7.05 2040 14200 (2018) 67 (1956) 1540 190 294 413 484 915 1840 2110 3620 4840
2021-03-28 10:30 7.09 2090 14200 (2018) 67 (1956) 1540 190 294 413 484 915 1840 2110 3620 4840
2021-03-28 09:30 7.09 2090 14200 (2018) 67 (1956) 1540 190 294 413 484 915 1840 2110 3620 4840
2021-03-28 08:30 7.15 2180 14200 (2018) 67 (1956) 1540 190 294 413 484 915 1840 2110 3620 4840
2021-03-28 07:30 7.17 2210 14200 (2018) 67 (1956) 1540 190 294 413 484 915 1840 2110 3620 4840
2021-03-28 06:30 7.18 2220 14200 (2018) 67 (1956) 1540 190 294 413 484 915 1840 2110 3620 4840
2021-03-28 05:30 7.18 2220 14200 (2018) 67 (1956) 1540 190 294 413 484 915 1840 2110 3620 4840
2021-03-28 04:30 7.20 2250 14200 (2018) 67 (1956) 1540 190 294 413 484 915 1840 2110 3620 4840
2021-03-28 03:30 7.20 2250 14200 (2018) 67 (1956) 1540 190 294 413 484 915 1840 2110 3620 4840
2021-03-28 02:30 7.25 2320 14200 (2018) 67 (1956) 1540 190 294 413 484 915 1840 2110 3620 4840
2021-03-28 01:30 7.26 2340 14200 (2018) 67 (1956) 1540 190 294 413 484 915 1840 2110 3620 4840
2021-03-28 00:30 7.27 2350 14200 (2018) 67 (1956) 1540 190 294 413 484 915 1840 2110 3620 4840
2021-03-27 23:30 7.28 2370 6220 (1973) 76 (1956) 1420 189 296 393 450 868 1930 2000 3510 4090
2021-03-27 22:30 7.32 2430 6220 (1973) 76 (1956) 1420 189 296 393 450 868 1930 2000 3510 4090
2021-03-27 21:30 7.33 2440 6220 (1973) 76 (1956) 1420 189 296 393 450 868 1930 2000 3510 4090
2021-03-27 20:30 7.39 2530 6220 (1973) 76 (1956) 1420 189 296 393 450 868 1930 2000 3510 4090
2021-03-27 19:30 7.41 2560 6220 (1973) 76 (1956) 1420 189 296 393 450 868 1930 2000 3510 4090
2021-03-27 18:30 7.44 2610 6220 (1973) 76 (1956) 1420 189 296 393 450 868 1930 2000 3510 4090
2021-03-27 17:30 7.46 2640 6220 (1973) 76 (1956) 1420 189 296 393 450 868 1930 2000 3510 4090
2021-03-27 16:30 7.49 2690 6220 (1973) 76 (1956) 1420 189 296 393 450 868 1930 2000 3510 4090
2021-03-27 15:30 7.52 2730 6220 (1973) 76 (1956) 1420 189 296 393 450 868 1930 2000 3510 4090
2021-03-27 14:30 7.60 2840 6220 (1973) 76 (1956) 1420 189 296 393 450 868 1930 2000 3510 4090
2021-03-27 13:30 7.60 2840 6220 (1973) 76 (1956) 1420 189 296 393 450 868 1930 2000 3510 4090
2021-03-27 12:30 7.67 2940 6220 (1973) 76 (1956) 1420 189 296 393 450 868 1930 2000 3510 4090
2021-03-27 11:30 7.69 2970 6220 (1973) 76 (1956) 1420 189 296 393 450 868 1930 2000 3510 4090
2021-03-27 10:30 7.69 2970 6220 (1973) 76 (1956) 1420 189 296 393 450 868 1930 2000 3510 4090
2021-03-27 09:30 7.75 3060 6220 (1973) 76 (1956) 1420 189 296 393 450 868 1930 2000 3510 4090
2021-03-27 08:30 7.78 3100 6220 (1973) 76 (1956) 1420 189 296 393 450 868 1930 2000 3510 4090
2021-03-27 07:30 7.84 3190 6220 (1973) 76 (1956) 1420 189 296 393 450 868 1930 2000 3510 4090
2021-03-27 06:30 7.89 3270 6220 (1973) 76 (1956) 1420 189 296 393 450 868 1930 2000 3510 4090
2021-03-27 05:30 7.92 3310 6220 (1973) 76 (1956) 1420 189 296 393 450 868 1930 2000 3510 4090
2021-03-27 04:30 8.00 3440 6220 (1973) 76 (1956) 1420 189 296 393 450 868 1930 2000 3510 4090
2021-03-27 03:30 8.05 3510 6220 (1973) 76 (1956) 1420 189 296 393 450 868 1930 2000 3510 4090
2021-03-27 02:30 8.10 3590 6220 (1973) 76 (1956) 1420 189 296 393 450 868 1930 2000 3510 4090
2021-03-27 01:30 8.14 3650 6220 (1973) 76 (1956) 1420 189 296 393 450 868 1930 2000 3510 4090
2021-03-27 00:30 8.18 3720 6220 (1973) 76 (1956) 1420 189 296 393 450 868 1930 2000 3510 4090
2021-03-26 23:30 8.18 3720 13400 (1973) 86 (1956) 1640 194 283 391 426 850 1950 2200 3450 6180
2021-03-26 22:30 8.15 3670 13400 (1973) 86 (1956) 1640 194 283 391 426 850 1950 2200 3450 6180
2021-03-26 21:30 8.05 3510 13400 (1973) 86 (1956) 1640 194 283 391 426 850 1950 2200 3450 6180
2021-03-26 20:30 7.91 3300 13400 (1973) 86 (1956) 1640 194 283 391 426 850 1950 2200 3450 6180
2021-03-26 19:30 7.73 3030 13400 (1973) 86 (1956) 1640 194 283 391 426 850 1950 2200 3450 6180
2021-03-26 18:30 7.57 2800 13400 (1973) 86 (1956) 1640 194 283 391 426 850 1950 2200 3450 6180
2021-03-26 17:30 7.35 2470 13400 (1973) 86 (1956) 1640 194 283 391 426 850 1950 2200 3450 6180
2021-03-26 16:30 7.13 2150 13400 (1973) 86 (1956) 1640 194 283 391 426 850 1950 2200 3450 6180
2021-03-26 15:30 6.97 1950 13400 (1973) 86 (1956) 1640 194 283 391 426 850 1950 2200 3450 6180
2021-03-26 14:30 6.77 1720 13400 (1973) 86 (1956) 1640 194 283 391 426 850 1950 2200 3450 6180
2021-03-26 13:30 6.65 1600 13400 (1973) 86 (1956) 1640 194 283 391 426 850 1950 2200 3450 6180
2021-03-26 12:30 6.53 1480 13400 (1973) 86 (1956) 1640 194 283 391 426 850 1950 2200 3450 6180
2021-03-26 11:30 6.46 1410 13400 (1973) 86 (1956) 1640 194 283 391 426 850 1950 2200 3450 6180
2021-03-26 10:30 6.43 1380 13400 (1973) 86 (1956) 1640 194 283 391 426 850 1950 2200 3450 6180
2021-03-26 09:30 6.39 1340 13400 (1973) 86 (1956) 1640 194 283 391 426 850 1950 2200 3450 6180
2021-03-26 08:30 6.38 1330 13400 (1973) 86 (1956) 1640 194 283 391 426 850 1950 2200 3450 6180
2021-03-26 07:30 6.38 1330 13400 (1973) 86 (1956) 1640 194 283 391 426 850 1950 2200 3450 6180
2021-03-26 06:30 6.38 1330 13400 (1973) 86 (1956) 1640 194 283 391 426 850 1950 2200 3450 6180
2021-03-26 05:30 6.39 1340 13400 (1973) 86 (1956) 1640 194 283 391 426 850 1950 2200 3450 6180
2021-03-26 04:30 6.35 1310 13400 (1973) 86 (1956) 1640 194 283 391 426 850 1950 2200 3450 6180
2021-03-26 03:30 6.35 1310 13400 (1973) 86 (1956) 1640 194 283 391 426 850 1950 2200 3450 6180
2021-03-26 02:30 6.34 1300 13400 (1973) 86 (1956) 1640 194 283 391 426 850 1950 2200 3450 6180
2021-03-26 01:30 6.36 1320 13400 (1973) 86 (1956) 1640 194 283 391 426 850 1950 2200 3450 6180
2021-03-26 00:30 6.32 1280 13400 (1973) 86 (1956) 1640 194 283 391 426 850 1950 2200 3450 6180
2021-03-25 23:30 6.31 1270 15500 (1978) 99 (1956) 1680 165 265 393 426 882 1930 2390 3900 6530
2021-03-25 22:30 6.31 1270 15500 (1978) 99 (1956) 1680 165 265 393 426 882 1930 2390 3900 6530
2021-03-25 21:30 6.30 1260 15500 (1978) 99 (1956) 1680 165 265 393 426 882 1930 2390 3900 6530
2021-03-25 20:30 6.29 1250 15500 (1978) 99 (1956) 1680 165 265 393 426 882 1930 2390 3900 6530
2021-03-25 19:30 6.29 1250 15500 (1978) 99 (1956) 1680 165 265 393 426 882 1930 2390 3900 6530
2021-03-25 18:30 6.27 1240 15500 (1978) 99 (1956) 1680 165 265 393 426 882 1930 2390 3900 6530
2021-03-25 17:30 6.27 1240 15500 (1978) 99 (1956) 1680 165 265 393 426 882 1930 2390 3900 6530
2021-03-25 16:30 6.27 1240 15500 (1978) 99 (1956) 1680 165 265 393 426 882 1930 2390 3900 6530
2021-03-25 15:30 6.26 1230 15500 (1978) 99 (1956) 1680 165 265 393 426 882 1930 2390 3900 6530
2021-03-25 14:30 6.23 1200 15500 (1978) 99 (1956) 1680 165 265 393 426 882 1930 2390 3900 6530
2021-03-25 13:30 6.26 1230 15500 (1978) 99 (1956) 1680 165 265 393 426 882 1930 2390 3900 6530
2021-03-25 12:30 6.25 1220 15500 (1978) 99 (1956) 1680 165 265 393 426 882 1930 2390 3900 6530
2021-03-25 11:30 6.25 1220 15500 (1978) 99 (1956) 1680 165 265 393 426 882 1930 2390 3900 6530
2021-03-25 10:30 6.23 1200 15500 (1978) 99 (1956) 1680 165 265 393 426 882 1930 2390 3900 6530
2021-03-25 09:30 6.21 1180 15500 (1978) 99 (1956) 1680 165 265 393 426 882 1930 2390 3900 6530
2021-03-25 08:30 6.21 1180 15500 (1978) 99 (1956) 1680 165 265 393 426 882 1930 2390 3900 6530
2021-03-25 07:30 6.22 1190 15500 (1978) 99 (1956) 1680 165 265 393 426 882 1930 2390 3900 6530
2021-03-25 06:30 6.24 1210 15500 (1978) 99 (1956) 1680 165 265 393 426 882 1930 2390 3900 6530
2021-03-25 05:30 6.23 1200 15500 (1978) 99 (1956) 1680 165 265 393 426 882 1930 2390 3900 6530
2021-03-25 04:30 6.22 1190 15500 (1978) 99 (1956) 1680 165 265 393 426 882 1930 2390 3900 6530
2021-03-25 03:30 6.22 1190 15500 (1978) 99 (1956) 1680 165 265 393 426 882 1930 2390 3900 6530
2021-03-25 02:30 6.21 1180 15500 (1978) 99 (1956) 1680 165 265 393 426 882 1930 2390 3900 6530
2021-03-25 01:30 6.22 1190 15500 (1978) 99 (1956) 1680 165 265 393 426 882 1930 2390 3900 6530
2021-03-25 00:30 6.19 1170 15500 (1978) 99 (1956) 1680 165 265 393 426 882 1930 2390 3900 6530
2021-03-24 23:30 6.18 1160 5970 (1948) 103 (1954) 1400 163 285 406 446 866 1970 2270 3660 4710
2021-03-24 22:30 6.18 1160 5970 (1948) 103 (1954) 1400 163 285 406 446 866 1970 2270 3660 4710
2021-03-24 21:30 6.17 1150 5970 (1948) 103 (1954) 1400 163 285 406 446 866 1970 2270 3660 4710
2021-03-24 20:30 6.16 1140 5970 (1948) 103 (1954) 1400 163 285 406 446 866 1970 2270 3660 4710
2021-03-24 19:30 6.17 1150 5970 (1948) 103 (1954) 1400 163 285 406 446 866 1970 2270 3660 4710
2021-03-24 18:30 6.16 1140 5970 (1948) 103 (1954) 1400 163 285 406 446 866 1970 2270 3660 4710
2021-03-24 17:30 6.13 1120 5970 (1948) 103 (1954) 1400 163 285 406 446 866 1970 2270 3660 4710
2021-03-24 16:30 6.13 1120 5970 (1948) 103 (1954) 1400 163 285 406 446 866 1970 2270 3660 4710
2021-03-24 15:30 6.12 1110 5970 (1948) 103 (1954) 1400 163 285 406 446 866 1970 2270 3660 4710
2021-03-24 14:30 6.12 1110 5970 (1948) 103 (1954) 1400 163 285 406 446 866 1970 2270 3660 4710
2021-03-24 13:30 6.14 1130 5970 (1948) 103 (1954) 1400 163 285 406 446 866 1970 2270 3660 4710
2021-03-24 12:30 6.14 1130 5970 (1948) 103 (1954) 1400 163 285 406 446 866 1970 2270 3660 4710
2021-03-24 11:30 6.13 1120 5970 (1948) 103 (1954) 1400 163 285 406 446 866 1970 2270 3660 4710
2021-03-24 10:30 6.15 1130 5970 (1948) 103 (1954) 1400 163 285 406 446 866 1970 2270 3660 4710
2021-03-24 09:30 6.15 1130 5970 (1948) 103 (1954) 1400 163 285 406 446 866 1970 2270 3660 4710
2021-03-24 08:30 6.15 1130 5970 (1948) 103 (1954) 1400 163 285 406 446 866 1970 2270 3660 4710
2021-03-24 07:30 6.14 1130 5970 (1948) 103 (1954) 1400 163 285 406 446 866 1970 2270 3660 4710
2021-03-24 06:30 6.14 1130 5970 (1948) 103 (1954) 1400 163 285 406 446 866 1970 2270 3660 4710
2021-03-24 05:30 6.14 1130 5970 (1948) 103 (1954) 1400 163 285 406 446 866 1970 2270 3660 4710
2021-03-24 04:30 6.13 1120 5970 (1948) 103 (1954) 1400 163 285 406 446 866 1970 2270 3660 4710
2021-03-24 03:30 6.13 1120 5970 (1948) 103 (1954) 1400 163 285 406 446 866 1970 2270 3660 4710
2021-03-24 02:30 6.14 1130 5970 (1948) 103 (1954) 1400 163 285 406 446 866 1970 2270 3660 4710
2021-03-24 01:30 6.14 1130 5970 (1948) 103 (1954) 1400 163 285 406 446 866 1970 2270 3660 4710
2021-03-24 00:30 6.16 1140 5970 (1948) 103 (1954) 1400 163 285 406 446 866 1970 2270 3660 4710
2021-03-23 23:30 6.15 1130 7540 (2012) 87 (1954) 1390 169 276 412 452 862 1880 2050 3390 4620
2021-03-23 22:30 6.15 1130 7540 (2012) 87 (1954) 1390 169 276 412 452 862 1880 2050 3390 4620
2021-03-23 21:30 6.15 1130 7540 (2012) 87 (1954) 1390 169 276 412 452 862 1880 2050 3390 4620
2021-03-23 20:30 6.15 1130 7540 (2012) 87 (1954) 1390 169 276 412 452 862 1880 2050 3390 4620
2021-03-23 19:30 6.14 1130 7540 (2012) 87 (1954) 1390 169 276 412 452 862 1880 2050 3390 4620
2021-03-23 18:30 6.15 1130 7540 (2012) 87 (1954) 1390 169 276 412 452 862 1880 2050 3390 4620
2021-03-23 17:30 6.16 1140 7540 (2012) 87 (1954) 1390 169 276 412 452 862 1880 2050 3390 4620
2021-03-23 16:30 6.17 1150 7540 (2012) 87 (1954) 1390 169 276 412 452 862 1880 2050 3390 4620
2021-03-23 15:30 6.17 1150 7540 (2012) 87 (1954) 1390 169 276 412 452 862 1880 2050 3390 4620
2021-03-23 14:30 6.15 1130 7540 (2012) 87 (1954) 1390 169 276 412 452 862 1880 2050 3390 4620
2021-03-23 13:30 6.18 1160 7540 (2012) 87 (1954) 1390 169 276 412 452 862 1880 2050 3390 4620
2021-03-23 12:30 6.18 1160 7540 (2012) 87 (1954) 1390 169 276 412 452 862 1880 2050 3390 4620
2021-03-23 11:30 6.18 1160 7540 (2012) 87 (1954) 1390 169 276 412 452 862 1880 2050 3390 4620
2021-03-23 10:30 6.18 1160 7540 (2012) 87 (1954) 1390 169 276 412 452 862 1880 2050 3390 4620
2021-03-23 09:30 6.17 1150 7540 (2012) 87 (1954) 1390 169 276 412 452 862 1880 2050 3390 4620
2021-03-23 08:30 6.20 1180 7540 (2012) 87 (1954) 1390 169 276 412 452 862 1880 2050 3390 4620
2021-03-23 07:30 6.20 1180 7540 (2012) 87 (1954) 1390 169 276 412 452 862 1880 2050 3390 4620
2021-03-23 06:30 6.19 1170 7540 (2012) 87 (1954) 1390 169 276 412 452 862 1880 2050 3390 4620
2021-03-23 05:30 6.19 1170 7540 (2012) 87 (1954) 1390 169 276 412 452 862 1880 2050 3390 4620
2021-03-23 04:30 6.19 1170 7540 (2012) 87 (1954) 1390 169 276 412 452 862 1880 2050 3390 4620
2021-03-23 03:30 6.19 1170 7540 (2012) 87 (1954) 1390 169 276 412 452 862 1880 2050 3390 4620
2021-03-23 02:30 6.18 1160 7540 (2012) 87 (1954) 1390 169 276 412 452 862 1880 2050 3390 4620
2021-03-23 01:30 6.20 1180 7540 (2012) 87 (1954) 1390 169 276 412 452 862 1880 2050 3390 4620
2021-03-23 00:30 6.19 1170 7540 (2012) 87 (1954) 1390 169 276 412 452 862 1880 2050 3390 4620
2021-03-22 23:30 6.17 1150 10600 (1968) 79 (1954) 1630 173 274 423 456 851 1940 2130 4160 5850
2021-03-22 22:30 6.16 1140 10600 (1968) 79 (1954) 1630 173 274 423 456 851 1940 2130 4160 5850
2021-03-22 21:30 6.17 1150 10600 (1968) 79 (1954) 1630 173 274 423 456 851 1940 2130 4160 5850
2021-03-22 20:30 6.16 1140 10600 (1968) 79 (1954) 1630 173 274 423 456 851 1940 2130 4160 5850
2021-03-22 19:30 6.17 1150 10600 (1968) 79 (1954) 1630 173 274 423 456 851 1940 2130 4160 5850
2021-03-22 18:30 6.17 1150 10600 (1968) 79 (1954) 1630 173 274 423 456 851 1940 2130 4160 5850
2021-03-22 17:30 6.17 1150 10600 (1968) 79 (1954) 1630 173 274 423 456 851 1940 2130 4160 5850
2021-03-22 16:30 6.17 1150 10600 (1968) 79 (1954) 1630 173 274 423 456 851 1940 2130 4160 5850
2021-03-22 15:30 6.18 1160 10600 (1968) 79 (1954) 1630 173 274 423 456 851 1940 2130 4160 5850
2021-03-22 14:30 6.19 1170 10600 (1968) 79 (1954) 1630 173 274 423 456 851 1940 2130 4160 5850
2021-03-22 13:30 6.20 1180 10600 (1968) 79 (1954) 1630 173 274 423 456 851 1940 2130 4160 5850
2021-03-22 12:30 6.19 1170 10600 (1968) 79 (1954) 1630 173 274 423 456 851 1940 2130 4160 5850
2021-03-22 11:30 6.22 1190 10600 (1968) 79 (1954) 1630 173 274 423 456 851 1940 2130 4160 5850
2021-03-22 10:30 6.23 1200 10600 (1968) 79 (1954) 1630 173 274 423 456 851 1940 2130 4160 5850
2021-03-22 09:30 6.21 1180 10600 (1968) 79 (1954) 1630 173 274 423 456 851 1940 2130 4160 5850
2021-03-22 08:30 6.24 1210 10600 (1968) 79 (1954) 1630 173 274 423 456 851 1940 2130 4160 5850
2021-03-22 07:30 6.24 1210 10600 (1968) 79 (1954) 1630 173 274 423 456 851 1940 2130 4160 5850
2021-03-22 06:30 6.23 1200 10600 (1968) 79 (1954) 1630 173 274 423 456 851 1940 2130 4160 5850
2021-03-22 05:30 6.23 1200 10600 (1968) 79 (1954) 1630 173 274 423 456 851 1940 2130 4160 5850
2021-03-22 04:30 6.26 1230 10600 (1968) 79 (1954) 1630 173 274 423 456 851 1940 2130 4160 5850
2021-03-22 03:30 6.25 1220 10600 (1968) 79 (1954) 1630 173 274 423 456 851 1940 2130 4160 5850
2021-03-22 02:30 6.25 1220 10600 (1968) 79 (1954) 1630 173 274 423 456 851 1940 2130 4160 5850
2021-03-22 01:30 6.26 1230 10600 (1968) 79 (1954) 1630 173 274 423 456 851 1940 2130 4160 5850
2021-03-22 00:30 6.25 1220 10600 (1968) 79 (1954) 1630 173 274 423 456 851 1940 2130 4160 5850
2021-03-21 23:30 6.26 1230 17400 (2020) 76 (1954) 2120 181 264 434 473 897 1950 2310 7130 10000
2021-03-21 22:30 6.29 1250 17400 (2020) 76 (1954) 2120 181 264 434 473 897 1950 2310 7130 10000
2021-03-21 21:30 6.28 1240 17400 (2020) 76 (1954) 2120 181 264 434 473 897 1950 2310 7130 10000
2021-03-21 20:30 6.27 1240 17400 (2020) 76 (1954) 2120 181 264 434 473 897 1950 2310 7130 10000
2021-03-21 19:30 6.29 1250 17400 (2020) 76 (1954) 2120 181 264 434 473 897 1950 2310 7130 10000
2021-03-21 18:30 6.26 1230 17400 (2020) 76 (1954) 2120 181 264 434 473 897 1950 2310 7130 10000
2021-03-21 17:30 6.28 1240 17400 (2020) 76 (1954) 2120 181 264 434 473 897 1950 2310 7130 10000
2021-03-21 16:30 6.31 1270 17400 (2020) 76 (1954) 2120 181 264 434 473 897 1950 2310 7130 10000
2021-03-21 15:30 6.29 1250 17400 (2020) 76 (1954) 2120 181 264 434 473 897 1950 2310 7130 10000
2021-03-21 14:30 6.32 1280 17400 (2020) 76 (1954) 2120 181 264 434 473 897 1950 2310 7130 10000
2021-03-21 13:30 6.32 1280 17400 (2020) 76 (1954) 2120 181 264 434 473 897 1950 2310 7130 10000
2021-03-21 12:30 6.34 1300 17400 (2020) 76 (1954) 2120 181 264 434 473 897 1950 2310 7130 10000
2021-03-21 11:30 6.35 1310 17400 (2020) 76 (1954) 2120 181 264 434 473 897 1950 2310 7130 10000
2021-03-21 10:30 6.34 1300 17400 (2020) 76 (1954) 2120 181 264 434 473 897 1950 2310 7130 10000
2021-03-21 09:30 6.36 1320 17400 (2020) 76 (1954) 2120 181 264 434 473 897 1950 2310 7130 10000
2021-03-21 08:30 6.35 1310 17400 (2020) 76 (1954) 2120 181 264 434 473 897 1950 2310 7130 10000
2021-03-21 07:30 6.37 1320 17400 (2020) 76 (1954) 2120 181 264 434 473 897 1950 2310 7130 10000
2021-03-21 06:30 6.37 1320 17400 (2020) 76 (1954) 2120 181 264 434 473 897 1950 2310 7130 10000
2021-03-21 05:30 6.37 1320 17400 (2020) 76 (1954) 2120 181 264 434 473 897 1950 2310 7130 10000
2021-03-21 04:30 6.39 1340 17400 (2020) 76 (1954) 2120 181 264 434 473 897 1950 2310 7130 10000
2021-03-21 03:30 6.40 1350 17400 (2020) 76 (1954) 2120 181 264 434 473 897 1950 2310 7130 10000
2021-03-21 02:30 6.36 1320 17400 (2020) 76 (1954) 2120 181 264 434 473 897 1950 2310 7130 10000
2021-03-21 01:30 6.39 1340 17400 (2020) 76 (1954) 2120 181 264 434 473 897 1950 2310 7130 10000
2021-03-21 00:30 6.41 1360 17400 (2020) 76 (1954) 2120 181 264 434 473 897 1950 2310 7130 10000
2021-03-20 23:30 6.42 1370 39500 (2008) 74 (1954) 2830 177 263 447 475 854 1800 2320 5330 14800
2021-03-20 22:30 6.42 1370 39500 (2008) 74 (1954) 2830 177 263 447 475 854 1800 2320 5330 14800
2021-03-20 21:30 6.43 1380 39500 (2008) 74 (1954) 2830 177 263 447 475 854 1800 2320 5330 14800
2021-03-20 20:30 6.44 1390 39500 (2008) 74 (1954) 2830 177 263 447 475 854 1800 2320 5330 14800
2021-03-20 19:30 6.42 1370 39500 (2008) 74 (1954) 2830 177 263 447 475 854 1800 2320 5330 14800
2021-03-20 18:30 6.44 1390 39500 (2008) 74 (1954) 2830 177 263 447 475 854 1800 2320 5330 14800
2021-03-20 17:30 6.44 1390 39500 (2008) 74 (1954) 2830 177 263 447 475 854 1800 2320 5330 14800
2021-03-20 16:30 6.44 1390 39500 (2008) 74 (1954) 2830 177 263 447 475 854 1800 2320 5330 14800
2021-03-20 15:30 6.47 1420 39500 (2008) 74 (1954) 2830 177 263 447 475 854 1800 2320 5330 14800
2021-03-20 14:30 6.46 1410 39500 (2008) 74 (1954) 2830 177 263 447 475 854 1800 2320 5330 14800
2021-03-20 13:30 6.49 1440 39500 (2008) 74 (1954) 2830 177 263 447 475 854 1800 2320 5330 14800
2021-03-20 12:30 6.49 1440 39500 (2008) 74 (1954) 2830 177 263 447 475 854 1800 2320 5330 14800
2021-03-20 11:30 6.51 1460 39500 (2008) 74 (1954) 2830 177 263 447 475 854 1800 2320 5330 14800
2021-03-20 10:30 6.53 1480 39500 (2008) 74 (1954) 2830 177 263 447 475 854 1800 2320 5330 14800
2021-03-20 09:30 6.54 1490 39500 (2008) 74 (1954) 2830 177 263 447 475 854 1800 2320 5330 14800
2021-03-20 08:30 6.55 1500 39500 (2008) 74 (1954) 2830 177 263 447 475 854 1800 2320 5330 14800
2021-03-20 07:30 6.53 1480 39500 (2008) 74 (1954) 2830 177 263 447 475 854 1800 2320 5330 14800
2021-03-20 06:30 6.55 1500 39500 (2008) 74 (1954) 2830 177 263 447 475 854 1800 2320 5330 14800
2021-03-20 05:30 6.57 1520 39500 (2008) 74 (1954) 2830 177 263 447 475 854 1800 2320 5330 14800
2021-03-20 04:30 6.58 1530 39500 (2008) 74 (1954) 2830 177 263 447 475 854 1800 2320 5330 14800
2021-03-20 03:30 6.57 1520 39500 (2008) 74 (1954) 2830 177 263 447 475 854 1800 2320 5330 14800
2021-03-20 02:30 6.59 1540 39500 (2008) 74 (1954) 2830 177 263 447 475 854 1800 2320 5330 14800
2021-03-20 01:30 6.57 1520 39500 (2008) 74 (1954) 2830 177 263 447 475 854 1800 2320 5330 14800
2021-03-20 00:30 6.62 1570 39500 (2008) 74 (1954) 2830 177 263 447 475 854 1800 2320 5330 14800
2021-03-19 23:30 6.60 1550 31200 (2008) 76 (1954) 1920 179 275 444 487 800 1680 1920 3860 7680
2021-03-19 22:30 6.64 1590 31200 (2008) 76 (1954) 1920 179 275 444 487 800 1680 1920 3860 7680
2021-03-19 21:30 6.63 1580 31200 (2008) 76 (1954) 1920 179 275 444 487 800 1680 1920 3860 7680
2021-03-19 20:30 6.63 1580 31200 (2008) 76 (1954) 1920 179 275 444 487 800 1680 1920 3860 7680
2021-03-19 19:30 6.64 1590 31200 (2008) 76 (1954) 1920 179 275 444 487 800 1680 1920 3860 7680
2021-03-19 18:30 6.62 1570 31200 (2008) 76 (1954) 1920 179 275 444 487 800 1680 1920 3860 7680
2021-03-19 17:30 6.66 1610 31200 (2008) 76 (1954) 1920 179 275 444 487 800 1680 1920 3860 7680
2021-03-19 16:30 6.61 1560 31200 (2008) 76 (1954) 1920 179 275 444 487 800 1680 1920 3860 7680
2021-03-19 15:30 6.65 1600 31200 (2008) 76 (1954) 1920 179 275 444 487 800 1680 1920 3860 7680
2021-03-19 14:30 6.67 1620 31200 (2008) 76 (1954) 1920 179 275 444 487 800 1680 1920 3860 7680
2021-03-19 13:30 6.69 1640 31200 (2008) 76 (1954) 1920 179 275 444 487 800 1680 1920 3860 7680
2021-03-19 12:30 6.68 1630 31200 (2008) 76 (1954) 1920 179 275 444 487 800 1680 1920 3860 7680
2021-03-19 11:30 6.67 1620 31200 (2008) 76 (1954) 1920 179 275 444 487 800 1680 1920 3860 7680
2021-03-19 10:30 6.69 1640 31200 (2008) 76 (1954) 1920 179 275 444 487 800 1680 1920 3860 7680
2021-03-19 09:30 6.70 1650 31200 (2008) 76 (1954) 1920 179 275 444 487 800 1680 1920 3860 7680
2021-03-19 08:30 6.70 1650 31200 (2008) 76 (1954) 1920 179 275 444 487 800 1680 1920 3860 7680
2021-03-19 07:30 6.72 1670 31200 (2008) 76 (1954) 1920 179 275 444 487 800 1680 1920 3860 7680
2021-03-19 06:30 6.71 1660 31200 (2008) 76 (1954) 1920 179 275 444 487 800 1680 1920 3860 7680
2021-03-19 05:30 6.71 1660 31200 (2008) 76 (1954) 1920 179 275 444 487 800 1680 1920 3860 7680
2021-03-19 04:30 6.71 1660 31200 (2008) 76 (1954) 1920 179 275 444 487 800 1680 1920 3860 7680
2021-03-19 03:30 6.74 1690 31200 (2008) 76 (1954) 1920 179 275 444 487 800 1680 1920 3860 7680
2021-03-19 02:30 6.72 1670 31200 (2008) 76 (1954) 1920 179 275 444 487 800 1680 1920 3860 7680
2021-03-19 01:30 6.72 1670 31200 (2008) 76 (1954) 1920 179 275 444 487 800 1680 1920 3860 7680
2021-03-19 00:30 6.74 1690 31200 (2008) 76 (1954) 1920 179 275 444 487 800 1680 1920 3860 7680
2021-03-18 23:30 6.73 1680 6200 (1987) 79 (1954) 1340 178 289 442 483 736 1770 2180 3290 4350
2021-03-18 22:30 6.73 1680 6200 (1987) 79 (1954) 1340 178 289 442 483 736 1770 2180 3290 4350
2021-03-18 21:30 6.73 1680 6200 (1987) 79 (1954) 1340 178 289 442 483 736 1770 2180 3290 4350
2021-03-18 20:30 6.72 1670 6200 (1987) 79 (1954) 1340 178 289 442 483 736 1770 2180 3290 4350
2021-03-18 19:30 6.74 1690 6200 (1987) 79 (1954) 1340 178 289 442 483 736 1770 2180 3290 4350
2021-03-18 18:30 6.75 1700 6200 (1987) 79 (1954) 1340 178 289 442 483 736 1770 2180 3290 4350
2021-03-18 17:30 6.73 1680 6200 (1987) 79 (1954) 1340 178 289 442 483 736 1770 2180 3290 4350
2021-03-18 16:30 6.74 1690 6200 (1987) 79 (1954) 1340 178 289 442 483 736 1770 2180 3290 4350
2021-03-18 15:30 6.76 1710 6200 (1987) 79 (1954) 1340 178 289 442 483 736 1770 2180 3290 4350
2021-03-18 14:30 6.76 1710 6200 (1987) 79 (1954) 1340 178 289 442 483 736 1770 2180 3290 4350
2021-03-18 13:30 6.76 1710 6200 (1987) 79 (1954) 1340 178 289 442 483 736 1770 2180 3290 4350
2021-03-18 12:30 6.76 1710 6200 (1987) 79 (1954) 1340 178 289 442 483 736 1770 2180 3290 4350
2021-03-18 11:30 6.76 1710 6200 (1987) 79 (1954) 1340 178 289 442 483 736 1770 2180 3290 4350
2021-03-18 10:30 6.76 1710 6200 (1987) 79 (1954) 1340 178 289 442 483 736 1770 2180 3290 4350
2021-03-18 09:30 6.77 1720 6200 (1987) 79 (1954) 1340 178 289 442 483 736 1770 2180 3290 4350
2021-03-18 08:30 6.79 1750 6200 (1987) 79 (1954) 1340 178 289 442 483 736 1770 2180 3290 4350
2021-03-18 07:30 6.78 1730 6200 (1987) 79 (1954) 1340 178 289 442 483 736 1770 2180 3290 4350
2021-03-18 06:30 6.80 1760 6200 (1987) 79 (1954) 1340 178 289 442 483 736 1770 2180 3290 4350
2021-03-18 05:30 6.78 1730 6200 (1987) 79 (1954) 1340 178 289 442 483 736 1770 2180 3290 4350
2021-03-18 04:30 6.83 1790 6200 (1987) 79 (1954) 1340 178 289 442 483 736 1770 2180 3290 4350
2021-03-18 03:30 6.77 1720 6200 (1987) 79 (1954) 1340 178 289 442 483 736 1770 2180 3290 4350
2021-03-18 02:30 6.81 1770 6200 (1987) 79 (1954) 1340 178 289 442 483 736 1770 2180 3290 4350
2021-03-18 01:30 6.80 1760 6200 (1987) 79 (1954) 1340 178 289 442 483 736 1770 2180 3290 4350
2021-03-18 00:30 6.80 1760 6200 (1987) 79 (1954) 1340 178 289 442 483 736 1770 2180 3290 4350
2021-03-17 23:30 6.79 1750 9530 (1944) 81 (1954) 1390 182 297 429 480 771 1730 2200 3230 4950
2021-03-17 22:30 6.81 1770 9530 (1944) 81 (1954) 1390 182 297 429 480 771 1730 2200 3230 4950
2021-03-17 21:30 6.81 1770 9530 (1944) 81 (1954) 1390 182 297 429 480 771 1730 2200 3230 4950
2021-03-17 20:30 6.85 1810 9530 (1944) 81 (1954) 1390 182 297 429 480 771 1730 2200 3230 4950
2021-03-17 19:30 6.83 1790 9530 (1944) 81 (1954) 1390 182 297 429 480 771 1730 2200 3230 4950
2021-03-17 18:30 6.85 1810 9530 (1944) 81 (1954) 1390 182 297 429 480 771 1730 2200 3230 4950
2021-03-17 17:30 6.84 1800 9530 (1944) 81 (1954) 1390 182 297 429 480 771 1730 2200 3230 4950
2021-03-17 16:30 6.85 1810 9530 (1944) 81 (1954) 1390 182 297 429 480 771 1730 2200 3230 4950
2021-03-17 15:30 6.88 1850 9530 (1944) 81 (1954) 1390 182 297 429 480 771 1730 2200 3230 4950
2021-03-17 14:30 6.89 1860 9530 (1944) 81 (1954) 1390 182 297 429 480 771 1730 2200 3230 4950
2021-03-17 13:30 6.89 1860 9530 (1944) 81 (1954) 1390 182 297 429 480 771 1730 2200 3230 4950
2021-03-17 12:30 6.92 1890 9530 (1944) 81 (1954) 1390 182 297 429 480 771 1730 2200 3230 4950
2021-03-17 11:30 7.02 2010 9530 (1944) 81 (1954) 1390 182 297 429 480 771 1730 2200 3230 4950
2021-03-17 10:30 7.00 1980 9530 (1944) 81 (1954) 1390 182 297 429 480 771 1730 2200 3230 4950
2021-03-17 09:30 6.98 1960 9530 (1944) 81 (1954) 1390 182 297 429 480 771 1730 2200 3230 4950
2021-03-17 08:30 7.00 1980 9530 (1944) 81 (1954) 1390 182 297 429 480 771 1730 2200 3230 4950
2021-03-17 07:30 7.04 2030 9530 (1944) 81 (1954) 1390 182 297 429 480 771 1730 2200 3230 4950
2021-03-17 06:30 7.05 2040 9530 (1944) 81 (1954) 1390 182 297 429 480 771 1730 2200 3230 4950
2021-03-17 05:30 7.06 2060 9530 (1944) 81 (1954) 1390 182 297 429 480 771 1730 2200 3230 4950
2021-03-17 04:30 7.08 2080 9530 (1944) 81 (1954) 1390 182 297 429 480 771 1730 2200 3230 4950
2021-03-17 03:30 7.07 2070 9530 (1944) 81 (1954) 1390 182 297 429 480 771 1730 2200 3230 4950
2021-03-17 02:30 7.12 2130 9530 (1944) 81 (1954) 1390 182 297 429 480 771 1730 2200 3230 4950
2021-03-17 01:30 7.14 2160 9530 (1944) 81 (1954) 1390 182 297 429 480 771 1730 2200 3230 4950
2021-03-17 00:30 7.14 2160 9530 (1944) 81 (1954) 1390 182 297 429 480 771 1730 2200 3230 4950
2021-03-16 23:30 7.17 2210 19700 (1990) 81 (1954) 1560 193 271 433 510 758 1860 2150 3420 5430
2021-03-16 22:30 7.18 2220 19700 (1990) 81 (1954) 1560 193 271 433 510 758 1860 2150 3420 5430
2021-03-16 21:30 7.19 2240 19700 (1990) 81 (1954) 1560 193 271 433 510 758 1860 2150 3420 5430
2021-03-16 20:30 7.22 2280 19700 (1990) 81 (1954) 1560 193 271 433 510 758 1860 2150 3420 5430
2021-03-16 19:30 7.26 2340 19700 (1990) 81 (1954) 1560 193 271 433 510 758 1860 2150 3420 5430
2021-03-16 18:30 7.33 2440 19700 (1990) 81 (1954) 1560 193 271 433 510 758 1860 2150 3420 5430
2021-03-16 17:30 7.33 2440 19700 (1990) 81 (1954) 1560 193 271 433 510 758 1860 2150 3420 5430
2021-03-16 16:30 7.37 2500 19700 (1990) 81 (1954) 1560 193 271 433 510 758 1860 2150 3420 5430
2021-03-16 15:30 7.41 2560 19700 (1990) 81 (1954) 1560 193 271 433 510 758 1860 2150 3420 5430
2021-03-16 14:30 7.47 2660 19700 (1990) 81 (1954) 1560 193 271 433 510 758 1860 2150 3420 5430
2021-03-16 13:30 7.51 2720 19700 (1990) 81 (1954) 1560 193 271 433 510 758 1860 2150 3420 5430
2021-03-16 12:30 7.52 2730 19700 (1990) 81 (1954) 1560 193 271 433 510 758 1860 2150 3420 5430
2021-03-16 11:30 7.55 2770 19700 (1990) 81 (1954) 1560 193 271 433 510 758 1860 2150 3420 5430
2021-03-16 10:30 7.58 2820 19700 (1990) 81 (1954) 1560 193 271 433 510 758 1860 2150 3420 5430
2021-03-16 09:30 7.60 2840 19700 (1990) 81 (1954) 1560 193 271 433 510 758 1860 2150 3420 5430
2021-03-16 08:30 7.64 2900 19700 (1990) 81 (1954) 1560 193 271 433 510 758 1860 2150 3420 5430
2021-03-16 07:30 7.67 2940 19700 (1990) 81 (1954) 1560 193 271 433 510 758 1860 2150 3420 5430
2021-03-16 06:30 7.70 2990 19700 (1990) 81 (1954) 1560 193 271 433 510 758 1860 2150 3420 5430
2021-03-16 05:30 7.66 2930 19700 (1990) 81 (1954) 1560 193 271 433 510 758 1860 2150 3420 5430
2021-03-16 04:30 7.58 2820 19700 (1990) 81 (1954) 1560 193 271 433 510 758 1860 2150 3420 5430
2021-03-16 03:30 7.50 2710 19700 (1990) 81 (1954) 1560 193 271 433 510 758 1860 2150 3420 5430
2021-03-16 02:30 7.38 2520 19700 (1990) 81 (1954) 1560 193 271 433 510 758 1860 2150 3420 5430
2021-03-16 01:30 7.17 2210 19700 (1990) 81 (1954) 1560 193 271 433 510 758 1860 2150 3420 5430
2021-03-16 00:30 6.98 1960 19700 (1990) 81 (1954) 1560 193 271 433 510 758 1860 2150 3420 5430
2021-03-15 23:30 6.79 1750 19500 (1990) 81 (1954) 1610 196 271 442 472 779 1720 2150 3750 5850
2021-03-15 22:30 6.66 1610 19500 (1990) 81 (1954) 1610 196 271 442 472 779 1720 2150 3750 5850
2021-03-15 21:30 6.59 1540 19500 (1990) 81 (1954) 1610 196 271 442 472 779 1720 2150 3750 5850
2021-03-15 20:30 6.49 1440 19500 (1990) 81 (1954) 1610 196 271 442 472 779 1720 2150 3750 5850
2021-03-15 19:30 6.44 1390 19500 (1990) 81 (1954) 1610 196 271 442 472 779 1720 2150 3750 5850
2021-03-15 18:30 6.42 1370 19500 (1990) 81 (1954) 1610 196 271 442 472 779 1720 2150 3750 5850
2021-03-15 17:30 6.38 1330 19500 (1990) 81 (1954) 1610 196 271 442 472 779 1720 2150 3750 5850
2021-03-15 16:30 6.37 1320 19500 (1990) 81 (1954) 1610 196 271 442 472 779 1720 2150 3750 5850
2021-03-15 15:30 6.36 1320 19500 (1990) 81 (1954) 1610 196 271 442 472 779 1720 2150 3750 5850
2021-03-15 14:30 6.37 1320 19500 (1990) 81 (1954) 1610 196 271 442 472 779 1720 2150 3750 5850
2021-03-15 13:30 6.35 1310 19500 (1990) 81 (1954) 1610 196 271 442 472 779 1720 2150 3750 5850
2021-03-15 12:30 6.38 1330 19500 (1990) 81 (1954) 1610 196 271 442 472 779 1720 2150 3750 5850
2021-03-15 11:30 6.40 1350 19500 (1990) 81 (1954) 1610 196 271 442 472 779 1720 2150 3750 5850
2021-03-15 10:30 6.41 1360 19500 (1990) 81 (1954) 1610 196 271 442 472 779 1720 2150 3750 5850
2021-03-15 09:30 6.39 1340 19500 (1990) 81 (1954) 1610 196 271 442 472 779 1720 2150 3750 5850
2021-03-15 08:30 6.38 1330 19500 (1990) 81 (1954) 1610 196 271 442 472 779 1720 2150 3750 5850
2021-03-15 07:30 6.40 1350 19500 (1990) 81 (1954) 1610 196 271 442 472 779 1720 2150 3750 5850
2021-03-15 06:30 6.40 1350 19500 (1990) 81 (1954) 1610 196 271 442 472 779 1720 2150 3750 5850
2021-03-15 05:30 6.42 1370 19500 (1990) 81 (1954) 1610 196 271 442 472 779 1720 2150 3750 5850
2021-03-15 04:30 6.41 1360 19500 (1990) 81 (1954) 1610 196 271 442 472 779 1720 2150 3750 5850
2021-03-15 03:30 6.40 1350 19500 (1990) 81 (1954) 1610 196 271 442 472 779 1720 2150 3750 5850
2021-03-15 02:30 6.39 1340 19500 (1990) 81 (1954) 1610 196 271 442 472 779 1720 2150 3750 5850
2021-03-15 01:30 6.38 1330 19500 (1990) 81 (1954) 1610 196 271 442 472 779 1720 2150 3750 5850
2021-03-15 00:30 6.34 1300 19500 (1990) 81 (1954) 1610 196 271 442 472 779 1720 2150 3750 5850
2021-03-14 23:30 6.30 1260 9120 (1990) 84 (1954) 1350 205 261 443 486 769 1540 1840 3120 4260
2021-03-14 22:30 6.25 1220 9120 (1990) 84 (1954) 1350 205 261 443 486 769 1540 1840 3120 4260
2021-03-14 21:30 6.20 1180 9120 (1990) 84 (1954) 1350 205 261 443 486 769 1540 1840 3120 4260
2021-03-14 20:30 6.09 1080 9120 (1990) 84 (1954) 1350 205 261 443 486 769 1540 1840 3120 4260
2021-03-14 19:30 5.98 999 9120 (1990) 84 (1954) 1350 205 261 443 486 769 1540 1840 3120 4260
2021-03-14 18:30 5.87 918 9120 (1990) 84 (1954) 1350 205 261 443 486 769 1540 1840 3120 4260
2021-03-14 17:30 5.79 861 9120 (1990) 84 (1954) 1350 205 261 443 486 769 1540 1840 3120 4260
2021-03-14 16:30 5.70 801 9120 (1990) 84 (1954) 1350 205 261 443 486 769 1540 1840 3120 4260
2021-03-14 15:30 5.65 768 9120 (1990) 84 (1954) 1350 205 261 443 486 769 1540 1840 3120 4260
2021-03-14 14:30 5.60 737 9120 (1990) 84 (1954) 1350 205 261 443 486 769 1540 1840 3120 4260
2021-03-14 13:30 5.57 718 9120 (1990) 84 (1954) 1350 205 261 443 486 769 1540 1840 3120 4260
2021-03-14 12:30 5.57 718 9120 (1990) 84 (1954) 1350 205 261 443 486 769 1540 1840 3120 4260
2021-03-14 11:30 5.54 700 9120 (1990) 84 (1954) 1350 205 261 443 486 769 1540 1840 3120 4260
2021-03-14 10:30 5.54 700 9120 (1990) 84 (1954) 1350 205 261 443 486 769 1540 1840 3120 4260
2021-03-14 09:30 5.55 706 9120 (1990) 84 (1954) 1350 205 261 443 486 769 1540 1840 3120 4260
2021-03-14 08:30 5.54 700 9120 (1990) 84 (1954) 1350 205 261 443 486 769 1540 1840 3120 4260
2021-03-14 07:30 5.53 694 9120 (1990) 84 (1954) 1350 205 261 443 486 769 1540 1840 3120 4260
2021-03-14 06:30 5.54 700 9120 (1990) 84 (1954) 1350 205 261 443 486 769 1540 1840 3120 4260
2021-03-14 05:30 5.53 694 9120 (1990) 84 (1954) 1350 205 261 443 486 769 1540 1840 3120 4260
2021-03-14 04:30 5.53 694 9120 (1990) 84 (1954) 1350 205 261 443 486 769 1540 1840 3120 4260
2021-03-14 03:30 5.53 694 9120 (1990) 84 (1954) 1350 205 261 443 486 769 1540 1840 3120 4260
2021-03-14 01:30 5.53 694 9120 (1990) 84 (1954) 1350 205 261 443 486 769 1540 1840 3120 4260
2021-03-14 00:30 5.51 682 9120 (1990) 84 (1954) 1350 205 261 443 486 769 1540 1840 3120 4260
2021-03-13 23:30 5.51 682 10200 (1990) 84 (1954) 1370 211 254 450 480 808 1530 1840 3640 5390
2021-03-13 22:30 5.52 688 10200 (1990) 84 (1954) 1370 211 254 450 480 808 1530 1840 3640 5390
2021-03-13 21:30 5.49 670 10200 (1990) 84 (1954) 1370 211 254 450 480 808 1530 1840 3640 5390
2021-03-13 20:30 5.53 694 10200 (1990) 84 (1954) 1370 211 254 450 480 808 1530 1840 3640 5390
2021-03-13 19:30 5.52 688 10200 (1990) 84 (1954) 1370 211 254 450 480 808 1530 1840 3640 5390
2021-03-13 18:30 5.51 682 10200 (1990) 84 (1954) 1370 211 254 450 480 808 1530 1840 3640 5390
2021-03-13 17:30 5.51 682 10200 (1990) 84 (1954) 1370 211 254 450 480 808 1530 1840 3640 5390
2021-03-13 16:30 5.52 688 10200 (1990) 84 (1954) 1370 211 254 450 480 808 1530 1840 3640 5390
2021-03-13 15:30 5.53 694 10200 (1990) 84 (1954) 1370 211 254 450 480 808 1530 1840 3640 5390
2021-03-13 14:30 5.51 682 10200 (1990) 84 (1954) 1370 211 254 450 480 808 1530 1840 3640 5390
2021-03-13 13:30 5.51 682 10200 (1990) 84 (1954) 1370 211 254 450 480 808 1530 1840 3640 5390
2021-03-13 12:30 5.51 682 10200 (1990) 84 (1954) 1370 211 254 450 480 808 1530 1840 3640 5390
2021-03-13 11:30 5.51 682 10200 (1990) 84 (1954) 1370 211 254 450 480 808 1530 1840 3640 5390
2021-03-13 10:30 5.52 688 10200 (1990) 84 (1954) 1370 211 254 450 480 808 1530 1840 3640 5390
2021-03-13 09:30 5.52 688 10200 (1990) 84 (1954) 1370 211 254 450 480 808 1530 1840 3640 5390
2021-03-13 08:30 5.53 694 10200 (1990) 84 (1954) 1370 211 254 450 480 808 1530 1840 3640 5390
2021-03-13 07:30 5.51 682 10200 (1990) 84 (1954) 1370 211 254 450 480 808 1530 1840 3640 5390
2021-03-13 06:30 5.53 694 10200 (1990) 84 (1954) 1370 211 254 450 480 808 1530 1840 3640 5390
2021-03-13 05:30 5.53 694 10200 (1990) 84 (1954) 1370 211 254 450 480 808 1530 1840 3640 5390
2021-03-13 04:30 5.53 694 10200 (1990) 84 (1954) 1370 211 254 450 480 808 1530 1840 3640 5390
2021-03-13 03:30 5.53 694 10200 (1990) 84 (1954) 1370 211 254 450 480 808 1530 1840 3640 5390
2021-03-13 02:30 5.52 688 10200 (1990) 84 (1954) 1370 211 254 450 480 808 1530 1840 3640 5390
2021-03-13 01:30 5.51 682 10200 (1990) 84 (1954) 1370 211 254 450 480 808 1530 1840 3640 5390
2021-03-12 23:30 5.51 682 15400 (1973) 90 (1954) 1490 216 248 450 480 804 1570 1740 3460 6450
2021-03-12 22:30 5.51 682 15400 (1973) 90 (1954) 1490 216 248 450 480 804 1570 1740 3460 6450
2021-03-12 21:30 5.49 670 15400 (1973) 90 (1954) 1490 216 248 450 480 804 1570 1740 3460 6450
2021-03-12 20:30 5.49 670 15400 (1973) 90 (1954) 1490 216 248 450 480 804 1570 1740 3460 6450
2021-03-12 19:30 5.48 664 15400 (1973) 90 (1954) 1490 216 248 450 480 804 1570 1740 3460 6450
2021-03-12 18:30 5.49 670 15400 (1973) 90 (1954) 1490 216 248 450 480 804 1570 1740 3460 6450
2021-03-12 17:30 5.48 664 15400 (1973) 90 (1954) 1490 216 248 450 480 804 1570 1740 3460 6450
2021-03-12 16:30 5.47 659 15400 (1973) 90 (1954) 1490 216 248 450 480 804 1570 1740 3460 6450
2021-03-12 15:30 5.49 670 15400 (1973) 90 (1954) 1490 216 248 450 480 804 1570 1740 3460 6450
2021-03-12 14:30 5.48 664 15400 (1973) 90 (1954) 1490 216 248 450 480 804 1570 1740 3460 6450
2021-03-12 13:30 5.49 670 15400 (1973) 90 (1954) 1490 216 248 450 480 804 1570 1740 3460 6450
2021-03-12 12:30 5.50 676 15400 (1973) 90 (1954) 1490 216 248 450 480 804 1570 1740 3460 6450
2021-03-12 11:30 5.48 664 15400 (1973) 90 (1954) 1490 216 248 450 480 804 1570 1740 3460 6450
2021-03-12 10:30 5.48 664 15400 (1973) 90 (1954) 1490 216 248 450 480 804 1570 1740 3460 6450
2021-03-12 09:30 5.49 670 15400 (1973) 90 (1954) 1490 216 248 450 480 804 1570 1740 3460 6450
2021-03-12 08:30 5.49 670 15400 (1973) 90 (1954) 1490 216 248 450 480 804 1570 1740 3460 6450
2021-03-12 07:30 5.50 676 15400 (1973) 90 (1954) 1490 216 248 450 480 804 1570 1740 3460 6450
2021-03-12 06:30 5.49 670 15400 (1973) 90 (1954) 1490 216 248 450 480 804 1570 1740 3460 6450
2021-03-12 05:30 5.50 676 15400 (1973) 90 (1954) 1490 216 248 450 480 804 1570 1740 3460 6450
2021-03-12 04:30 5.51 682 15400 (1973) 90 (1954) 1490 216 248 450 480 804 1570 1740 3460 6450
2021-03-12 03:30 5.49 670 15400 (1973) 90 (1954) 1490 216 248 450 480 804 1570 1740 3460 6450
2021-03-12 02:30 5.48 664 15400 (1973) 90 (1954) 1490 216 248 450 480 804 1570 1740 3460 6450
2021-03-12 01:30 5.50 676 15400 (1973) 90 (1954) 1490 216 248 450 480 804 1570 1740 3460 6450
2021-03-12 00:30 5.50 676 15400 (1973) 90 (1954) 1490 216 248 450 480 804 1570 1740 3460 6450
2021-03-11 23:30 5.51 682 12800 (1973) 90 (1954) 1290 222 249 360 472 835 1430 1880 2630 4350
2021-03-11 22:30 5.50 676 12800 (1973) 90 (1954) 1290 222 249 360 472 835 1430 1880 2630 4350
2021-03-11 21:30 5.50 676 12800 (1973) 90 (1954) 1290 222 249 360 472 835 1430 1880 2630 4350
2021-03-11 20:30 5.50 676 12800 (1973) 90 (1954) 1290 222 249 360 472 835 1430 1880 2630 4350
2021-03-11 19:30 5.50 676 12800 (1973) 90 (1954) 1290 222 249 360 472 835 1430 1880 2630 4350
2021-03-11 18:30 5.51 682 12800 (1973) 90 (1954) 1290 222 249 360 472 835 1430 1880 2630 4350
2021-03-11 17:30 5.50 676 12800 (1973) 90 (1954) 1290 222 249 360 472 835 1430 1880 2630 4350
2021-03-11 16:30 5.50 676 12800 (1973) 90 (1954) 1290 222 249 360 472 835 1430 1880 2630 4350
2021-03-11 15:30 5.51 682 12800 (1973) 90 (1954) 1290 222 249 360 472 835 1430 1880 2630 4350
2021-03-11 14:30 5.49 670 12800 (1973) 90 (1954) 1290 222 249 360 472 835 1430 1880 2630 4350
2021-03-11 13:30 5.50 676 12800 (1973) 90 (1954) 1290 222 249 360 472 835 1430 1880 2630 4350
2021-03-11 12:30 5.50 676 12800 (1973) 90 (1954) 1290 222 249 360 472 835 1430 1880 2630 4350
2021-03-11 11:30 5.52 688 12800 (1973) 90 (1954) 1290 222 249 360 472 835 1430 1880 2630 4350
2021-03-11 10:30 5.52 688 12800 (1973) 90 (1954) 1290 222 249 360 472 835 1430 1880 2630 4350
2021-03-11 09:30 5.51 682 12800 (1973) 90 (1954) 1290 222 249 360 472 835 1430 1880 2630 4350
2021-03-11 08:30 5.51 682 12800 (1973) 90 (1954) 1290 222 249 360 472 835 1430 1880 2630 4350
2021-03-11 07:30 5.52 688 12800 (1973) 90 (1954) 1290 222 249 360 472 835 1430 1880 2630 4350
2021-03-11 06:30 5.51 682 12800 (1973) 90 (1954) 1290 222 249 360 472 835 1430 1880 2630 4350
2021-03-11 05:30 5.51 682 12800 (1973) 90 (1954) 1290 222 249 360 472 835 1430 1880 2630 4350
2021-03-11 04:30 5.52 688 12800 (1973) 90 (1954) 1290 222 249 360 472 835 1430 1880 2630 4350
2021-03-11 03:30 5.52 688 12800 (1973) 90 (1954) 1290 222 249 360 472 835 1430 1880 2630 4350
2021-03-11 02:30 5.52 688 12800 (1973) 90 (1954) 1290 222 249 360 472 835 1430 1880 2630 4350
2021-03-11 01:30 5.51 682 12800 (1973) 90 (1954) 1290 222 249 360 472 835 1430 1880 2630 4350
2021-03-11 00:30 5.51 682 12800 (1973) 90 (1954) 1290 222 249 360 472 835 1430 1880 2630 4350
2021-03-10 23:30 5.51 682 6210 (1994) 90 (1954) 1120 206 229 362 471 811 1570 1740 2520 3200
2021-03-10 22:30 5.50 676 6210 (1994) 90 (1954) 1120 206 229 362 471 811 1570 1740 2520 3200
2021-03-10 21:30 5.51 682 6210 (1994) 90 (1954) 1120 206 229 362 471 811 1570 1740 2520 3200
2021-03-10 20:30 5.51 682 6210 (1994) 90 (1954) 1120 206 229 362 471 811 1570 1740 2520 3200
2021-03-10 19:30 5.52 688 6210 (1994) 90 (1954) 1120 206 229 362 471 811 1570 1740 2520 3200
2021-03-10 18:30 5.52 688 6210 (1994) 90 (1954) 1120 206 229 362 471 811 1570 1740 2520 3200
2021-03-10 17:30 5.52 688 6210 (1994) 90 (1954) 1120 206 229 362 471 811 1570 1740 2520 3200
2021-03-10 16:30 5.51 682 6210 (1994) 90 (1954) 1120 206 229 362 471 811 1570 1740 2520 3200
2021-03-10 15:30 5.51 682 6210 (1994) 90 (1954) 1120 206 229 362 471 811 1570 1740 2520 3200
2021-03-10 14:30 5.54 700 6210 (1994) 90 (1954) 1120 206 229 362 471 811 1570 1740 2520 3200
2021-03-10 13:30 5.54 700 6210 (1994) 90 (1954) 1120 206 229 362 471 811 1570 1740 2520 3200
2021-03-10 12:30 5.53 694 6210 (1994) 90 (1954) 1120 206 229 362 471 811 1570 1740 2520 3200
2021-03-10 11:30 5.52 688 6210 (1994) 90 (1954) 1120 206 229 362 471 811 1570 1740 2520 3200
2021-03-10 10:30 5.54 700 6210 (1994) 90 (1954) 1120 206 229 362 471 811 1570 1740 2520 3200
2021-03-10 09:30 5.54 700 6210 (1994) 90 (1954) 1120 206 229 362 471 811 1570 1740 2520 3200
2021-03-10 08:30 5.51 682 6210 (1994) 90 (1954) 1120 206 229 362 471 811 1570 1740 2520 3200
2021-03-10 07:30 5.53 694 6210 (1994) 90 (1954) 1120 206 229 362 471 811 1570 1740 2520 3200
2021-03-10 06:30 5.51 682 6210 (1994) 90 (1954) 1120 206 229 362 471 811 1570 1740 2520 3200
2021-03-10 05:30 5.53 694 6210 (1994) 90 (1954) 1120 206 229 362 471 811 1570 1740 2520 3200
2021-03-10 04:30 5.53 694 6210 (1994) 90 (1954) 1120 206 229 362 471 811 1570 1740 2520 3200
2021-03-10 03:30 5.54 700 6210 (1994) 90 (1954) 1120 206 229 362 471 811 1570 1740 2520 3200
2021-03-10 02:30 5.54 700 6210 (1994) 90 (1954) 1120 206 229 362 471 811 1570 1740 2520 3200
2021-03-10 01:30 5.54 700 6210 (1994) 90 (1954) 1120 206 229 362 471 811 1570 1740 2520 3200
2021-03-10 00:30 5.52 688 6210 (1994) 90 (1954) 1120 206 229 362 471 811 1570 1740 2520 3200
2021-03-09 23:30 5.53 694 6830 (1994) 93 (1954) 1120 186 234 364 424 785 1350 1580 2120 3630
2021-03-09 22:30 5.54 700 6830 (1994) 93 (1954) 1120 186 234 364 424 785 1350 1580 2120 3630
2021-03-09 21:30 5.53 694 6830 (1994) 93 (1954) 1120 186 234 364 424 785 1350 1580 2120 3630
2021-03-09 20:30 5.54 700 6830 (1994) 93 (1954) 1120 186 234 364 424 785 1350 1580 2120 3630
2021-03-09 19:30 5.53 694 6830 (1994) 93 (1954) 1120 186 234 364 424 785 1350 1580 2120 3630
2021-03-09 18:30 5.52 688 6830 (1994) 93 (1954) 1120 186 234 364 424 785 1350 1580 2120 3630
2021-03-09 17:30 5.54 700 6830 (1994) 93 (1954) 1120 186 234 364 424 785 1350 1580 2120 3630
2021-03-09 16:30 5.53 694 6830 (1994) 93 (1954) 1120 186 234 364 424 785 1350 1580 2120 3630
2021-03-09 15:30 5.51 682 6830 (1994) 93 (1954) 1120 186 234 364 424 785 1350 1580 2120 3630
2021-03-09 14:30 5.54 700 6830 (1994) 93 (1954) 1120 186 234 364 424 785 1350 1580 2120 3630
2021-03-09 13:30 5.53 694 6830 (1994) 93 (1954) 1120 186 234 364 424 785 1350 1580 2120 3630
2021-03-09 12:30 5.55 706 6830 (1994) 93 (1954) 1120 186 234 364 424 785 1350 1580 2120 3630
2021-03-09 11:30 5.55 706 6830 (1994) 93 (1954) 1120 186 234 364 424 785 1350 1580 2120 3630
2021-03-09 10:30 5.54 700 6830 (1994) 93 (1954) 1120 186 234 364 424 785 1350 1580 2120 3630
2021-03-09 09:30 5.54 700 6830 (1994) 93 (1954) 1120 186 234 364 424 785 1350 1580 2120 3630
2021-03-09 08:30 5.53 694 6830 (1994) 93 (1954) 1120 186 234 364 424 785 1350 1580 2120 3630
2021-03-09 07:30 5.53 694 6830 (1994) 93 (1954) 1120 186 234 364 424 785 1350 1580 2120 3630
2021-03-09 06:30 5.55 706 6830 (1994) 93 (1954) 1120 186 234 364 424 785 1350 1580 2120 3630
2021-03-09 05:30 5.55 706 6830 (1994) 93 (1954) 1120 186 234 364 424 785 1350 1580 2120 3630
2021-03-09 04:30 5.54 700 6830 (1994) 93 (1954) 1120 186 234 364 424 785 1350 1580 2120 3630
2021-03-09 03:30 5.55 706 6830 (1994) 93 (1954) 1120 186 234 364 424 785 1350 1580 2120 3630
2021-03-09 02:30 5.56 712 6830 (1994) 93 (1954) 1120 186 234 364 424 785 1350 1580 2120 3630
2021-03-09 01:30 5.54 700 6830 (1994) 93 (1954) 1120 186 234 364 424 785 1350 1580 2120 3630
2021-03-09 00:30 5.55 706 6830 (1994) 93 (1954) 1120 186 234 364 424 785 1350 1580 2120 3630
2021-03-08 23:30 5.55 706 6320 (1945) 93 (1954) 1100 148 238 390 442 770 1440 1630 2290 2770
2021-03-08 22:30 5.55 706 6320 (1945) 93 (1954) 1100 148 238 390 442 770 1440 1630 2290 2770
2021-03-08 21:30 5.55 706 6320 (1945) 93 (1954) 1100 148 238 390 442 770 1440 1630 2290 2770
2021-03-08 20:30 5.54 700 6320 (1945) 93 (1954) 1100 148 238 390 442 770 1440 1630 2290 2770
2021-03-08 19:30 5.56 712 6320 (1945) 93 (1954) 1100 148 238 390 442 770 1440 1630 2290 2770
2021-03-08 18:30 5.55 706 6320 (1945) 93 (1954) 1100 148 238 390 442 770 1440 1630 2290 2770
2021-03-08 17:30 5.55 706 6320 (1945) 93 (1954) 1100 148 238 390 442 770 1440 1630 2290 2770
2021-03-08 16:30 5.54 700 6320 (1945) 93 (1954) 1100 148 238 390 442 770 1440 1630 2290 2770
2021-03-08 15:30 5.55 706 6320 (1945) 93 (1954) 1100 148 238 390 442 770 1440 1630 2290 2770
2021-03-08 14:30 5.55 706 6320 (1945) 93 (1954) 1100 148 238 390 442 770 1440 1630 2290 2770
2021-03-08 13:30 5.55 706 6320 (1945) 93 (1954) 1100 148 238 390 442 770 1440 1630 2290 2770
2021-03-08 12:30 5.56 712 6320 (1945) 93 (1954) 1100 148 238 390 442 770 1440 1630 2290 2770
2021-03-08 11:30 5.57 718 6320 (1945) 93 (1954) 1100 148 238 390 442 770 1440 1630 2290 2770
2021-03-08 10:30 5.57 718 6320 (1945) 93 (1954) 1100 148 238 390 442 770 1440 1630 2290 2770
2021-03-08 09:30 5.58 724 6320 (1945) 93 (1954) 1100 148 238 390 442 770 1440 1630 2290 2770
2021-03-08 08:30 5.57 718 6320 (1945) 93 (1954) 1100 148 238 390 442 770 1440 1630 2290 2770
2021-03-08 07:30 5.57 718 6320 (1945) 93 (1954) 1100 148 238 390 442 770 1440 1630 2290 2770
2021-03-08 06:30 5.58 724 6320 (1945) 93 (1954) 1100 148 238 390 442 770 1440 1630 2290 2770
2021-03-08 05:30 5.59 730 6320 (1945) 93 (1954) 1100 148 238 390 442 770 1440 1630 2290 2770
2021-03-08 04:30 5.58 724 6320 (1945) 93 (1954) 1100 148 238 390 442 770 1440 1630 2290 2770
2021-03-08 03:30 5.57 718 6320 (1945) 93 (1954) 1100 148 238 390 442 770 1440 1630 2290 2770
2021-03-08 02:30 5.58 724 6320 (1945) 93 (1954) 1100 148 238 390 442 770 1440 1630 2290 2770
2021-03-08 01:30 5.59 730 6320 (1945) 93 (1954) 1100 148 238 390 442 770 1440 1630 2290 2770
2021-03-08 00:30 5.58 724 6320 (1945) 93 (1954) 1100 148 238 390 442 770 1440 1630 2290 2770
2021-03-07 23:30 5.56 712 11500 (1945) 93 (1954) 1170 148 238 392 421 812 1420 1600 2460 3190
2021-03-07 22:30 5.59 730 11500 (1945) 93 (1954) 1170 148 238 392 421 812 1420 1600 2460 3190
2021-03-07 21:30 5.58 724 11500 (1945) 93 (1954) 1170 148 238 392 421 812 1420 1600 2460 3190
2021-03-07 20:30 5.58 724 11500 (1945) 93 (1954) 1170 148 238 392 421 812 1420 1600 2460 3190
2021-03-07 19:30 5.58 724 11500 (1945) 93 (1954) 1170 148 238 392 421 812 1420 1600 2460 3190
2021-03-07 18:30 5.58 724 11500 (1945) 93 (1954) 1170 148 238 392 421 812 1420 1600 2460 3190
2021-03-07 17:30 5.57 718 11500 (1945) 93 (1954) 1170 148 238 392 421 812 1420 1600 2460 3190
2021-03-07 16:30 5.57 718 11500 (1945) 93 (1954) 1170 148 238 392 421 812 1420 1600 2460 3190
2021-03-07 15:30 5.57 718 11500 (1945) 93 (1954) 1170 148 238 392 421 812 1420 1600 2460 3190
2021-03-07 14:30 5.57 718 11500 (1945) 93 (1954) 1170 148 238 392 421 812 1420 1600 2460 3190
2021-03-07 13:30 5.57 718 11500 (1945) 93 (1954) 1170 148 238 392 421 812 1420 1600 2460 3190
2021-03-07 12:30 5.57 718 11500 (1945) 93 (1954) 1170 148 238 392 421 812 1420 1600 2460 3190
2021-03-07 11:30 5.57 718 11500 (1945) 93 (1954) 1170 148 238 392 421 812 1420 1600 2460 3190
2021-03-07 10:30 5.58 724 11500 (1945) 93 (1954) 1170 148 238 392 421 812 1420 1600 2460 3190
2021-03-07 09:30 5.58 724 11500 (1945) 93 (1954) 1170 148 238 392 421 812 1420 1600 2460 3190
2021-03-07 08:30 5.58 724 11500 (1945) 93 (1954) 1170 148 238 392 421 812 1420 1600 2460 3190
2021-03-07 07:30 5.60 737 11500 (1945) 93 (1954) 1170 148 238 392 421 812 1420 1600 2460 3190
2021-03-07 06:30 5.59 730 11500 (1945) 93 (1954) 1170 148 238 392 421 812 1420 1600 2460 3190
2021-03-07 05:30 5.59 730 11500 (1945) 93 (1954) 1170 148 238 392 421 812 1420 1600 2460 3190
2021-03-07 04:30 5.59 730 11500 (1945) 93 (1954) 1170 148 238 392 421 812 1420 1600 2460 3190
2021-03-07 03:30 5.59 730 11500 (1945) 93 (1954) 1170 148 238 392 421 812 1420 1600 2460 3190
2021-03-07 02:30 5.60 737 11500 (1945) 93 (1954) 1170 148 238 392 421 812 1420 1600 2460 3190
2021-03-07 01:30 5.58 724 11500 (1945) 93 (1954) 1170 148 238 392 421 812 1420 1600 2460 3190
2021-03-07 00:30 5.59 730 11500 (1945) 93 (1954) 1170 148 238 392 421 812 1420 1600 2460 3190
2021-03-06 23:30 5.59 730 6600 (2004) 96 (1954) 1200 150 239 377 439 802 1550 1760 2910 3670
2021-03-06 22:30 5.58 724 6600 (2004) 96 (1954) 1200 150 239 377 439 802 1550 1760 2910 3670
2021-03-06 21:30 5.57 718 6600 (2004) 96 (1954) 1200 150 239 377 439 802 1550 1760 2910 3670
2021-03-06 20:30 5.57 718 6600 (2004) 96 (1954) 1200 150 239 377 439 802 1550 1760 2910 3670
2021-03-06 19:30 5.59 730 6600 (2004) 96 (1954) 1200 150 239 377 439 802 1550 1760 2910 3670
2021-03-06 18:30 5.59 730 6600 (2004) 96 (1954) 1200 150 239 377 439 802 1550 1760 2910 3670
2021-03-06 17:30 5.58 724 6600 (2004) 96 (1954) 1200 150 239 377 439 802 1550 1760 2910 3670
2021-03-06 16:30 5.56 712 6600 (2004) 96 (1954) 1200 150 239 377 439 802 1550 1760 2910 3670
2021-03-06 15:30 5.57 718 6600 (2004) 96 (1954) 1200 150 239 377 439 802 1550 1760 2910 3670
2021-03-06 14:30 5.58 724 6600 (2004) 96 (1954) 1200 150 239 377 439 802 1550 1760 2910 3670
2021-03-06 13:30 5.59 730 6600 (2004) 96 (1954) 1200 150 239 377 439 802 1550 1760 2910 3670
2021-03-06 12:30 5.59 730 6600 (2004) 96 (1954) 1200 150 239 377 439 802 1550 1760 2910 3670
2021-03-06 11:30 5.60 737 6600 (2004) 96 (1954) 1200 150 239 377 439 802 1550 1760 2910 3670
2021-03-06 10:30 5.60 737 6600 (2004) 96 (1954) 1200 150 239 377 439 802 1550 1760 2910 3670
2021-03-06 09:30 5.60 737 6600 (2004) 96 (1954) 1200 150 239 377 439 802 1550 1760 2910 3670
2021-03-06 08:30 5.59 730 6600 (2004) 96 (1954) 1200 150 239 377 439 802 1550 1760 2910 3670
2021-03-06 07:30 5.60 737 6600 (2004) 96 (1954) 1200 150 239 377 439 802 1550 1760 2910 3670
2021-03-06 06:30 5.61 743 6600 (2004) 96 (1954) 1200 150 239 377 439 802 1550 1760 2910 3670
2021-03-06 05:30 5.61 743 6600 (2004) 96 (1954) 1200 150 239 377 439 802 1550 1760 2910 3670
2021-03-06 04:30 5.61 743 6600 (2004) 96 (1954) 1200 150 239 377 439 802 1550 1760 2910 3670
2021-03-06 03:30 5.62 749 6600 (2004) 96 (1954) 1200 150 239 377 439 802 1550 1760 2910 3670
2021-03-06 02:30 5.60 737 6600 (2004) 96 (1954) 1200 150 239 377 439 802 1550 1760 2910 3670
2021-03-06 01:30 5.61 743 6600 (2004) 96 (1954) 1200 150 239 377 439 802 1550 1760 2910 3670
2021-03-06 00:30 5.60 737 6600 (2004) 96 (1954) 1200 150 239 377 439 802 1550 1760 2910 3670
2021-03-05 23:30 5.61 743 9090 (2004) 96 (1954) 1230 156 242 371 450 796 1520 1780 2410 4610
2021-03-05 22:30 5.62 749 9090 (2004) 96 (1954) 1230 156 242 371 450 796 1520 1780 2410 4610
2021-03-05 21:30 5.62 749 9090 (2004) 96 (1954) 1230 156 242 371 450 796 1520 1780 2410 4610
2021-03-05 20:30 5.62 749 9090 (2004) 96 (1954) 1230 156 242 371 450 796 1520 1780 2410 4610
2021-03-05 19:30 5.62 749 9090 (2004) 96 (1954) 1230 156 242 371 450 796 1520 1780 2410 4610
2021-03-05 18:30 5.61 743 9090 (2004) 96 (1954) 1230 156 242 371 450 796 1520 1780 2410 4610
2021-03-05 17:30 5.61 743 9090 (2004) 96 (1954) 1230 156 242 371 450 796 1520 1780 2410 4610
2021-03-05 16:30 5.60 737 9090 (2004) 96 (1954) 1230 156 242 371 450 796 1520 1780 2410 4610
2021-03-05 15:30 5.61 743 9090 (2004) 96 (1954) 1230 156 242 371 450 796 1520 1780 2410 4610
2021-03-05 14:30 5.62 749 9090 (2004) 96 (1954) 1230 156 242 371 450 796 1520 1780 2410 4610
2021-03-05 13:30 5.62 749 9090 (2004) 96 (1954) 1230 156 242 371 450 796 1520 1780 2410 4610
2021-03-05 12:30 5.61 743 9090 (2004) 96 (1954) 1230 156 242 371 450 796 1520 1780 2410 4610
2021-03-05 11:30 5.63 756 9090 (2004) 96 (1954) 1230 156 242 371 450 796 1520 1780 2410 4610
2021-03-05 10:30 5.63 756 9090 (2004) 96 (1954) 1230 156 242 371 450 796 1520 1780 2410 4610
2021-03-05 09:30 5.62 749 9090 (2004) 96 (1954) 1230 156 242 371 450 796 1520 1780 2410 4610
2021-03-05 08:30 5.61 743 9090 (2004) 96 (1954) 1230 156 242 371 450 796 1520 1780 2410 4610
2021-03-05 07:30 5.62 749 9090 (2004) 96 (1954) 1230 156 242 371 450 796 1520 1780 2410 4610
2021-03-05 06:30 5.62 749 9090 (2004) 96 (1954) 1230 156 242 371 450 796 1520 1780 2410 4610
2021-03-05 05:30 5.63 756 9090 (2004) 96 (1954) 1230 156 242 371 450 796 1520 1780 2410 4610
2021-03-05 04:30 5.61 743 9090 (2004) 96 (1954) 1230 156 242 371 450 796 1520 1780 2410 4610
2021-03-05 03:30 5.63 756 9090 (2004) 96 (1954) 1230 156 242 371 450 796 1520 1780 2410 4610
2021-03-05 02:30 5.63 756 9090 (2004) 96 (1954) 1230 156 242 371 450 796 1520 1780 2410 4610
2021-03-05 01:30 5.63 756 9090 (2004) 96 (1954) 1230 156 242 371 450 796 1520 1780 2410 4610
2021-03-05 00:30 5.63 756 9090 (2004) 96 (1954) 1230 156 242 371 450 796 1520 1780 2410 4610
2021-03-04 23:30 5.61 743 14400 (1945) 98 (1964) 1380 163 242 359 439 759 1530 1920 2530 6440
2021-03-04 22:30 5.63 756 14400 (1945) 98 (1964) 1380 163 242 359 439 759 1530 1920 2530 6440
2021-03-04 21:30 5.63 756 14400 (1945) 98 (1964) 1380 163 242 359 439 759 1530 1920 2530 6440
2021-03-04 20:30 5.62 749 14400 (1945) 98 (1964) 1380 163 242 359 439 759 1530 1920 2530 6440
2021-03-04 19:30 5.63 756 14400 (1945) 98 (1964) 1380 163 242 359 439 759 1530 1920 2530 6440
2021-03-04 18:30 5.62 749 14400 (1945) 98 (1964) 1380 163 242 359 439 759 1530 1920 2530 6440
2021-03-04 17:30 5.62 749 14400 (1945) 98 (1964) 1380 163 242 359 439 759 1530 1920 2530 6440
2021-03-04 16:30 5.62 749 14400 (1945) 98 (1964) 1380 163 242 359 439 759 1530 1920 2530 6440
2021-03-04 15:30 5.63 756 14400 (1945) 98 (1964) 1380 163 242 359 439 759 1530 1920 2530 6440
2021-03-04 14:30 5.63 756 14400 (1945) 98 (1964) 1380 163 242 359 439 759 1530 1920 2530 6440
2021-03-04 13:30 5.63 756 14400 (1945) 98 (1964) 1380 163 242 359 439 759 1530 1920 2530 6440
2021-03-04 12:30 5.63 756 14400 (1945) 98 (1964) 1380 163 242 359 439 759 1530 1920 2530 6440
2021-03-04 11:30 5.64 762 14400 (1945) 98 (1964) 1380 163 242 359 439 759 1530 1920 2530 6440
2021-03-04 10:30 5.64 762 14400 (1945) 98 (1964) 1380 163 242 359 439 759 1530 1920 2530 6440
2021-03-04 09:30 5.66 775 14400 (1945) 98 (1964) 1380 163 242 359 439 759 1530 1920 2530 6440
2021-03-04 08:30 5.65 768 14400 (1945) 98 (1964) 1380 163 242 359 439 759 1530 1920 2530 6440
2021-03-04 07:30 5.65 768 14400 (1945) 98 (1964) 1380 163 242 359 439 759 1530 1920 2530 6440
2021-03-04 06:30 5.66 775 14400 (1945) 98 (1964) 1380 163 242 359 439 759 1530 1920 2530 6440
2021-03-04 05:30 5.66 775 14400 (1945) 98 (1964) 1380 163 242 359 439 759 1530 1920 2530 6440
2021-03-04 04:30 5.66 775 14400 (1945) 98 (1964) 1380 163 242 359 439 759 1530 1920 2530 6440
2021-03-04 03:30 5.66 775 14400 (1945) 98 (1964) 1380 163 242 359 439 759 1530 1920 2530 6440
2021-03-04 02:30 5.65 768 14400 (1945) 98 (1964) 1380 163 242 359 439 759 1530 1920 2530 6440
2021-03-04 01:30 5.68 788 14400 (1945) 98 (1964) 1380 163 242 359 439 759 1530 1920 2530 6440
2021-03-04 00:30 5.66 775 14400 (1945) 98 (1964) 1380 163 242 359 439 759 1530 1920 2530 6440
2021-03-03 23:30 5.68 788 15200 (1945) 98 (1964) 1290 166 235 347 390 784 1370 1850 2760 4860
2021-03-03 22:30 5.68 788 15200 (1945) 98 (1964) 1290 166 235 347 390 784 1370 1850 2760 4860
2021-03-03 21:30 5.68 788 15200 (1945) 98 (1964) 1290 166 235 347 390 784 1370 1850 2760 4860
2021-03-03 20:30 5.68 788 15200 (1945) 98 (1964) 1290 166 235 347 390 784 1370 1850 2760 4860
2021-03-03 19:30 5.66 775 15200 (1945) 98 (1964) 1290 166 235 347 390 784 1370 1850 2760 4860
2021-03-03 18:30 5.67 781 15200 (1945) 98 (1964) 1290 166 235 347 390 784 1370 1850 2760 4860
2021-03-03 17:30 5.68 788 15200 (1945) 98 (1964) 1290 166 235 347 390 784 1370 1850 2760 4860
2021-03-03 16:30 5.67 781 15200 (1945) 98 (1964) 1290 166 235 347 390 784 1370 1850 2760 4860
2021-03-03 15:30 5.67 781 15200 (1945) 98 (1964) 1290 166 235 347 390 784 1370 1850 2760 4860
2021-03-03 14:30 5.68 788 15200 (1945) 98 (1964) 1290 166 235 347 390 784 1370 1850 2760 4860
2021-03-03 13:30 5.68 788 15200 (1945) 98 (1964) 1290 166 235 347 390 784 1370 1850 2760 4860
2021-03-03 12:30 5.68 788 15200 (1945) 98 (1964) 1290 166 235 347 390 784 1370 1850 2760 4860
2021-03-03 11:30 5.69 794 15200 (1945) 98 (1964) 1290 166 235 347 390 784 1370 1850 2760 4860
2021-03-03 10:30 5.68 788 15200 (1945) 98 (1964) 1290 166 235 347 390 784 1370 1850 2760 4860
2021-03-03 09:30 5.70 801 15200 (1945) 98 (1964) 1290 166 235 347 390 784 1370 1850 2760 4860
2021-03-03 08:30 5.71 807 15200 (1945) 98 (1964) 1290 166 235 347 390 784 1370 1850 2760 4860
2021-03-03 07:30 5.71 807 15200 (1945) 98 (1964) 1290 166 235 347 390 784 1370 1850 2760 4860
2021-03-03 06:30 5.70 801 15200 (1945) 98 (1964) 1290 166 235 347 390 784 1370 1850 2760 4860
2021-03-03 05:30 5.71 807 15200 (1945) 98 (1964) 1290 166 235 347 390 784 1370 1850 2760 4860
2021-03-03 04:30 5.71 807 15200 (1945) 98 (1964) 1290 166 235 347 390 784 1370 1850 2760 4860
2021-03-03 03:30 5.71 807 15200 (1945) 98 (1964) 1290 166 235 347 390 784 1370 1850 2760 4860
2021-03-03 02:30 5.71 807 15200 (1945) 98 (1964) 1290 166 235 347 390 784 1370 1850 2760 4860
2021-03-03 01:30 5.72 814 15200 (1945) 98 (1964) 1290 166 235 347 390 784 1370 1850 2760 4860
2021-03-03 00:30 5.72 814 15200 (1945) 98 (1964) 1290 166 235 347 390 784 1370 1850 2760 4860
2021-03-02 23:30 5.71 807 5510 (1987) 94 (1964) 1120 152 211 319 382 755 1350 1640 2530 3450
2021-03-02 22:30 5.72 814 5510 (1987) 94 (1964) 1120 152 211 319 382 755 1350 1640 2530 3450
2021-03-02 21:30 5.71 807 5510 (1987) 94 (1964) 1120 152 211 319 382 755 1350 1640 2530 3450
2021-03-02 20:30 5.71 807 5510 (1987) 94 (1964) 1120 152 211 319 382 755 1350 1640 2530 3450
2021-03-02 19:30 5.71 807 5510 (1987) 94 (1964) 1120 152 211 319 382 755 1350 1640 2530 3450
2021-03-02 18:30 5.70 801 5510 (1987) 94 (1964) 1120 152 211 319 382 755 1350 1640 2530 3450
2021-03-02 17:30 5.70 801 5510 (1987) 94 (1964) 1120 152 211 319 382 755 1350 1640 2530 3450
2021-03-02 16:30 5.71 807 5510 (1987) 94 (1964) 1120 152 211 319 382 755 1350 1640 2530 3450
2021-03-02 15:30 5.70 801 5510 (1987) 94 (1964) 1120 152 211 319 382 755 1350 1640 2530 3450
2021-03-02 14:30 5.71 807 5510 (1987) 94 (1964) 1120 152 211 319 382 755 1350 1640 2530 3450
2021-03-02 13:30 5.70 801 5510 (1987) 94 (1964) 1120 152 211 319 382 755 1350 1640 2530 3450
2021-03-02 12:30 5.71 807 5510 (1987) 94 (1964) 1120 152 211 319 382 755 1350 1640 2530 3450
2021-03-02 11:30 5.72 814 5510 (1987) 94 (1964) 1120 152 211 319 382 755 1350 1640 2530 3450
2021-03-02 10:30 5.71 807 5510 (1987) 94 (1964) 1120 152 211 319 382 755 1350 1640 2530 3450
2021-03-02 09:30 5.71 807 5510 (1987) 94 (1964) 1120 152 211 319 382 755 1350 1640 2530 3450
2021-03-02 08:30 5.71 807 5510 (1987) 94 (1964) 1120 152 211 319 382 755 1350 1640 2530 3450
2021-03-02 07:30 5.70 801 5510 (1987) 94 (1964) 1120 152 211 319 382 755 1350 1640 2530 3450
2021-03-02 06:30 5.72 814 5510 (1987) 94 (1964) 1120 152 211 319 382 755 1350 1640 2530 3450
2021-03-02 05:30 5.72 814 5510 (1987) 94 (1964) 1120 152 211 319 382 755 1350 1640 2530 3450
2021-03-02 04:30 5.71 807 5510 (1987) 94 (1964) 1120 152 211 319 382 755 1350 1640 2530 3450
2021-03-02 03:30 5.72 814 5510 (1987) 94 (1964) 1120 152 211 319 382 755 1350 1640 2530 3450
2021-03-02 02:30 5.72 814 5510 (1987) 94 (1964) 1120 152 211 319 382 755 1350 1640 2530 3450
2021-03-02 01:30 5.71 807 5510 (1987) 94 (1964) 1120 152 211 319 382 755 1350 1640 2530 3450
2021-03-02 00:30 5.72 814 5510 (1987) 94 (1964) 1120 152 211 319 382 755 1350 1640 2530 3450
2021-03-01 23:30 5.71 807 4840 (2018) 90 (1964) 1090 152 238 322 384 722 1240 1570 2750 3720
2021-03-01 22:30 5.72 814 4840 (2018) 90 (1964) 1090 152 238 322 384 722 1240 1570 2750 3720
2021-03-01 21:30 5.73 821 4840 (2018) 90 (1964) 1090 152 238 322 384 722 1240 1570 2750 3720
2021-03-01 20:30 5.72 814 4840 (2018) 90 (1964) 1090 152 238 322 384 722 1240 1570 2750 3720
2021-03-01 19:30 5.71 807 4840 (2018) 90 (1964) 1090 152 238 322 384 722 1240 1570 2750 3720
2021-03-01 18:30 5.71 807 4840 (2018) 90 (1964) 1090 152 238 322 384 722 1240 1570 2750 3720
2021-03-01 17:30 5.71 807 4840 (2018) 90 (1964) 1090 152 238 322 384 722 1240 1570 2750 3720
2021-03-01 16:30 5.71 807 4840 (2018) 90 (1964) 1090 152 238 322 384 722 1240 1570 2750 3720
2021-03-01 15:30 5.72 814 4840 (2018) 90 (1964) 1090 152 238 322 384 722 1240 1570 2750 3720
2021-03-01 14:30 5.71 807 4840 (2018) 90 (1964) 1090 152 238 322 384 722 1240 1570 2750 3720
2021-03-01 13:30 5.71 807 4840 (2018) 90 (1964) 1090 152 238 322 384 722 1240 1570 2750 3720
2021-03-01 12:30 5.71 807 4840 (2018) 90 (1964) 1090 152 238 322 384 722 1240 1570 2750 3720
2021-03-01 11:30 5.71 807 4840 (2018) 90 (1964) 1090 152 238 322 384 722 1240 1570 2750 3720
2021-03-01 10:30 5.71 807 4840 (2018) 90 (1964) 1090 152 238 322 384 722 1240 1570 2750 3720
2021-03-01 09:30 5.73 821 4840 (2018) 90 (1964) 1090 152 238 322 384 722 1240 1570 2750 3720
2021-03-01 08:30 5.72 814 4840 (2018) 90 (1964) 1090 152 238 322 384 722 1240 1570 2750 3720
2021-03-01 07:30 5.73 821 4840 (2018) 90 (1964) 1090 152 238 322 384 722 1240 1570 2750 3720
2021-03-01 06:30 5.73 821 4840 (2018) 90 (1964) 1090 152 238 322 384 722 1240 1570 2750 3720
2021-03-01 05:30 5.73 821 4840 (2018) 90 (1964) 1090 152 238 322 384 722 1240 1570 2750 3720
2021-03-01 04:30 5.72 814 4840 (2018) 90 (1964) 1090 152 238 322 384 722 1240 1570 2750 3720
2021-03-01 03:30 5.73 821 4840 (2018) 90 (1964) 1090 152 238 322 384 722 1240 1570 2750 3720
2021-03-01 02:30 5.74 827 4840 (2018) 90 (1964) 1090 152 238 322 384 722 1240 1570 2750 3720
2021-03-01 01:30 5.74 827 4840 (2018) 90 (1964) 1090 152 238 322 384 722 1240 1570 2750 3720
2021-03-01 00:30 5.73 821 4840 (2018) 90 (1964) 1090 152 238 322 384 722 1240 1570 2750 3720
2021-02-28 23:30 5.74 827 6320 (1945) 90 (1964) 1080 145 243 313 386 692 1190 1490 2600 4160
2021-02-28 22:30 5.73 821 6320 (1945) 90 (1964) 1080 145 243 313 386 692 1190 1490 2600 4160
2021-02-28 21:30 5.75 834 6320 (1945) 90 (1964) 1080 145 243 313 386 692 1190 1490 2600 4160
2021-02-28 20:30 5.73 821 6320 (1945) 90 (1964) 1080 145 243 313 386 692 1190 1490 2600 4160
2021-02-28 19:30 5.72 814 6320 (1945) 90 (1964) 1080 145 243 313 386 692 1190 1490 2600 4160
2021-02-28 18:30 5.72 814 6320 (1945) 90 (1964) 1080 145 243 313 386 692 1190 1490 2600 4160
2021-02-28 17:30 5.72 814 6320 (1945) 90 (1964) 1080 145 243 313 386 692 1190 1490 2600 4160
2021-02-28 16:30 5.73 821 6320 (1945) 90 (1964) 1080 145 243 313 386 692 1190 1490 2600 4160
2021-02-28 15:30 5.73 821 6320 (1945) 90 (1964) 1080 145 243 313 386 692 1190 1490 2600 4160
2021-02-28 14:30 5.74 827 6320 (1945) 90 (1964) 1080 145 243 313 386 692 1190 1490 2600 4160
2021-02-28 13:30 5.73 821 6320 (1945) 90 (1964) 1080 145 243 313 386 692 1190 1490 2600 4160
2021-02-28 12:30 5.73 821 6320 (1945) 90 (1964) 1080 145 243 313 386 692 1190 1490 2600 4160
2021-02-28 11:30 5.73 821 6320 (1945) 90 (1964) 1080 145 243 313 386 692 1190 1490 2600 4160
2021-02-28 10:30 5.74 827 6320 (1945) 90 (1964) 1080 145 243 313 386 692 1190 1490 2600 4160
2021-02-28 09:30 5.71 807 6320 (1945) 90 (1964) 1080 145 243 313 386 692 1190 1490 2600 4160
2021-02-28 08:30 5.72 814 6320 (1945) 90 (1964) 1080 145 243 313 386 692 1190 1490 2600 4160
2021-02-28 07:30 5.72 814 6320 (1945) 90 (1964) 1080 145 243 313 386 692 1190 1490 2600 4160
2021-02-28 06:30 5.72 814 6320 (1945) 90 (1964) 1080 145 243 313 386 692 1190 1490 2600 4160
2021-02-28 05:30 5.71 807 6320 (1945) 90 (1964) 1080 145 243 313 386 692 1190 1490 2600 4160
2021-02-28 04:30 5.73 821 6320 (1945) 90 (1964) 1080 145 243 313 386 692 1190 1490 2600 4160
2021-02-28 03:30 5.73 821 6320 (1945) 90 (1964) 1080 145 243 313 386 692 1190 1490 2600 4160
2021-02-28 02:30 5.73 821 6320 (1945) 90 (1964) 1080 145 243 313 386 692 1190 1490 2600 4160
2021-02-28 01:30 5.73 821 6320 (1945) 90 (1964) 1080 145 243 313 386 692 1190 1490 2600 4160
2021-02-28 00:30 5.70 801 6320 (1945) 90 (1964) 1080 145 243 313 386 692 1190 1490 2600 4160
2021-02-27 23:30 5.71 807 9220 (1945) 92 (1964) 1160 141 238 327 363 713 1240 1320 2500 4870
2021-02-27 22:30 5.71 807 9220 (1945) 92 (1964) 1160 141 238 327 363 713 1240 1320 2500 4870
2021-02-27 21:30 5.72 814 9220 (1945) 92 (1964) 1160 141 238 327 363 713 1240 1320 2500 4870
2021-02-27 20:30 5.73 821 9220 (1945) 92 (1964) 1160 141 238 327 363 713 1240 1320 2500 4870
2021-02-27 19:30 5.72 814 9220 (1945) 92 (1964) 1160 141 238 327 363 713 1240 1320 2500 4870
2021-02-27 18:30 5.73 821 9220 (1945) 92 (1964) 1160 141 238 327 363 713 1240 1320 2500 4870
2021-02-27 17:30 5.72 814 9220 (1945) 92 (1964) 1160 141 238 327 363 713 1240 1320 2500 4870
2021-02-27 16:30 5.73 821 9220 (1945) 92 (1964) 1160 141 238 327 363 713 1240 1320 2500 4870
2021-02-27 15:30 5.72 814 9220 (1945) 92 (1964) 1160 141 238 327 363 713 1240 1320 2500 4870
2021-02-27 14:30 5.72 814 9220 (1945) 92 (1964) 1160 141 238 327 363 713 1240 1320 2500 4870
2021-02-27 13:30 5.70 801 9220 (1945) 92 (1964) 1160 141 238 327 363 713 1240 1320 2500 4870
2021-02-27 12:30 5.72 814 9220 (1945) 92 (1964) 1160 141 238 327 363 713 1240 1320 2500 4870
2021-02-27 11:30 5.72 814 9220 (1945) 92 (1964) 1160 141 238 327 363 713 1240 1320 2500 4870
2021-02-27 10:30 5.73 821 9220 (1945) 92 (1964) 1160 141 238 327 363 713 1240 1320 2500 4870
2021-02-27 09:30 5.73 821 9220 (1945) 92 (1964) 1160 141 238 327 363 713 1240 1320 2500 4870
2021-02-27 08:30 5.74 827 9220 (1945) 92 (1964) 1160 141 238 327 363 713 1240 1320 2500 4870
2021-02-27 07:30 5.74 827 9220 (1945) 92 (1964) 1160 141 238 327 363 713 1240 1320 2500 4870
2021-02-27 06:30 5.74 827 9220 (1945) 92 (1964) 1160 141 238 327 363 713 1240 1320 2500 4870
2021-02-27 05:30 5.74 827 9220 (1945) 92 (1964) 1160 141 238 327 363 713 1240 1320 2500 4870
2021-02-27 04:30 5.73 821 9220 (1945) 92 (1964) 1160 141 238 327 363 713 1240 1320 2500 4870
2021-02-27 03:30 5.73 821 9220 (1945) 92 (1964) 1160 141 238 327 363 713 1240 1320 2500 4870
2021-02-27 02:30 5.75 834 9220 (1945) 92 (1964) 1160 141 238 327 363 713 1240 1320 2500 4870
2021-02-27 01:30 5.75 834 9220 (1945) 92 (1964) 1160 141 238 327 363 713 1240 1320 2500 4870
2021-02-27 00:30 5.76 841 9220 (1945) 92 (1964) 1160 141 238 327 363 713 1240 1320 2500 4870
2021-02-26 23:30 5.75 834 13300 (2001) 94 (1964) 1280 138 230 307 376 656 1290 1410 2360 5580
2021-02-26 22:30 5.74 827 13300 (2001) 94 (1964) 1280 138 230 307 376 656 1290 1410 2360 5580
2021-02-26 21:30 5.76 841 13300 (2001) 94 (1964) 1280 138 230 307 376 656 1290 1410 2360 5580
2021-02-26 20:30 5.76 841 13300 (2001) 94 (1964) 1280 138 230 307 376 656 1290 1410 2360 5580
2021-02-26 19:30 5.75 834 13300 (2001) 94 (1964) 1280 138 230 307 376 656 1290 1410 2360 5580
2021-02-26 18:30 5.77 848 13300 (2001) 94 (1964) 1280 138 230 307 376 656 1290 1410 2360 5580
2021-02-26 17:30 5.77 848 13300 (2001) 94 (1964) 1280 138 230 307 376 656 1290 1410 2360 5580
2021-02-26 16:30 5.76 841 13300 (2001) 94 (1964) 1280 138 230 307 376 656 1290 1410 2360 5580
2021-02-26 15:30 5.78 855 13300 (2001) 94 (1964) 1280 138 230 307 376 656 1290 1410 2360 5580
2021-02-26 14:30 5.77 848 13300 (2001) 94 (1964) 1280 138 230 307 376 656 1290 1410 2360 5580
2021-02-26 13:30 5.78 855 13300 (2001) 94 (1964) 1280 138 230 307 376 656 1290 1410 2360 5580
2021-02-26 12:30 5.78 855 13300 (2001) 94 (1964) 1280 138 230 307 376 656 1290 1410 2360 5580
2021-02-26 11:30 5.79 861 13300 (2001) 94 (1964) 1280 138 230 307 376 656 1290 1410 2360 5580
2021-02-26 10:30 5.78 855 13300 (2001) 94 (1964) 1280 138 230 307 376 656 1290 1410 2360 5580
2021-02-26 09:30 5.78 855 13300 (2001) 94 (1964) 1280 138 230 307 376 656 1290 1410 2360 5580
2021-02-26 08:30 5.79 861 13300 (2001) 94 (1964) 1280 138 230 307 376 656 1290 1410 2360 5580
2021-02-26 07:30 5.79 861 13300 (2001) 94 (1964) 1280 138 230 307 376 656 1290 1410 2360 5580
2021-02-26 06:30 5.78 855 13300 (2001) 94 (1964) 1280 138 230 307 376 656 1290 1410 2360 5580
2021-02-26 05:30 5.80 868 13300 (2001) 94 (1964) 1280 138 230 307 376 656 1290 1410 2360 5580
2021-02-26 04:30 5.79 861 13300 (2001) 94 (1964) 1280 138 230 307 376 656 1290 1410 2360 5580
2021-02-26 03:30 5.80 868 13300 (2001) 94 (1964) 1280 138 230 307 376 656 1290 1410 2360 5580
2021-02-26 02:30 5.80 868 13300 (2001) 94 (1964) 1280 138 230 307 376 656 1290 1410 2360 5580
2021-02-26 01:30 5.79 861 13300 (2001) 94 (1964) 1280 138 230 307 376 656 1290 1410 2360 5580
2021-02-26 00:30 5.79 861 13300 (2001) 94 (1964) 1280 138 230 307 376 656 1290 1410 2360 5580
2021-02-25 23:30 5.78 855 31300 (2018) 95 (1964) 1740 135 223 318 366 642 1360 1570 2630 4880
2021-02-25 22:30 5.79 861 31300 (2018) 95 (1964) 1740 135 223 318 366 642 1360 1570 2630 4880
2021-02-25 21:30 5.79 918 31300 (2018) 95 (1964) 1740 135 223 318 366 642 1360 1570 2630 4880
2021-02-25 20:30 5.80 925 31300 (2018) 95 (1964) 1740 135 223 318 366 642 1360 1570 2630 4880
2021-02-25 19:30 5.80 925 31300 (2018) 95 (1964) 1740 135 223 318 366 642 1360 1570 2630 4880
2021-02-25 18:30 5.82 939 31300 (2018) 95 (1964) 1740 135 223 318 366 642 1360 1570 2630 4880
2021-02-25 17:30 5.81 932 31300 (2018) 95 (1964) 1740 135 223 318 366 642 1360 1570 2630 4880
2021-02-25 16:30 5.79 918 31300 (2018) 95 (1964) 1740 135 223 318 366 642 1360 1570 2630 4880
2021-02-25 15:30 5.82 939 31300 (2018) 95 (1964) 1740 135 223 318 366 642 1360 1570 2630 4880
2021-02-25 14:30 5.80 925 31300 (2018) 95 (1964) 1740 135 223 318 366 642 1360 1570 2630 4880
2021-02-25 13:30 5.81 932 31300 (2018) 95 (1964) 1740 135 223 318 366 642 1360 1570 2630 4880
2021-02-25 12:30 5.84 954 31300 (2018) 95 (1964) 1740 135 223 318 366 642 1360 1570 2630 4880
2021-02-25 11:30 5.81 932 31300 (2018) 95 (1964) 1740 135 223 318 366 642 1360 1570 2630 4880
2021-02-25 10:30 5.82 939 31300 (2018) 95 (1964) 1740 135 223 318 366 642 1360 1570 2630 4880
2021-02-25 09:30 5.83 947 31300 (2018) 95 (1964) 1740 135 223 318 366 642 1360 1570 2630 4880
2021-02-25 08:30 5.82 939 31300 (2018) 95 (1964) 1740 135 223 318 366 642 1360 1570 2630 4880
2021-02-25 07:30 5.83 947 31300 (2018) 95 (1964) 1740 135 223 318 366 642 1360 1570 2630 4880
2021-02-25 06:30 5.84 954 31300 (2018) 95 (1964) 1740 135 223 318 366 642 1360 1570 2630 4880
2021-02-25 05:30 5.82 939 31300 (2018) 95 (1964) 1740 135 223 318 366 642 1360 1570 2630 4880
2021-02-25 04:30 5.83 947 31300 (2018) 95 (1964) 1740 135 223 318 366 642 1360 1570 2630 4880
2021-02-25 03:30 5.84 954 31300 (2018) 95 (1964) 1740 135 223 318 366 642 1360 1570 2630 4880
2021-02-25 02:30 5.83 947 31300 (2018) 95 (1964) 1740 135 223 318 366 642 1360 1570 2630 4880
2021-02-25 01:30 5.83 947 31300 (2018) 95 (1964) 1740 135 223 318 366 642 1360 1570 2630 4880
2021-02-25 00:30 5.84 954 31300 (2018) 95 (1964) 1740 135 223 318 366 642 1360 1570 2630 4880
2021-02-24 23:30 5.85 962 15400 (1985) 95 (1964) 1500 136 231 332 385 665 1400 1710 3330 7150
2021-02-24 22:30 5.84 954 15400 (1985) 95 (1964) 1500 136 231 332 385 665 1400 1710 3330 7150
2021-02-24 21:30 5.85 962 15400 (1985) 95 (1964) 1500 136 231 332 385 665 1400 1710 3330 7150
2021-02-24 20:30 5.85 962 15400 (1985) 95 (1964) 1500 136 231 332 385 665 1400 1710 3330 7150
2021-02-24 19:30 5.84 954 15400 (1985) 95 (1964) 1500 136 231 332 385 665 1400 1710 3330 7150
2021-02-24 18:30 5.83 947 15400 (1985) 95 (1964) 1500 136 231 332 385 665 1400 1710 3330 7150
2021-02-24 17:30 5.84 954 15400 (1985) 95 (1964) 1500 136 231 332 385 665 1400 1710 3330 7150
2021-02-24 16:30 5.86 969 15400 (1985) 95 (1964) 1500 136 231 332 385 665 1400 1710 3330 7150
2021-02-24 15:30 5.84 954 15400 (1985) 95 (1964) 1500 136 231 332 385 665 1400 1710 3330 7150
2021-02-24 14:30 5.84 954 15400 (1985) 95 (1964) 1500 136 231 332 385 665 1400 1710 3330 7150
2021-02-24 13:30 5.83 947 15400 (1985) 95 (1964) 1500 136 231 332 385 665 1400 1710 3330 7150
2021-02-24 12:30 5.85 962 15400 (1985) 95 (1964) 1500 136 231 332 385 665 1400 1710 3330 7150
2021-02-24 11:30 5.86 969 15400 (1985) 95 (1964) 1500 136 231 332 385 665 1400 1710 3330 7150
2021-02-24 10:30 5.85 962 15400 (1985) 95 (1964) 1500 136 231 332 385 665 1400 1710 3330 7150
2021-02-24 09:30 5.84 954 15400 (1985) 95 (1964) 1500 136 231 332 385 665 1400 1710 3330 7150
2021-02-24 08:30 5.85 962 15400 (1985) 95 (1964) 1500 136 231 332 385 665 1400 1710 3330 7150
2021-02-24 07:30 5.84 954 15400 (1985) 95 (1964) 1500 136 231 332 385 665 1400 1710 3330 7150
2021-02-24 06:30 5.83 947 15400 (1985) 95 (1964) 1500 136 231 332 385 665 1400 1710 3330 7150
2021-02-24 05:30 5.85 962 15400 (1985) 95 (1964) 1500 136 231 332 385 665 1400 1710 3330 7150
2021-02-24 04:30 5.82 939 15400 (1985) 95 (1964) 1500 136 231 332 385 665 1400 1710 3330 7150
2021-02-24 03:30 5.83 947 15400 (1985) 95 (1964) 1500 136 231 332 385 665 1400 1710 3330 7150
2021-02-24 02:30 5.84 954 15400 (1985) 95 (1964) 1500 136 231 332 385 665 1400 1710 3330 7150
2021-02-24 01:30 5.82 939 15400 (1985) 95 (1964) 1500 136 231 332 385 665 1400 1710 3330 7150
2021-02-24 00:30 5.82 939 15400 (1985) 95 (1964) 1500 136 231 332 385 665 1400 1710 3330 7150
2021-02-23 23:30 5.82 939 7760 (1945) 100 (1964) 1270 139 219 335 378 652 1500 1800 3470 5200
2021-02-23 22:30 5.81 932 7760 (1945) 100 (1964) 1270 139 219 335 378 652 1500 1800 3470 5200
2021-02-23 21:30 5.82 939 7760 (1945) 100 (1964) 1270 139 219 335 378 652 1500 1800 3470 5200
2021-02-23 20:30 5.82 939 7760 (1945) 100 (1964) 1270 139 219 335 378 652 1500 1800 3470 5200
2021-02-23 19:30 5.81 932 7760 (1945) 100 (1964) 1270 139 219 335 378 652 1500 1800 3470 5200
2021-02-23 18:30 5.80 925 7760 (1945) 100 (1964) 1270 139 219 335 378 652 1500 1800 3470 5200
2021-02-23 17:30 5.78 911 7760 (1945) 100 (1964) 1270 139 219 335 378 652 1500 1800 3470 5200
2021-02-23 16:30 5.77 903 7760 (1945) 100 (1964) 1270 139 219 335 378 652 1500 1800 3470 5200
2021-02-23 15:30 5.76 896 7760 (1945) 100 (1964) 1270 139 219 335 378 652 1500 1800 3470 5200
2021-02-23 14:30 5.78 911 7760 (1945) 100 (1964) 1270 139 219 335 378 652 1500 1800 3470 5200
2021-02-23 13:30 5.77 903 7760 (1945) 100 (1964) 1270 139 219 335 378 652 1500 1800 3470 5200
2021-02-23 12:30 5.76 896 7760 (1945) 100 (1964) 1270 139 219 335 378 652 1500 1800 3470 5200
2021-02-23 11:30 5.74 882 7760 (1945) 100 (1964) 1270 139 219 335 378 652 1500 1800 3470 5200
2021-02-23 10:30 5.72 868 7760 (1945) 100 (1964) 1270 139 219 335 378 652 1500 1800 3470 5200
2021-02-23 09:30 5.72 868 7760 (1945) 100 (1964) 1270 139 219 335 378 652 1500 1800 3470 5200
2021-02-23 08:30 5.70 855 7760 (1945) 100 (1964) 1270 139 219 335 378 652 1500 1800 3470 5200
2021-02-23 07:30 5.69 848 7760 (1945) 100 (1964) 1270 139 219 335 378 652 1500 1800 3470 5200
2021-02-23 06:30 5.68 841 7760 (1945) 100 (1964) 1270 139 219 335 378 652 1500 1800 3470 5200
2021-02-23 05:30 5.67 834 7760 (1945) 100 (1964) 1270 139 219 335 378 652 1500 1800 3470 5200
2021-02-23 04:30 5.66 827 7760 (1945) 100 (1964) 1270 139 219 335 378 652 1500 1800 3470 5200
2021-02-23 03:30 5.64 814 7760 (1945) 100 (1964) 1270 139 219 335 378 652 1500 1800 3470 5200
2021-02-23 02:30 5.66 827 7760 (1945) 100 (1964) 1270 139 219 335 378 652 1500 1800 3470 5200
2021-02-23 00:30 5.62 801 7760 (1945) 100 (1964) 1270 139 219 335 378 652 1500 1800 3470 5200
2021-02-22 23:30 5.62 801 18500 (1997) 100 (1964) 1490 137 210 352 400 675 1320 1470 2550 6790
2021-02-22 22:30 5.61 794 18500 (1997) 100 (1964) 1490 137 210 352 400 675 1320 1470 2550 6790
2021-02-22 21:30 5.60 788 18500 (1997) 100 (1964) 1490 137 210 352 400 675 1320 1470 2550 6790
2021-02-22 20:30 5.59 781 18500 (1997) 100 (1964) 1490 137 210 352 400 675 1320 1470 2550 6790
2021-02-22 19:30 5.59 781 18500 (1997) 100 (1964) 1490 137 210 352 400 675 1320 1470 2550 6790
2021-02-22 18:30 5.59 781 18500 (1997) 100 (1964) 1490 137 210 352 400 675 1320 1470 2550 6790
2021-02-22 17:30 5.56 762 18500 (1997) 100 (1964) 1490 137 210 352 400 675 1320 1470 2550 6790
2021-02-22 16:30 5.58 775 18500 (1997) 100 (1964) 1490 137 210 352 400 675 1320 1470 2550 6790
2021-02-22 15:30 5.55 756 18500 (1997) 100 (1964) 1490 137 210 352 400 675 1320 1470 2550 6790
2021-02-22 14:30 5.55 756 18500 (1997) 100 (1964) 1490 137 210 352 400 675 1320 1470 2550 6790
2021-02-22 13:30 5.56 762 18500 (1997) 100 (1964) 1490 137 210 352 400 675 1320 1470 2550 6790
2021-02-22 12:30 5.56 762 18500 (1997) 100 (1964) 1490 137 210 352 400 675 1320 1470 2550 6790
2021-02-22 11:30 5.56 762 18500 (1997) 100 (1964) 1490 137 210 352 400 675 1320 1470 2550 6790
2021-02-22 10:30 5.55 756 18500 (1997) 100 (1964) 1490 137 210 352 400 675 1320 1470 2550 6790
2021-02-22 09:30 5.55 756 18500 (1997) 100 (1964) 1490 137 210 352 400 675 1320 1470 2550 6790
2021-02-22 08:30 5.56 762 18500 (1997) 100 (1964) 1490 137 210 352 400 675 1320 1470 2550 6790
2021-02-22 07:30 5.57 768 18500 (1997) 100 (1964) 1490 137 210 352 400 675 1320 1470 2550 6790
2021-02-22 06:30 5.57 768 18500 (1997) 100 (1964) 1490 137 210 352 400 675 1320 1470 2550 6790
2021-02-22 05:30 5.57 768 18500 (1997) 100 (1964) 1490 137 210 352 400 675 1320 1470 2550 6790
2021-02-22 04:30 5.53 743 18500 (1997) 100 (1964) 1490 137 210 352 400 675 1320 1470 2550 6790
2021-02-22 03:30 5.55 756 18500 (1997) 100 (1964) 1490 137 210 352 400 675 1320 1470 2550 6790
2021-02-22 02:30 5.56 762 18500 (1997) 100 (1964) 1490 137 210 352 400 675 1320 1470 2550 6790
2021-02-22 01:30 5.56 762 18500 (1997) 100 (1964) 1490 137 210 352 400 675 1320 1470 2550 6790
2021-02-22 00:30 5.55 756 18500 (1997) 100 (1964) 1490 137 210 352 400 675 1320 1470 2550 6790
2021-02-21 23:30 5.57 768 31400 (1951) 100 (1964) 1520 138 210 360 389 708 1290 1480 2920 4810
2021-02-21 22:30 5.55 756 31400 (1951) 100 (1964) 1520 138 210 360 389 708 1290 1480 2920 4810
2021-02-21 21:30 5.54 749 31400 (1951) 100 (1964) 1520 138 210 360 389 708 1290 1480 2920 4810
2021-02-21 20:30 5.55 756 31400 (1951) 100 (1964) 1520 138 210 360 389 708 1290 1480 2920 4810
2021-02-21 19:30 5.54 749 31400 (1951) 100 (1964) 1520 138 210 360 389 708 1290 1480 2920 4810
2021-02-21 18:30 5.54 749 31400 (1951) 100 (1964) 1520 138 210 360 389 708 1290 1480 2920 4810
2021-02-21 17:30 5.53 743 31400 (1951) 100 (1964) 1520 138 210 360 389 708 1290 1480 2920 4810
2021-02-21 16:30 5.53 743 31400 (1951) 100 (1964) 1520 138 210 360 389 708 1290 1480 2920 4810
2021-02-21 15:30 5.55 756 31400 (1951) 100 (1964) 1520 138 210 360 389 708 1290 1480 2920 4810
2021-02-21 14:30 5.52 737 31400 (1951) 100 (1964) 1520 138 210 360 389 708 1290 1480 2920 4810
2021-02-21 13:30 5.54 749 31400 (1951) 100 (1964) 1520 138 210 360 389 708 1290 1480 2920 4810
2021-02-21 12:30 5.54 749 31400 (1951) 100 (1964) 1520 138 210 360 389 708 1290 1480 2920 4810
2021-02-21 11:30 5.54 749 31400 (1951) 100 (1964) 1520 138 210 360 389 708 1290 1480 2920 4810
2021-02-21 10:30 5.54 749 31400 (1951) 100 (1964) 1520 138 210 360 389 708 1290 1480 2920 4810
2021-02-21 09:30 5.55 756 31400 (1951) 100 (1964) 1520 138 210 360 389 708 1290 1480 2920 4810
2021-02-21 08:30 5.54 749 31400 (1951) 100 (1964) 1520 138 210 360 389 708 1290 1480 2920 4810
2021-02-21 07:30 5.54 749 31400 (1951) 100 (1964) 1520 138 210 360 389 708 1290 1480 2920 4810
2021-02-21 06:30 5.54 749 31400 (1951) 100 (1964) 1520 138 210 360 389 708 1290 1480 2920 4810
2021-02-21 05:30 5.53 743 31400 (1951) 100 (1964) 1520 138 210 360 389 708 1290 1480 2920 4810
2021-02-21 04:30 5.54 749 31400 (1951) 100 (1964) 1520 138 210 360 389 708 1290 1480 2920 4810
2021-02-21 03:30 5.54 749 31400 (1951) 100 (1964) 1520 138 210 360 389 708 1290 1480 2920 4810
2021-02-21 02:30 5.53 743 31400 (1951) 100 (1964) 1520 138 210 360 389 708 1290 1480 2920 4810
2021-02-21 01:30 5.53 743 31400 (1951) 100 (1964) 1520 138 210 360 389 708 1290 1480 2920 4810
2021-02-21 00:30 5.53 743 31400 (1951) 100 (1964) 1520 138 210 360 389 708 1290 1480 2920 4810
2021-02-20 23:30 5.53 743 19700 (1951) 100 (1954) 1220 139 216 343 385 644 1130 1180 2200 4420
2021-02-20 22:30 5.54 749 19700 (1951) 100 (1954) 1220 139 216 343 385 644 1130 1180 2200 4420
2021-02-20 21:30 5.55 756 19700 (1951) 100 (1954) 1220 139 216 343 385 644 1130 1180 2200 4420
2021-02-20 20:30 5.53 743 19700 (1951) 100 (1954) 1220 139 216 343 385 644 1130 1180 2200 4420
2021-02-20 19:30 5.53 743 19700 (1951) 100 (1954) 1220 139 216 343 385 644 1130 1180 2200 4420
2021-02-20 18:30 5.54 749 19700 (1951) 100 (1954) 1220 139 216 343 385 644 1130 1180 2200 4420
2021-02-20 17:30 5.52 737 19700 (1951) 100 (1954) 1220 139 216 343 385 644 1130 1180 2200 4420
2021-02-20 16:30 5.53 743 19700 (1951) 100 (1954) 1220 139 216 343 385 644 1130 1180 2200 4420
2021-02-20 15:30 5.54 749 19700 (1951) 100 (1954) 1220 139 216 343 385 644 1130 1180 2200 4420
2021-02-20 14:30 5.52 737 19700 (1951) 100 (1954) 1220 139 216 343 385 644 1130 1180 2200 4420
2021-02-20 13:30 5.52 737 19700 (1951) 100 (1954) 1220 139 216 343 385 644 1130 1180 2200 4420
2021-02-20 12:30 5.54 749 19700 (1951) 100 (1954) 1220 139 216 343 385 644 1130 1180 2200 4420
2021-02-20 11:30 5.53 743 19700 (1951) 100 (1954) 1220 139 216 343 385 644 1130 1180 2200 4420
2021-02-20 10:30 5.53 743 19700 (1951) 100 (1954) 1220 139 216 343 385 644 1130 1180 2200 4420
2021-02-20 09:30 5.53 743 19700 (1951) 100 (1954) 1220 139 216 343 385 644 1130 1180 2200 4420
2021-02-20 08:30 5.55 756 19700 (1951) 100 (1954) 1220 139 216 343 385 644 1130 1180 2200 4420
2021-02-20 07:30 5.54 749 19700 (1951) 100 (1954) 1220 139 216 343 385 644 1130 1180 2200 4420
2021-02-20 06:30 5.54 749 19700 (1951) 100 (1954) 1220 139 216 343 385 644 1130 1180 2200 4420
2021-02-20 05:30 5.55 756 19700 (1951) 100 (1954) 1220 139 216 343 385 644 1130 1180 2200 4420
2021-02-20 04:30 5.55 756 19700 (1951) 100 (1954) 1220 139 216 343 385 644 1130 1180 2200 4420
2021-02-20 03:30 5.56 762 19700 (1951) 100 (1954) 1220 139 216 343 385 644 1130 1180 2200 4420
2021-02-20 02:30 5.55 756 19700 (1951) 100 (1954) 1220 139 216 343 385 644 1130 1180 2200 4420
2021-02-20 01:30 5.57 768 19700 (1951) 100 (1954) 1220 139 216 343 385 644 1130 1180 2200 4420
2021-02-20 00:30 5.54 749 19700 (1951) 100 (1954) 1220 139 216 343 385 644 1130 1180 2200 4420
2021-02-19 23:30 5.56 762 24800 (1938) 100 (1954) 1400 146 227 344 394 667 1140 1260 2230 3900
2021-02-19 22:30 5.56 762 24800 (1938) 100 (1954) 1400 146 227 344 394 667 1140 1260 2230 3900
2021-02-19 21:30 5.56 762 24800 (1938) 100 (1954) 1400 146 227 344 394 667 1140 1260 2230 3900
2021-02-19 19:30 5.55 756 24800 (1938) 100 (1954) 1400 146 227 344 394 667 1140 1260 2230 3900
2021-02-19 18:30 5.56 762 24800 (1938) 100 (1954) 1400 146 227 344 394 667 1140 1260 2230 3900
2021-02-19 17:30 5.54 749 24800 (1938) 100 (1954) 1400 146 227 344 394 667 1140 1260 2230 3900
2021-02-19 16:30 5.55 756 24800 (1938) 100 (1954) 1400 146 227 344 394 667 1140 1260 2230 3900
2021-02-19 15:30 5.56 762 24800 (1938) 100 (1954) 1400 146 227 344 394 667 1140 1260 2230 3900
2021-02-19 14:30 5.55 756 24800 (1938) 100 (1954) 1400 146 227 344 394 667 1140 1260 2230 3900
2021-02-19 13:30 5.56 762 24800 (1938) 100 (1954) 1400 146 227 344 394 667 1140 1260 2230 3900
2021-02-19 12:30 5.55 756 24800 (1938) 100 (1954) 1400 146 227 344 394 667 1140 1260 2230 3900
2021-02-19 11:30 5.56 762 24800 (1938) 100 (1954) 1400 146 227 344 394 667 1140 1260 2230 3900
2021-02-19 10:30 5.56 762 24800 (1938) 100 (1954) 1400 146 227 344 394 667 1140 1260 2230 3900
2021-02-19 09:30 5.57 768 24800 (1938) 100 (1954) 1400 146 227 344 394 667 1140 1260 2230 3900
2021-02-19 08:30 5.56 762 24800 (1938) 100 (1954) 1400 146 227 344 394 667 1140 1260 2230 3900
2021-02-19 07:30 5.57 768 24800 (1938) 100 (1954) 1400 146 227 344 394 667 1140 1260 2230 3900
2021-02-19 06:30 5.57 768 24800 (1938) 100 (1954) 1400 146 227 344 394 667 1140 1260 2230 3900
2021-02-19 05:30 5.56 762 24800 (1938) 100 (1954) 1400 146 227 344 394 667 1140 1260 2230 3900
2021-02-19 04:30 5.58 775 24800 (1938) 100 (1954) 1400 146 227 344 394 667 1140 1260 2230 3900
2021-02-19 03:30 5.57 768 24800 (1938) 100 (1954) 1400 146 227 344 394 667 1140 1260 2230 3900
2021-02-19 02:30 5.58 775 24800 (1938) 100 (1954) 1400 146 227 344 394 667 1140 1260 2230 3900
2021-02-19 01:30 5.58 775 24800 (1938) 100 (1954) 1400 146 227 344 394 667 1140 1260 2230 3900
2021-02-19 00:30 5.59 781 24800 (1938) 100 (1954) 1400 146 227 344 394 667 1140 1260 2230 3900
2021-02-18 23:30 5.59 781 34700 (1938) 100 (1954) 1520 142 216 335 368 648 1200 1400 2610 4590
2021-02-18 22:30 5.58 775 34700 (1938) 100 (1954) 1520 142 216 335 368 648 1200 1400 2610 4590
2021-02-18 21:30 5.59 781 34700 (1938) 100 (1954) 1520 142 216 335 368 648 1200 1400 2610 4590
2021-02-18 20:30 5.59 781 34700 (1938) 100 (1954) 1520 142 216 335 368 648 1200 1400 2610 4590
2021-02-18 19:30 5.59 781 34700 (1938) 100 (1954) 1520 142 216 335 368 648 1200 1400 2610 4590
2021-02-18 18:30 5.59 781 34700 (1938) 100 (1954) 1520 142 216 335 368 648 1200 1400 2610 4590
2021-02-18 17:30 5.59 781 34700 (1938) 100 (1954) 1520 142 216 335 368 648 1200 1400 2610 4590
2021-02-18 16:30 5.59 781 34700 (1938) 100 (1954) 1520 142 216 335 368 648 1200 1400 2610 4590
2021-02-18 15:30 5.60 788 34700 (1938) 100 (1954) 1520 142 216 335 368 648 1200 1400 2610 4590
2021-02-18 14:30 5.60 788 34700 (1938) 100 (1954) 1520 142 216 335 368 648 1200 1400 2610 4590
2021-02-18 13:30 5.60 788 34700 (1938) 100 (1954) 1520 142 216 335 368 648 1200 1400 2610 4590
2021-02-18 12:30 5.60 788 34700 (1938) 100 (1954) 1520 142 216 335 368 648 1200 1400 2610 4590
2021-02-18 11:30 5.59 781 34700 (1938) 100 (1954) 1520 142 216 335 368 648 1200 1400 2610 4590
2021-02-18 10:30 5.60 788 34700 (1938) 100 (1954) 1520 142 216 335 368 648 1200 1400 2610 4590
2021-02-18 09:30 5.61 794 34700 (1938) 100 (1954) 1520 142 216 335 368 648 1200 1400 2610 4590
2021-02-18 08:30 5.61 794 34700 (1938) 100 (1954) 1520 142 216 335 368 648 1200 1400 2610 4590
2021-02-18 07:30 5.62 801 34700 (1938) 100 (1954) 1520 142 216 335 368 648 1200 1400 2610 4590
2021-02-18 06:30 5.62 801 34700 (1938) 100 (1954) 1520 142 216 335 368 648 1200 1400 2610 4590
2021-02-18 05:30 5.63 807 34700 (1938) 100 (1954) 1520 142 216 335 368 648 1200 1400 2610 4590
2021-02-18 04:30 5.63 807 34700 (1938) 100 (1954) 1520 142 216 335 368 648 1200 1400 2610 4590
2021-02-18 03:30 5.62 801 34700 (1938) 100 (1954) 1520 142 216 335 368 648 1200 1400 2610 4590
2021-02-18 02:30 5.64 814 34700 (1938) 100 (1954) 1520 142 216 335 368 648 1200 1400 2610 4590
2021-02-18 01:30 5.65 821 34700 (1938) 100 (1954) 1520 142 216 335 368 648 1200 1400 2610 4590
2021-02-18 00:30 5.64 814 34700 (1938) 100 (1954) 1520 142 216 335 368 648 1200 1400 2610 4590
2021-02-17 23:30 5.65 821 24400 (1938) 100 (1954) 1410 139 227 314 352 641 1140 1510 2930 6650
2021-02-17 22:30 5.62 801 24400 (1938) 100 (1954) 1410 139 227 314 352 641 1140 1510 2930 6650
2021-02-17 21:30 5.64 814 24400 (1938) 100 (1954) 1410 139 227 314 352 641 1140 1510 2930 6650
2021-02-17 20:30 5.65 821 24400 (1938) 100 (1954) 1410 139 227 314 352 641 1140 1510 2930 6650
2021-02-17 19:30 5.67 834 24400 (1938) 100 (1954) 1410 139 227 314 352 641 1140 1510 2930 6650
2021-02-17 18:30 5.65 821 24400 (1938) 100 (1954) 1410 139 227 314 352 641 1140 1510 2930 6650
2021-02-17 17:30 5.64 814 24400 (1938) 100 (1954) 1410 139 227 314 352 641 1140 1510 2930 6650
2021-02-17 16:30 5.65 821 24400 (1938) 100 (1954) 1410 139 227 314 352 641 1140 1510 2930 6650
2021-02-17 15:30 5.64 814 24400 (1938) 100 (1954) 1410 139 227 314 352 641 1140 1510 2930 6650
2021-02-17 14:30 5.65 821 24400 (1938) 100 (1954) 1410 139 227 314 352 641 1140 1510 2930 6650
2021-02-17 13:30 5.64 814 24400 (1938) 100 (1954) 1410 139 227 314 352 641 1140 1510 2930 6650
2021-02-17 12:30 5.66 827 24400 (1938) 100 (1954) 1410 139 227 314 352 641 1140 1510 2930 6650
2021-02-17 11:30 5.65 821 24400 (1938) 100 (1954) 1410 139 227 314 352 641 1140 1510 2930 6650
2021-02-17 10:30 5.64 814 24400 (1938) 100 (1954) 1410 139 227 314 352 641 1140 1510 2930 6650
2021-02-17 09:30 5.65 821 24400 (1938) 100 (1954) 1410 139 227 314 352 641 1140 1510 2930 6650
2021-02-17 08:30 5.64 814 24400 (1938) 100 (1954) 1410 139 227 314 352 641 1140 1510 2930 6650
2021-02-17 07:30 5.64 814 24400 (1938) 100 (1954) 1410 139 227 314 352 641 1140 1510 2930 6650
2021-02-17 06:30 5.64 814 24400 (1938) 100 (1954) 1410 139 227 314 352 641 1140 1510 2930 6650
2021-02-17 05:30 5.65 821 24400 (1938) 100 (1954) 1410 139 227 314 352 641 1140 1510 2930 6650
2021-02-17 04:30 5.65 821 24400 (1938) 100 (1954) 1410 139 227 314 352 641 1140 1510 2930 6650
2021-02-17 03:30 5.64 814 24400 (1938) 100 (1954) 1410 139 227 314 352 641 1140 1510 2930 6650
2021-02-17 02:30 5.65 821 24400 (1938) 100 (1954) 1410 139 227 314 352 641 1140 1510 2930 6650
2021-02-17 01:30 5.67 834 24400 (1938) 100 (1954) 1410 139 227 314 352 641 1140 1510 2930 6650
2021-02-17 00:30 5.66 827 24400 (1938) 100 (1954) 1410 139 227 314 352 641 1140 1510 2930 6650
2021-02-16 23:30 5.66 827 13300 (1949) 96 (1940) 1280 141 197 288 346 656 1030 1280 2200 6900
2021-02-16 22:30 5.67 834 13300 (1949) 96 (1940) 1280 141 197 288 346 656 1030 1280 2200 6900
2021-02-16 21:30 5.69 848 13300 (1949) 96 (1940) 1280 141 197 288 346 656 1030 1280 2200 6900
2021-02-16 20:30 5.70 855 13300 (1949) 96 (1940) 1280 141 197 288 346 656 1030 1280 2200 6900
2021-02-16 19:30 5.72 868 13300 (1949) 96 (1940) 1280 141 197 288 346 656 1030 1280 2200 6900
2021-02-16 18:30 5.72 868 13300 (1949) 96 (1940) 1280 141 197 288 346 656 1030 1280 2200 6900
2021-02-16 17:30 5.72 868 13300 (1949) 96 (1940) 1280 141 197 288 346 656 1030 1280 2200 6900
2021-02-16 16:30 5.68 841 13300 (1949) 96 (1940) 1280 141 197 288 346 656 1030 1280 2200 6900
2021-02-16 15:30 5.70 855 13300 (1949) 96 (1940) 1280 141 197 288 346 656 1030 1280 2200 6900
2021-02-16 14:30 5.72 868 13300 (1949) 96 (1940) 1280 141 197 288 346 656 1030 1280 2200 6900
2021-02-16 13:30 5.67 834 13300 (1949) 96 (1940) 1280 141 197 288 346 656 1030 1280 2200 6900
2021-02-16 12:30 5.59 781 13300 (1949) 96 (1940) 1280 141 197 288 346 656 1030 1280 2200 6900
2021-02-16 11:30 5.57 768 13300 (1949) 96 (1940) 1280 141 197 288 346 656 1030 1280 2200 6900
2021-02-16 10:30 5.66 827 13300 (1949) 96 (1940) 1280 141 197 288 346 656 1030 1280 2200 6900
2021-02-16 09:30 5.64 814 13300 (1949) 96 (1940) 1280 141 197 288 346 656 1030 1280 2200 6900
2021-02-16 08:30 5.60 788 13300 (1949) 96 (1940) 1280 141 197 288 346 656 1030 1280 2200 6900
2021-02-16 07:30 5.62 801 13300 (1949) 96 (1940) 1280 141 197 288 346 656 1030 1280 2200 6900
2021-02-16 06:30 5.61 794 13300 (1949) 96 (1940) 1280 141 197 288 346 656 1030 1280 2200 6900
2021-02-16 05:30 5.65 821 13300 (1949) 96 (1940) 1280 141 197 288 346 656 1030 1280 2200 6900
2021-02-16 04:30 5.65 821 13300 (1949) 96 (1940) 1280 141 197 288 346 656 1030 1280 2200 6900
2021-02-16 03:30 5.64 814 13300 (1949) 96 (1940) 1280 141 197 288 346 656 1030 1280 2200 6900
2021-02-16 02:30 5.65 821 13300 (1949) 96 (1940) 1280 141 197 288 346 656 1030 1280 2200 6900
2021-02-16 00:30 5.66 827 13300 (1949) 96 (1940) 1280 141 197 288 346 656 1030 1280 2200 6900
2021-02-15 23:30 5.66 827 9380 (1989) 93 (1940) 1090 141 178 285 338 624 1020 1160 2390 3760
2021-02-15 22:30 5.67 834 9380 (1989) 93 (1940) 1090 141 178 285 338 624 1020 1160 2390 3760
2021-02-15 21:30 5.67 834 9380 (1989) 93 (1940) 1090 141 178 285 338 624 1020 1160 2390 3760
2021-02-15 20:30 5.66 827 9380 (1989) 93 (1940) 1090 141 178 285 338 624 1020 1160 2390 3760
2021-02-15 19:30 5.64 814 9380 (1989) 93 (1940) 1090 141 178 285 338 624 1020 1160 2390 3760
2021-02-15 18:30 5.61 794 9380 (1989) 93 (1940) 1090 141 178 285 338 624 1020 1160 2390 3760
2021-02-15 17:30 5.60 788 9380 (1989) 93 (1940) 1090 141 178 285 338 624 1020 1160 2390 3760
2021-02-15 16:30 5.57 768 9380 (1989) 93 (1940) 1090 141 178 285 338 624 1020 1160 2390 3760
2021-02-15 15:30 5.60 788 9380 (1989) 93 (1940) 1090 141 178 285 338 624 1020 1160 2390 3760
2021-02-15 14:30 5.60 788 9380 (1989) 93 (1940) 1090 141 178 285 338 624 1020 1160 2390 3760
2021-02-15 13:30 5.64 814 9380 (1989) 93 (1940) 1090 141 178 285 338 624 1020 1160 2390 3760
2021-02-15 12:30 5.62 801 9380 (1989) 93 (1940) 1090 141 178 285 338 624 1020 1160 2390 3760
2021-02-15 11:30 5.50 724 9380 (1989) 93 (1940) 1090 141 178 285 338 624 1020 1160 2390 3760
2021-02-15 10:30 5.51 730 9380 (1989) 93 (1940) 1090 141 178 285 338 624 1020 1160 2390 3760
2021-02-15 09:30 5.53 743 9380 (1989) 93 (1940) 1090 141 178 285 338 624 1020 1160 2390 3760
2021-02-15 08:30 5.54 749 9380 (1989) 93 (1940) 1090 141 178 285 338 624 1020 1160 2390 3760
2021-02-15 07:30 5.56 762 9380 (1989) 93 (1940) 1090 141 178 285 338 624 1020 1160 2390 3760
2021-02-15 06:30 5.58 775 9380 (1989) 93 (1940) 1090 141 178 285 338 624 1020 1160 2390 3760
2021-02-15 05:30 5.60 788 9380 (1989) 93 (1940) 1090 141 178 285 338 624 1020 1160 2390 3760
2021-02-15 04:30 5.61 794 9380 (1989) 93 (1940) 1090 141 178 285 338 624 1020 1160 2390 3760
2021-02-15 03:30 5.60 788 9380 (1989) 93 (1940) 1090 141 178 285 338 624 1020 1160 2390 3760
2021-02-15 02:30 5.62 801 9380 (1989) 93 (1940) 1090 141 178 285 338 624 1020 1160 2390 3760
2021-02-15 01:30 5.63 807 9380 (1989) 93 (1940) 1090 141 178 285 338 624 1020 1160 2390 3760
2021-02-15 00:30 5.65 821 9380 (1989) 93 (1940) 1090 141 178 285 338 624 1020 1160 2390 3760
2021-02-14 23:30 5.66 827 7980 (1950) 98 (1940) 985 145 172 283 329 638 1080 1160 2370 3160
2021-02-14 22:30 5.67 834 7980 (1950) 98 (1940) 985 145 172 283 329 638 1080 1160 2370 3160
2021-02-14 21:30 5.66 827 7980 (1950) 98 (1940) 985 145 172 283 329 638 1080 1160 2370 3160
2021-02-14 20:30 5.68 841 7980 (1950) 98 (1940) 985 145 172 283 329 638 1080 1160 2370 3160
2021-02-14 19:30 5.67 834 7980 (1950) 98 (1940) 985 145 172 283 329 638 1080 1160 2370 3160
2021-02-14 18:30 5.68 841 7980 (1950) 98 (1940) 985 145 172 283 329 638 1080 1160 2370 3160
2021-02-14 17:30 5.68 841 7980 (1950) 98 (1940) 985 145 172 283 329 638 1080 1160 2370 3160
2021-02-14 16:30 5.69 848 7980 (1950) 98 (1940) 985 145 172 283 329 638 1080 1160 2370 3160
2021-02-14 15:30 5.67 834 7980 (1950) 98 (1940) 985 145 172 283 329 638 1080 1160 2370 3160
2021-02-14 14:30 5.69 848 7980 (1950) 98 (1940) 985 145 172 283 329 638 1080 1160 2370 3160
2021-02-14 13:30 5.68 841 7980 (1950) 98 (1940) 985 145 172 283 329 638 1080 1160 2370 3160
2021-02-14 12:30 5.69 848 7980 (1950) 98 (1940) 985 145 172 283 329 638 1080 1160 2370 3160
2021-02-14 11:30 5.70 855 7980 (1950) 98 (1940) 985 145 172 283 329 638 1080 1160 2370 3160
2021-02-14 10:30 5.69 848 7980 (1950) 98 (1940) 985 145 172 283 329 638 1080 1160 2370 3160
2021-02-14 09:30 5.69 848 7980 (1950) 98 (1940) 985 145 172 283 329 638 1080 1160 2370 3160
2021-02-14 08:30 5.69 848 7980 (1950) 98 (1940) 985 145 172 283 329 638 1080 1160 2370 3160
2021-02-14 07:30 5.68 841 7980 (1950) 98 (1940) 985 145 172 283 329 638 1080 1160 2370 3160
2021-02-14 06:30 5.70 855 7980 (1950) 98 (1940) 985 145 172 283 329 638 1080 1160 2370 3160
2021-02-14 05:30 5.68 841 7980 (1950) 98 (1940) 985 145 172 283 329 638 1080 1160 2370 3160
2021-02-14 04:30 5.70 855 7980 (1950) 98 (1940) 985 145 172 283 329 638 1080 1160 2370 3160
2021-02-14 03:30 5.70 855 7980 (1950) 98 (1940) 985 145 172 283 329 638 1080 1160 2370 3160
2021-02-14 02:30 5.70 855 7980 (1950) 98 (1940) 985 145 172 283 329 638 1080 1160 2370 3160
2021-02-14 01:30 5.69 848 7980 (1950) 98 (1940) 985 145 172 283 329 638 1080 1160 2370 3160
2021-02-14 00:30 5.69 848 7980 (1950) 98 (1940) 985 145 172 283 329 638 1080 1160 2370 3160
2021-02-13 23:30 5.69 848 7680 (1950) 100 (1954) 872 146 172 280 300 622 988 1100 1490 3350
2021-02-13 22:30 5.71 861 7680 (1950) 100 (1954) 872 146 172 280 300 622 988 1100 1490 3350
2021-02-13 21:30 5.69 848 7680 (1950) 100 (1954) 872 146 172 280 300 622 988 1100 1490 3350
2021-02-13 20:30 5.70 855 7680 (1950) 100 (1954) 872 146 172 280 300 622 988 1100 1490 3350
2021-02-13 19:30 5.71 861 7680 (1950) 100 (1954) 872 146 172 280 300 622 988 1100 1490 3350
2021-02-13 18:30 5.71 861 7680 (1950) 100 (1954) 872 146 172 280 300 622 988 1100 1490 3350
2021-02-13 17:30 5.71 861 7680 (1950) 100 (1954) 872 146 172 280 300 622 988 1100 1490 3350
2021-02-13 16:30 5.72 868 7680 (1950) 100 (1954) 872 146 172 280 300 622 988 1100 1490 3350
2021-02-13 15:30 5.72 868 7680 (1950) 100 (1954) 872 146 172 280 300 622 988 1100 1490 3350
2021-02-13 14:30 5.73 875 7680 (1950) 100 (1954) 872 146 172 280 300 622 988 1100 1490 3350
2021-02-13 13:30 5.71 861 7680 (1950) 100 (1954) 872 146 172 280 300 622 988 1100 1490 3350
2021-02-13 12:30 5.73 875 7680 (1950) 100 (1954) 872 146 172 280 300 622 988 1100 1490 3350
2021-02-13 11:30 5.73 875 7680 (1950) 100 (1954) 872 146 172 280 300 622 988 1100 1490 3350
2021-02-13 10:30 5.72 868 7680 (1950) 100 (1954) 872 146 172 280 300 622 988 1100 1490 3350
2021-02-13 08:30 5.73 875 7680 (1950) 100 (1954) 872 146 172 280 300 622 988 1100 1490 3350
2021-02-13 07:30 5.72 868 7680 (1950) 100 (1954) 872 146 172 280 300 622 988 1100 1490 3350
2021-02-13 06:30 5.75 889 7680 (1950) 100 (1954) 872 146 172 280 300 622 988 1100 1490 3350
2021-02-13 05:30 5.75 889 7680 (1950) 100 (1954) 872 146 172 280 300 622 988 1100 1490 3350
2021-02-13 04:30 5.74 882 7680 (1950) 100 (1954) 872 146 172 280 300 622 988 1100 1490 3350
2021-02-13 03:30 5.75 889 7680 (1950) 100 (1954) 872 146 172 280 300 622 988 1100 1490 3350
2021-02-13 02:30 5.75 889 7680 (1950) 100 (1954) 872 146 172 280 300 622 988 1100 1490 3350
2021-02-13 01:30 5.74 882 7680 (1950) 100 (1954) 872 146 172 280 300 622 988 1100 1490 3350
2021-02-13 00:30 5.76 896 7680 (1950) 100 (1954) 872 146 172 280 300 622 988 1100 1490 3350
2021-02-12 23:30 5.75 889 5990 (2009) 100 (1954) 801 135 176 280 296 575 957 1110 1390 2040
2021-02-12 22:30 5.75 889 5990 (2009) 100 (1954) 801 135 176 280 296 575 957 1110 1390 2040
2021-02-12 21:30 5.76 896 5990 (2009) 100 (1954) 801 135 176 280 296 575 957 1110 1390 2040
2021-02-12 20:30 5.77 903 5990 (2009) 100 (1954) 801 135 176 280 296 575 957 1110 1390 2040
2021-02-12 19:30 5.76 896 5990 (2009) 100 (1954) 801 135 176 280 296 575 957 1110 1390 2040
2021-02-12 18:30 5.76 896 5990 (2009) 100 (1954) 801 135 176 280 296 575 957 1110 1390 2040
2021-02-12 17:30 5.75 889 5990 (2009) 100 (1954) 801 135 176 280 296 575 957 1110 1390 2040
2021-02-12 16:30 5.78 911 5990 (2009) 100 (1954) 801 135 176 280 296 575 957 1110 1390 2040
2021-02-12 15:30 5.77 903 5990 (2009) 100 (1954) 801 135 176 280 296 575 957 1110 1390 2040
2021-02-12 14:30 5.75 889 5990 (2009) 100 (1954) 801 135 176 280 296 575 957 1110 1390 2040
2021-02-12 13:30 5.76 896 5990 (2009) 100 (1954) 801 135 176 280 296 575 957 1110 1390 2040
2021-02-12 12:30 5.77 903 5990 (2009) 100 (1954) 801 135 176 280 296 575 957 1110 1390 2040
2021-02-12 11:30 5.77 903 5990 (2009) 100 (1954) 801 135 176 280 296 575 957 1110 1390 2040
2021-02-12 10:30 5.76 896 5990 (2009) 100 (1954) 801 135 176 280 296 575 957 1110 1390 2040
2021-02-12 09:30 5.78 911 5990 (2009) 100 (1954) 801 135 176 280 296 575 957 1110 1390 2040
2021-02-12 08:30 5.77 903 5990 (2009) 100 (1954) 801 135 176 280 296 575 957 1110 1390 2040
2021-02-12 07:30 5.75 889 5990 (2009) 100 (1954) 801 135 176 280 296 575 957 1110 1390 2040
2021-02-12 06:30 5.78 911 5990 (2009) 100 (1954) 801 135 176 280 296 575 957 1110 1390 2040
2021-02-12 05:30 5.78 911 5990 (2009) 100 (1954) 801 135 176 280 296 575 957 1110 1390 2040
2021-02-12 04:30 5.79 918 5990 (2009) 100 (1954) 801 135 176 280 296 575 957 1110 1390 2040
2021-02-12 03:30 5.78 911 5990 (2009) 100 (1954) 801 135 176 280 296 575 957 1110 1390 2040
2021-02-12 02:30 5.80 925 5990 (2009) 100 (1954) 801 135 176 280 296 575 957 1110 1390 2040
2021-02-12 01:30 5.80 925 5990 (2009) 100 (1954) 801 135 176 280 296 575 957 1110 1390 2040
2021-02-12 00:30 5.79 918 5990 (2009) 100 (1954) 801 135 176 280 296 575 957 1110 1390 2040
2021-02-11 23:30 5.78 911 17500 (1966) 96 (1954) 905 138 184 263 294 601 964 1020 1470 1950
2021-02-11 22:30 5.81 932 17500 (1966) 96 (1954) 905 138 184 263 294 601 964 1020 1470 1950
2021-02-11 21:30 5.80 925 17500 (1966) 96 (1954) 905 138 184 263 294 601 964 1020 1470 1950
2021-02-11 20:30 5.79 918 17500 (1966) 96 (1954) 905 138 184 263 294 601 964 1020 1470 1950
2021-02-11 19:30 5.80 925 17500 (1966) 96 (1954) 905 138 184 263 294 601 964 1020 1470 1950
2021-02-11 18:30 5.81 932 17500 (1966) 96 (1954) 905 138 184 263 294 601 964 1020 1470 1950
2021-02-11 17:30 5.81 932 17500 (1966) 96 (1954) 905 138 184 263 294 601 964 1020 1470 1950
2021-02-11 16:30 5.82 939 17500 (1966) 96 (1954) 905 138 184 263 294 601 964 1020 1470 1950
2021-02-11 15:30 5.80 925 17500 (1966) 96 (1954) 905 138 184 263 294 601 964 1020 1470 1950
2021-02-11 14:30 5.80 925 17500 (1966) 96 (1954) 905 138 184 263 294 601 964 1020 1470 1950
2021-02-11 13:30 5.81 932 17500 (1966) 96 (1954) 905 138 184 263 294 601 964 1020 1470 1950
2021-02-11 12:30 5.81 932 17500 (1966) 96 (1954) 905 138 184 263 294 601 964 1020 1470 1950
2021-02-11 11:30 5.80 925 17500 (1966) 96 (1954) 905 138 184 263 294 601 964 1020 1470 1950
2021-02-11 10:30 5.82 939 17500 (1966) 96 (1954) 905 138 184 263 294 601 964 1020 1470 1950
2021-02-11 09:30 5.82 939 17500 (1966) 96 (1954) 905 138 184 263 294 601 964 1020 1470 1950
2021-02-11 08:30 5.80 925 17500 (1966) 96 (1954) 905 138 184 263 294 601 964 1020 1470 1950
2021-02-11 07:30 5.82 939 17500 (1966) 96 (1954) 905 138 184 263 294 601 964 1020 1470 1950
2021-02-11 06:30 5.82 939 17500 (1966) 96 (1954) 905 138 184 263 294 601 964 1020 1470 1950
2021-02-11 05:30 5.83 947 17500 (1966) 96 (1954) 905 138 184 263 294 601 964 1020 1470 1950
2021-02-11 04:30 5.82 939 17500 (1966) 96 (1954) 905 138 184 263 294 601 964 1020 1470 1950
2021-02-11 03:30 5.82 939 17500 (1966) 96 (1954) 905 138 184 263 294 601 964 1020 1470 1950
2021-02-11 02:30 5.82 939 17500 (1966) 96 (1954) 905 138 184 263 294 601 964 1020 1470 1950
2021-02-11 01:30 5.85 962 17500 (1966) 96 (1954) 905 138 184 263 294 601 964 1020 1470 1950
2021-02-11 00:30 5.83 947 17500 (1966) 96 (1954) 905 138 184 263 294 601 964 1020 1470 1950
2021-02-10 23:30 5.83 947 10200 (1966) 106 (1954) 849 138 189 257 288 626 969 1060 1560 1970
2021-02-10 22:30 5.84 954 10200 (1966) 106 (1954) 849 138 189 257 288 626 969 1060 1560 1970
2021-02-10 21:30 5.84 954 10200 (1966) 106 (1954) 849 138 189 257 288 626 969 1060 1560 1970
2021-02-10 20:30 5.83 947 10200 (1966) 106 (1954) 849 138 189 257 288 626 969 1060 1560 1970
2021-02-10 19:30 5.83 947 10200 (1966) 106 (1954) 849 138 189 257 288 626 969 1060 1560 1970
2021-02-10 18:30 5.84 954 10200 (1966) 106 (1954) 849 138 189 257 288 626 969 1060 1560 1970
2021-02-10 17:30 5.83 947 10200 (1966) 106 (1954) 849 138 189 257 288 626 969 1060 1560 1970
2021-02-10 16:30 5.85 962 10200 (1966) 106 (1954) 849 138 189 257 288 626 969 1060 1560 1970
2021-02-10 15:30 5.84 954 10200 (1966) 106 (1954) 849 138 189 257 288 626 969 1060 1560 1970
2021-02-10 14:30 5.85 962 10200 (1966) 106 (1954) 849 138 189 257 288 626 969 1060 1560 1970
2021-02-10 13:30 5.86 969 10200 (1966) 106 (1954) 849 138 189 257 288 626 969 1060 1560 1970
2021-02-10 12:30 5.86 969 10200 (1966) 106 (1954) 849 138 189 257 288 626 969 1060 1560 1970
2021-02-10 11:30 5.86 969 10200 (1966) 106 (1954) 849 138 189 257 288 626 969 1060 1560 1970
2021-02-10 10:30 5.83 947 10200 (1966) 106 (1954) 849 138 189 257 288 626 969 1060 1560 1970
2021-02-10 09:30 5.85 962 10200 (1966) 106 (1954) 849 138 189 257 288 626 969 1060 1560 1970
2021-02-10 08:30 5.86 969 10200 (1966) 106 (1954) 849 138 189 257 288 626 969 1060 1560 1970
2021-02-10 07:30 5.85 962 10200 (1966) 106 (1954) 849 138 189 257 288 626 969 1060 1560 1970
2021-02-10 06:30 5.87 976 10200 (1966) 106 (1954) 849 138 189 257 288 626 969 1060 1560 1970
2021-02-10 05:30 5.88 984 10200 (1966) 106 (1954) 849 138 189 257 288 626 969 1060 1560 1970
2021-02-10 04:30 5.86 969 10200 (1966) 106 (1954) 849 138 189 257 288 626 969 1060 1560 1970
2021-02-10 03:30 5.88 984 10200 (1966) 106 (1954) 849 138 189 257 288 626 969 1060 1560 1970
2021-02-10 02:30 5.87 976 10200 (1966) 106 (1954) 849 138 189 257 288 626 969 1060 1560 1970
2021-02-10 01:30 5.86 969 10200 (1966) 106 (1954) 849 138 189 257 288 626 969 1060 1560 1970
2021-02-10 00:30 5.85 962 10200 (1966) 106 (1954) 849 138 189 257 288 626 969 1060 1560 1970
2021-02-09 23:30 5.87 976 8380 (1973) 107 (1940) 830 139 175 261 281 638 978 1140 1690 2100
2021-02-09 22:30 5.86 969 8380 (1973) 107 (1940) 830 139 175 261 281 638 978 1140 1690 2100
2021-02-09 21:30 5.86 969 8380 (1973) 107 (1940) 830 139 175 261 281 638 978 1140 1690 2100
2021-02-09 20:30 5.87 976 8380 (1973) 107 (1940) 830 139 175 261 281 638 978 1140 1690 2100
2021-02-09 19:30 5.88 984 8380 (1973) 107 (1940) 830 139 175 261 281 638 978 1140 1690 2100
2021-02-09 18:30 5.87 976 8380 (1973) 107 (1940) 830 139 175 261 281 638 978 1140 1690 2100
2021-02-09 17:30 5.86 969 8380 (1973) 107 (1940) 830 139 175 261 281 638 978 1140 1690 2100
2021-02-09 16:30 5.87 976 8380 (1973) 107 (1940) 830 139 175 261 281 638 978 1140 1690 2100
2021-02-09 15:30 5.86 969 8380 (1973) 107 (1940) 830 139 175 261 281 638 978 1140 1690 2100
2021-02-09 14:30 5.90 999 8380 (1973) 107 (1940) 830 139 175 261 281 638 978 1140 1690 2100
2021-02-09 13:30 5.88 984 8380 (1973) 107 (1940) 830 139 175 261 281 638 978 1140 1690 2100
2021-02-09 12:30 5.88 984 8380 (1973) 107 (1940) 830 139 175 261 281 638 978 1140 1690 2100
2021-02-09 11:30 5.91 1010 8380 (1973) 107 (1940) 830 139 175 261 281 638 978 1140 1690 2100
2021-02-09 10:30 5.90 999 8380 (1973) 107 (1940) 830 139 175 261 281 638 978 1140 1690 2100
2021-02-09 09:30 5.91 1010 8380 (1973) 107 (1940) 830 139 175 261 281 638 978 1140 1690 2100
2021-02-09 08:30 5.90 999 8380 (1973) 107 (1940) 830 139 175 261 281 638 978 1140 1690 2100
2021-02-09 07:30 5.90 999 8380 (1973) 107 (1940) 830 139 175 261 281 638 978 1140 1690 2100
2021-02-09 06:30 5.91 1010 8380 (1973) 107 (1940) 830 139 175 261 281 638 978 1140 1690 2100
2021-02-09 05:30 5.90 999 8380 (1973) 107 (1940) 830 139 175 261 281 638 978 1140 1690 2100
2021-02-09 04:30 5.92 1010 8380 (1973) 107 (1940) 830 139 175 261 281 638 978 1140 1690 2100
2021-02-09 03:30 5.93 1020 8380 (1973) 107 (1940) 830 139 175 261 281 638 978 1140 1690 2100
2021-02-09 02:30 5.90 999 8380 (1973) 107 (1940) 830 139 175 261 281 638 978 1140 1690 2100
2021-02-09 01:30 5.93 1020 8380 (1973) 107 (1940) 830 139 175 261 281 638 978 1140 1690 2100
2021-02-09 00:30 5.91 1010 8380 (1973) 107 (1940) 830 139 175 261 281 638 978 1140 1690 2100
2021-02-08 23:30 5.92 1010 7810 (1999) 107 (1940) 861 133 178 238 274 645 1020 1180 1850 2460
2021-02-08 22:30 5.94 1030 7810 (1999) 107 (1940) 861 133 178 238 274 645 1020 1180 1850 2460
2021-02-08 21:30 5.94 1030 7810 (1999) 107 (1940) 861 133 178 238 274 645 1020 1180 1850 2460
2021-02-08 20:30 5.92 1010 7810 (1999) 107 (1940) 861 133 178 238 274 645 1020 1180 1850 2460
2021-02-08 19:30 5.94 1030 7810 (1999) 107 (1940) 861 133 178 238 274 645 1020 1180 1850 2460
2021-02-08 18:30 5.94 1030 7810 (1999) 107 (1940) 861 133 178 238 274 645 1020 1180 1850 2460
2021-02-08 17:30 5.93 1020 7810 (1999) 107 (1940) 861 133 178 238 274 645 1020 1180 1850 2460
2021-02-08 16:30 5.94 1030 7810 (1999) 107 (1940) 861 133 178 238 274 645 1020 1180 1850 2460
2021-02-08 15:30 5.93 1020 7810 (1999) 107 (1940) 861 133 178 238 274 645 1020 1180 1850 2460
2021-02-08 14:30 5.92 1010 7810 (1999) 107 (1940) 861 133 178 238 274 645 1020 1180 1850 2460
2021-02-08 13:30 5.95 1040 7810 (1999) 107 (1940) 861 133 178 238 274 645 1020 1180 1850 2460
2021-02-08 12:30 5.94 1030 7810 (1999) 107 (1940) 861 133 178 238 274 645 1020 1180 1850 2460
2021-02-08 11:30 5.94 1030 7810 (1999) 107 (1940) 861 133 178 238 274 645 1020 1180 1850 2460
2021-02-08 10:30 5.93 1020 7810 (1999) 107 (1940) 861 133 178 238 274 645 1020 1180 1850 2460
2021-02-08 09:30 5.93 1020 7810 (1999) 107 (1940) 861 133 178 238 274 645 1020 1180 1850 2460
2021-02-08 08:30 5.95 1040 7810 (1999) 107 (1940) 861 133 178 238 274 645 1020 1180 1850 2460
2021-02-08 07:30 5.94 1030 7810 (1999) 107 (1940) 861 133 178 238 274 645 1020 1180 1850 2460
2021-02-08 06:30 5.97 1050 7810 (1999) 107 (1940) 861 133 178 238 274 645 1020 1180 1850 2460
2021-02-08 05:30 5.95 1040 7810 (1999) 107 (1940) 861 133 178 238 274 645 1020 1180 1850 2460
2021-02-08 04:30 5.94 1030 7810 (1999) 107 (1940) 861 133 178 238 274 645 1020 1180 1850 2460
2021-02-08 03:30 5.94 1030 7810 (1999) 107 (1940) 861 133 178 238 274 645 1020 1180 1850 2460
2021-02-08 02:30 5.93 1020 7810 (1999) 107 (1940) 861 133 178 238 274 645 1020 1180 1850 2460
2021-02-08 01:30 5.95 1040 7810 (1999) 107 (1940) 861 133 178 238 274 645 1020 1180 1850 2460
2021-02-08 00:30 5.96 1050 7810 (1999) 107 (1940) 861 133 178 238 274 645 1020 1180 1850 2460
2021-02-07 23:30 5.95 1040 5430 (1999) 107 (1940) 834 138 180 238 270 630 1060 1270 1690 2380
2021-02-07 22:30 5.95 1040 5430 (1999) 107 (1940) 834 138 180 238 270 630 1060 1270 1690 2380
2021-02-07 21:30 5.98 1060 5430 (1999) 107 (1940) 834 138 180 238 270 630 1060 1270 1690 2380
2021-02-07 20:30 5.96 1050 5430 (1999) 107 (1940) 834 138 180 238 270 630 1060 1270 1690 2380
2021-02-07 19:30 5.96 1050 5430 (1999) 107 (1940) 834 138 180 238 270 630 1060 1270 1690 2380
2021-02-07 18:30 5.97 1050 5430 (1999) 107 (1940) 834 138 180 238 270 630 1060 1270 1690 2380
2021-02-07 17:30 5.97 1050 5430 (1999) 107 (1940) 834 138 180 238 270 630 1060 1270 1690 2380
2021-02-07 16:30 5.96 1050 5430 (1999) 107 (1940) 834 138 180 238 270 630 1060 1270 1690 2380
2021-02-07 15:30 5.96 1050 5430 (1999) 107 (1940) 834 138 180 238 270 630 1060 1270 1690 2380
2021-02-07 14:30 5.97 1050 5430 (1999) 107 (1940) 834 138 180 238 270 630 1060 1270 1690 2380
2021-02-07 13:30 5.97 1050 5430 (1999) 107 (1940) 834 138 180 238 270 630 1060 1270 1690 2380
2021-02-07 12:30 5.98 1060 5430 (1999) 107 (1940) 834 138 180 238 270 630 1060 1270 1690 2380
2021-02-07 10:30 5.98 1060 5430 (1999) 107 (1940) 834 138 180 238 270 630 1060 1270 1690 2380
2021-02-07 09:30 5.99 1070 5430 (1999) 107 (1940) 834 138 180 238 270 630 1060 1270 1690 2380
2021-02-07 08:30 6.00 1080 5430 (1999) 107 (1940) 834 138 180 238 270 630 1060 1270 1690 2380
2021-02-07 07:30 5.99 1070 5430 (1999) 107 (1940) 834 138 180 238 270 630 1060 1270 1690 2380
2021-02-07 06:30 6.00 1080 5430 (1999) 107 (1940) 834 138 180 238 270 630 1060 1270 1690 2380
2021-02-07 05:30 6.00 1080 5430 (1999) 107 (1940) 834 138 180 238 270 630 1060 1270 1690 2380
2021-02-07 04:30 6.02 1090 5430 (1999) 107 (1940) 834 138 180 238 270 630 1060 1270 1690 2380
2021-02-07 03:30 6.02 1090 5430 (1999) 107 (1940) 834 138 180 238 270 630 1060 1270 1690 2380
2021-02-07 02:30 6.01 1080 5430 (1999) 107 (1940) 834 138 180 238 270 630 1060 1270 1690 2380
2021-02-07 01:30 6.02 1090 5430 (1999) 107 (1940) 834 138 180 238 270 630 1060 1270 1690 2380
2021-02-07 00:30 6.01 1080 5430 (1999) 107 (1940) 834 138 180 238 270 630 1060 1270 1690 2380
2021-02-06 23:30 6.02 1090 3840 (2020) 107 (1940) 792 132 181 245 274 590 1020 1190 1790 2500
2021-02-06 22:30 6.01 1080 3840 (2020) 107 (1940) 792 132 181 245 274 590 1020 1190 1790 2500
2021-02-06 21:30 6.02 1090 3840 (2020) 107 (1940) 792 132 181 245 274 590 1020 1190 1790 2500
2021-02-06 20:30 6.02 1090 3840 (2020) 107 (1940) 792 132 181 245 274 590 1020 1190 1790 2500
2021-02-06 19:30 6.03 1100 3840 (2020) 107 (1940) 792 132 181 245 274 590 1020 1190 1790 2500
2021-02-06 18:30 6.02 1090 3840 (2020) 107 (1940) 792 132 181 245 274 590 1020 1190 1790 2500
2021-02-06 17:30 6.04 1110 3840 (2020) 107 (1940) 792 132 181 245 274 590 1020 1190 1790 2500
2021-02-06 16:30 6.03 1100 3840 (2020) 107 (1940) 792 132 181 245 274 590 1020 1190 1790 2500
2021-02-06 15:30 6.05 1120 3840 (2020) 107 (1940) 792 132 181 245 274 590 1020 1190 1790 2500
2021-02-06 14:30 6.05 1120 3840 (2020) 107 (1940) 792 132 181 245 274 590 1020 1190 1790 2500
2021-02-06 13:30 6.04 1110 3840 (2020) 107 (1940) 792 132 181 245 274 590 1020 1190 1790 2500
2021-02-06 12:30 6.03 1100 3840 (2020) 107 (1940) 792 132 181 245 274 590 1020 1190 1790 2500
2021-02-06 11:30 6.04 1110 3840 (2020) 107 (1940) 792 132 181 245 274 590 1020 1190 1790 2500
2021-02-06 10:30 6.05 1120 3840 (2020) 107 (1940) 792 132 181 245 274 590 1020 1190 1790 2500
2021-02-06 09:30 6.06 1130 3840 (2020) 107 (1940) 792 132 181 245 274 590 1020 1190 1790 2500
2021-02-06 08:30 6.04 1110 3840 (2020) 107 (1940) 792 132 181 245 274 590 1020 1190 1790 2500
2021-02-06 07:30 6.06 1130 3840 (2020) 107 (1940) 792 132 181 245 274 590 1020 1190 1790 2500
2021-02-06 06:30 6.07 1130 3840 (2020) 107 (1940) 792 132 181 245 274 590 1020 1190 1790 2500
2021-02-06 05:30 6.06 1130 3840 (2020) 107 (1940) 792 132 181 245 274 590 1020 1190 1790 2500
2021-02-06 04:30 6.07 1130 3840 (2020) 107 (1940) 792 132 181 245 274 590 1020 1190 1790 2500
2021-02-06 03:30 6.07 1130 3840 (2020) 107 (1940) 792 132 181 245 274 590 1020 1190 1790 2500
2021-02-06 02:30 6.08 1140 3840 (2020) 107 (1940) 792 132 181 245 274 590 1020 1190 1790 2500
2021-02-06 01:30 6.07 1130 3840 (2020) 107 (1940) 792 132 181 245 274 590 1020 1190 1790 2500
2021-02-06 00:30 6.08 1140 3840 (2020) 107 (1940) 792 132 181 245 274 590 1020 1190 1790 2500
2021-02-05 23:30 6.08 1140 4750 (2020) 107 (1940) 834 135 187 240 271 510 987 1280 2110 2500
2021-02-05 22:30 6.07 1130 4750 (2020) 107 (1940) 834 135 187 240 271 510 987 1280 2110 2500
2021-02-05 21:30 6.08 1140 4750 (2020) 107 (1940) 834 135 187 240 271 510 987 1280 2110 2500
2021-02-05 20:30 6.08 1140 4750 (2020) 107 (1940) 834 135 187 240 271 510 987 1280 2110 2500
2021-02-05 19:30 6.07 1130 4750 (2020) 107 (1940) 834 135 187 240 271 510 987 1280 2110 2500
2021-02-05 18:30 6.07 1130 4750 (2020) 107 (1940) 834 135 187 240 271 510 987 1280 2110 2500
2021-02-05 17:30 6.09 1150 4750 (2020) 107 (1940) 834 135 187 240 271 510 987 1280 2110 2500
2021-02-05 16:30 6.08 1140 4750 (2020) 107 (1940) 834 135 187 240 271 510 987 1280 2110 2500
2021-02-05 15:30 6.09 1150 4750 (2020) 107 (1940) 834 135 187 240 271 510 987 1280 2110 2500
2021-02-05 14:30 6.11 1170 4750 (2020) 107 (1940) 834 135 187 240 271 510 987 1280 2110 2500
2021-02-05 13:30 6.08 1140 4750 (2020) 107 (1940) 834 135 187 240 271 510 987 1280 2110 2500
2021-02-05 12:30 6.09 1150 4750 (2020) 107 (1940) 834 135 187 240 271 510 987 1280 2110 2500
2021-02-05 11:30 6.11 1170 4750 (2020) 107 (1940) 834 135 187 240 271 510 987 1280 2110 2500
2021-02-05 10:30 6.11 1170 4750 (2020) 107 (1940) 834 135 187 240 271 510 987 1280 2110 2500
2021-02-05 09:30 6.13 1180 4750 (2020) 107 (1940) 834 135 187 240 271 510 987 1280 2110 2500
2021-02-05 08:30 6.12 1180 4750 (2020) 107 (1940) 834 135 187 240 271 510 987 1280 2110 2500
2021-02-05 07:30 6.12 1180 4750 (2020) 107 (1940) 834 135 187 240 271 510 987 1280 2110 2500
2021-02-05 06:30 6.12 1180 4750 (2020) 107 (1940) 834 135 187 240 271 510 987 1280 2110 2500
2021-02-05 05:30 6.13 1180 4750 (2020) 107 (1940) 834 135 187 240 271 510 987 1280 2110 2500
2021-02-05 04:30 6.15 1200 4750 (2020) 107 (1940) 834 135 187 240 271 510 987 1280 2110 2500
2021-02-05 03:30 6.13 1180 4750 (2020) 107 (1940) 834 135 187 240 271 510 987 1280 2110 2500
2021-02-05 02:30 6.11 1170 4750 (2020) 107 (1940) 834 135 187 240 271 510 987 1280 2110 2500
2021-02-05 01:30 6.15 1200 4750 (2020) 107 (1940) 834 135 187 240 271 510 987 1280 2110 2500
2021-02-05 00:30 6.13 1180 4750 (2020) 107 (1940) 834 135 187 240 271 510 987 1280 2110 2500
2021-02-04 23:30 6.13 1180 5080 (1968) 102 (1964) 847 140 188 233 267 526 1040 1330 2070 2850
2021-02-04 22:30 6.14 1190 5080 (1968) 102 (1964) 847 140 188 233 267 526 1040 1330 2070 2850
2021-02-04 21:30 6.13 1180 5080 (1968) 102 (1964) 847 140 188 233 267 526 1040 1330 2070 2850
2021-02-04 20:30 6.16 1210 5080 (1968) 102 (1964) 847 140 188 233 267 526 1040 1330 2070 2850
2021-02-04 19:30 6.16 1210 5080 (1968) 102 (1964) 847 140 188 233 267 526 1040 1330 2070 2850
2021-02-04 18:30 6.14 1190 5080 (1968) 102 (1964) 847 140 188 233 267 526 1040 1330 2070 2850
2021-02-04 17:30 6.16 1210 5080 (1968) 102 (1964) 847 140 188 233 267 526 1040 1330 2070 2850
2021-02-04 16:30 6.16 1210 5080 (1968) 102 (1964) 847 140 188 233 267 526 1040 1330 2070 2850
2021-02-04 15:30 6.15 1200 5080 (1968) 102 (1964) 847 140 188 233 267 526 1040 1330 2070 2850
2021-02-04 14:30 6.18 1230 5080 (1968) 102 (1964) 847 140 188 233 267 526 1040 1330 2070 2850
2021-02-04 13:30 6.17 1220 5080 (1968) 102 (1964) 847 140 188 233 267 526 1040 1330 2070 2850
2021-02-04 12:30 6.18 1230 5080 (1968) 102 (1964) 847 140 188 233 267 526 1040 1330 2070 2850
2021-02-04 11:30 6.20 1240 5080 (1968) 102 (1964) 847 140 188 233 267 526 1040 1330 2070 2850
2021-02-04 10:30 6.20 1240 5080 (1968) 102 (1964) 847 140 188 233 267 526 1040 1330 2070 2850
2021-02-04 09:30 6.19 1240 5080 (1968) 102 (1964) 847 140 188 233 267 526 1040 1330 2070 2850
2021-02-04 08:30 6.20 1240 5080 (1968) 102 (1964) 847 140 188 233 267 526 1040 1330 2070 2850
2021-02-04 07:30 6.20 1240 5080 (1968) 102 (1964) 847 140 188 233 267 526 1040 1330 2070 2850
2021-02-04 06:30 6.20 1240 5080 (1968) 102 (1964) 847 140 188 233 267 526 1040 1330 2070 2850
2021-02-04 05:30 6.20 1240 5080 (1968) 102 (1964) 847 140 188 233 267 526 1040 1330 2070 2850
2021-02-04 04:30 6.21 1250 5080 (1968) 102 (1964) 847 140 188 233 267 526 1040 1330 2070 2850
2021-02-04 03:30 6.21 1250 5080 (1968) 102 (1964) 847 140 188 233 267 526 1040 1330 2070 2850
2021-02-04 02:30 6.23 1270 5080 (1968) 102 (1964) 847 140 188 233 267 526 1040 1330 2070 2850
2021-02-04 01:30 6.22 1260 5080 (1968) 102 (1964) 847 140 188 233 267 526 1040 1330 2070 2850
2021-02-04 00:30 6.20 1240 5080 (1968) 102 (1964) 847 140 188 233 267 526 1040 1330 2070 2850
2021-02-03 23:30 6.23 1270 13400 (1968) 100 (1964) 1020 128 185 233 268 514 1070 1300 2430 3590
2021-02-03 22:30 6.23 1270 13400 (1968) 100 (1964) 1020 128 185 233 268 514 1070 1300 2430 3590
2021-02-03 21:30 6.22 1260 13400 (1968) 100 (1964) 1020 128 185 233 268 514 1070 1300 2430 3590
2021-02-03 20:30 6.23 1270 13400 (1968) 100 (1964) 1020 128 185 233 268 514 1070 1300 2430 3590
2021-02-03 19:30 6.23 1270 13400 (1968) 100 (1964) 1020 128 185 233 268 514 1070 1300 2430 3590
2021-02-03 18:30 6.24 1280 13400 (1968) 100 (1964) 1020 128 185 233 268 514 1070 1300 2430 3590
2021-02-03 17:30 6.22 1260 13400 (1968) 100 (1964) 1020 128 185 233 268 514 1070 1300 2430 3590
2021-02-03 16:30 6.22 1260 13400 (1968) 100 (1964) 1020 128 185 233 268 514 1070 1300 2430 3590
2021-02-03 15:30 6.24 1280 13400 (1968) 100 (1964) 1020 128 185 233 268 514 1070 1300 2430 3590
2021-02-03 14:30 6.24 1280 13400 (1968) 100 (1964) 1020 128 185 233 268 514 1070 1300 2430 3590
2021-02-03 13:30 6.25 1290 13400 (1968) 100 (1964) 1020 128 185 233 268 514 1070 1300 2430 3590
2021-02-03 12:30 6.26 1300 13400 (1968) 100 (1964) 1020 128 185 233 268 514 1070 1300 2430 3590
2021-02-03 11:30 6.25 1290 13400 (1968) 100 (1964) 1020 128 185 233 268 514 1070 1300 2430 3590
2021-02-03 10:30 6.27 1310 13400 (1968) 100 (1964) 1020 128 185 233 268 514 1070 1300 2430 3590
2021-02-03 09:30 6.29 1320 13400 (1968) 100 (1964) 1020 128 185 233 268 514 1070 1300 2430 3590
2021-02-03 08:30 6.29 1320 13400 (1968) 100 (1964) 1020 128 185 233 268 514 1070 1300 2430 3590
2021-02-03 07:30 6.31 1340 13400 (1968) 100 (1964) 1020 128 185 233 268 514 1070 1300 2430 3590
2021-02-03 06:30 6.29 1320 13400 (1968) 100 (1964) 1020 128 185 233 268 514 1070 1300 2430 3590
2021-02-03 05:30 6.30 1330 13400 (1968) 100 (1964) 1020 128 185 233 268 514 1070 1300 2430 3590
2021-02-03 04:30 6.32 1350 13400 (1968) 100 (1964) 1020 128 185 233 268 514 1070 1300 2430 3590
2021-02-03 03:30 6.30 1330 13400 (1968) 100 (1964) 1020 128 185 233 268 514 1070 1300 2430 3590
2021-02-03 02:30 6.31 1340 13400 (1968) 100 (1964) 1020 128 185 233 268 514 1070 1300 2430 3590
2021-02-03 01:30 6.32 1350 13400 (1968) 100 (1964) 1020 128 185 233 268 514 1070 1300 2430 3590
2021-02-03 00:30 6.33 1360 13400 (1968) 100 (1964) 1020 128 185 233 268 514 1070 1300 2430 3590
2021-02-02 23:30 6.32 1350 12600 (1968) 98 (1964) 1040 128 185 242 263 563 1140 1220 1960 4080
2021-02-02 22:30 6.32 1350 12600 (1968) 98 (1964) 1040 128 185 242 263 563 1140 1220 1960 4080
2021-02-02 21:30 6.36 1390 12600 (1968) 98 (1964) 1040 128 185 242 263 563 1140 1220 1960 4080
2021-02-02 20:30 6.34 1370 12600 (1968) 98 (1964) 1040 128 185 242 263 563 1140 1220 1960 4080
2021-02-02 19:30 6.35 1380 12600 (1968) 98 (1964) 1040 128 185 242 263 563 1140 1220 1960 4080
2021-02-02 18:30 6.34 1370 12600 (1968) 98 (1964) 1040 128 185 242 263 563 1140 1220 1960 4080
2021-02-02 17:30 6.35 1380 12600 (1968) 98 (1964) 1040 128 185 242 263 563 1140 1220 1960 4080
2021-02-02 16:30 6.36 1390 12600 (1968) 98 (1964) 1040 128 185 242 263 563 1140 1220 1960 4080
2021-02-02 15:30 6.35 1380 12600 (1968) 98 (1964) 1040 128 185 242 263 563 1140 1220 1960 4080
2021-02-02 14:30 6.35 1380 12600 (1968) 98 (1964) 1040 128 185 242 263 563 1140 1220 1960 4080
2021-02-02 13:30 6.40 1430 12600 (1968) 98 (1964) 1040 128 185 242 263 563 1140 1220 1960 4080
2021-02-02 12:30 6.37 1400 12600 (1968) 98 (1964) 1040 128 185 242 263 563 1140 1220 1960 4080
2021-02-02 11:30 6.41 1440 12600 (1968) 98 (1964) 1040 128 185 242 263 563 1140 1220 1960 4080
2021-02-02 10:30 6.39 1420 12600 (1968) 98 (1964) 1040 128 185 242 263 563 1140 1220 1960 4080
2021-02-02 09:30 6.42 1450 12600 (1968) 98 (1964) 1040 128 185 242 263 563 1140 1220 1960 4080
2021-02-02 08:30 6.43 1460 12600 (1968) 98 (1964) 1040 128 185 242 263 563 1140 1220 1960 4080
2021-02-02 07:30 6.42 1450 12600 (1968) 98 (1964) 1040 128 185 242 263 563 1140 1220 1960 4080
2021-02-02 06:30 6.44 1470 12600 (1968) 98 (1964) 1040 128 185 242 263 563 1140 1220 1960 4080
2021-02-02 05:30 6.42 1450 12600 (1968) 98 (1964) 1040 128 185 242 263 563 1140 1220 1960 4080
2021-02-02 04:30 6.45 1480 12600 (1968) 98 (1964) 1040 128 185 242 263 563 1140 1220 1960 4080
2021-02-02 03:30 6.45 1480 12600 (1968) 98 (1964) 1040 128 185 242 263 563 1140 1220 1960 4080
2021-02-02 02:30 6.47 1500 12600 (1968) 98 (1964) 1040 128 185 242 263 563 1140 1220 1960 4080
2021-02-02 01:30 6.49 1520 12600 (1968) 98 (1964) 1040 128 185 242 263 563 1140 1220 1960 4080
2021-02-02 00:30 6.47 1500 12600 (1968) 98 (1964) 1040 128 185 242 263 563 1140 1220 1960 4080
2021-02-01 23:30 6.47 1500 15600 (1982) 94 (1964) 1090 131 186 246 272 543 1080 1180 1790 4440
2021-02-01 22:30 6.48 1510 15600 (1982) 94 (1964) 1090 131 186 246 272 543 1080 1180 1790 4440
2021-02-01 21:30 6.48 1510 15600 (1982) 94 (1964) 1090 131 186 246 272 543 1080 1180 1790 4440
2021-02-01 20:30 6.48 1510 15600 (1982) 94 (1964) 1090 131 186 246 272 543 1080 1180 1790 4440
2021-02-01 19:30 6.49 1520 15600 (1982) 94 (1964) 1090 131 186 246 272 543 1080 1180 1790 4440
2021-02-01 18:30 6.50 1530 15600 (1982) 94 (1964) 1090 131 186 246 272 543 1080 1180 1790 4440
2021-02-01 17:30 6.51 1540 15600 (1982) 94 (1964) 1090 131 186 246 272 543 1080 1180 1790 4440
2021-02-01 16:30 6.51 1540 15600 (1982) 94 (1964) 1090 131 186 246 272 543 1080 1180 1790 4440
2021-02-01 15:30 6.53 1560 15600 (1982) 94 (1964) 1090 131 186 246 272 543 1080 1180 1790 4440
2021-02-01 14:30 6.55 1580 15600 (1982) 94 (1964) 1090 131 186 246 272 543 1080 1180 1790 4440
2021-02-01 13:30 6.55 1580 15600 (1982) 94 (1964) 1090 131 186 246 272 543 1080 1180 1790 4440
2021-02-01 12:30 6.55 1580 15600 (1982) 94 (1964) 1090 131 186 246 272 543 1080 1180 1790 4440
2021-02-01 11:30 6.56 1590 15600 (1982) 94 (1964) 1090 131 186 246 272 543 1080 1180 1790 4440
2021-02-01 10:30 6.58 1610 15600 (1982) 94 (1964) 1090 131 186 246 272 543 1080 1180 1790 4440
2021-02-01 09:30 6.57 1600 15600 (1982) 94 (1964) 1090 131 186 246 272 543 1080 1180 1790 4440
2021-02-01 08:30 6.60 1630 15600 (1982) 94 (1964) 1090 131 186 246 272 543 1080 1180 1790 4440
2021-02-01 07:30 6.55 1580 15600 (1982) 94 (1964) 1090 131 186 246 272 543 1080 1180 1790 4440
2021-02-01 06:30 6.58 1610 15600 (1982) 94 (1964) 1090 131 186 246 272 543 1080 1180 1790 4440
2021-02-01 05:30 6.57 1600 15600 (1982) 94 (1964) 1090 131 186 246 272 543 1080 1180 1790 4440
2021-02-01 04:30 6.58 1610 15600 (1982) 94 (1964) 1090 131 186 246 272 543 1080 1180 1790 4440
2021-02-01 03:30 6.55 1580 15600 (1982) 94 (1964) 1090 131 186 246 272 543 1080 1180 1790 4440
2021-02-01 02:30 6.61 1640 15600 (1982) 94 (1964) 1090 131 186 246 272 543 1080 1180 1790 4440
2021-02-01 01:30 6.56 1590 15600 (1982) 94 (1964) 1090 131 186 246 272 543 1080 1180 1790 4440
2021-02-01 00:30 6.55 1580 15600 (1982) 94 (1964) 1090 131 186 246 272 543 1080 1180 1790 4440
2021-01-31 23:30 6.56 1590 24000 (1969) 91 (1956) 1210 132 191 252 272 494 998 1100 1670 6020
2021-01-31 22:30 6.55 1580 24000 (1969) 91 (1956) 1210 132 191 252 272 494 998 1100 1670 6020
2021-01-31 21:30 6.55 1580 24000 (1969) 91 (1956) 1210 132 191 252 272 494 998 1100 1670 6020
2021-01-31 20:30 6.53 1560 24000 (1969) 91 (1956) 1210 132 191 252 272 494 998 1100 1670 6020
2021-01-31 19:30 6.52 1550 24000 (1969) 91 (1956) 1210 132 191 252 272 494 998 1100 1670 6020
2021-01-31 18:30 6.54 1570 24000 (1969) 91 (1956) 1210 132 191 252 272 494 998 1100 1670 6020
2021-01-31 17:30 6.52 1550 24000 (1969) 91 (1956) 1210 132 191 252 272 494 998 1100 1670 6020
2021-01-31 16:30 6.55 1580 24000 (1969) 91 (1956) 1210 132 191 252 272 494 998 1100 1670 6020
2021-01-31 15:30 6.53 1560 24000 (1969) 91 (1956) 1210 132 191 252 272 494 998 1100 1670 6020
2021-01-31 14:30 6.56 1590 24000 (1969) 91 (1956) 1210 132 191 252 272 494 998 1100 1670 6020
2021-01-31 13:30 6.55 1580 24000 (1969) 91 (1956) 1210 132 191 252 272 494 998 1100 1670 6020
2021-01-31 12:30 6.57 1600 24000 (1969) 91 (1956) 1210 132 191 252 272 494 998 1100 1670 6020
2021-01-31 11:30 6.58 1610 24000 (1969) 91 (1956) 1210 132 191 252 272 494 998 1100 1670 6020
2021-01-31 10:30 6.59 1620 24000 (1969) 91 (1956) 1210 132 191 252 272 494 998 1100 1670 6020
2021-01-31 09:30 6.58 1610 24000 (1969) 91 (1956) 1210 132 191 252 272 494 998 1100 1670 6020
2021-01-31 08:30 6.57 1600 24000 (1969) 91 (1956) 1210 132 191 252 272 494 998 1100 1670 6020
2021-01-31 07:30 6.58 1610 24000 (1969) 91 (1956) 1210 132 191 252 272 494 998 1100 1670 6020
2021-01-31 06:30 6.59 1620 24000 (1969) 91 (1956) 1210 132 191 252 272 494 998 1100 1670 6020
2021-01-31 05:30 6.62 1650 24000 (1969) 91 (1956) 1210 132 191 252 272 494 998 1100 1670 6020
2021-01-31 04:30 6.61 1640 24000 (1969) 91 (1956) 1210 132 191 252 272 494 998 1100 1670 6020
2021-01-31 03:30 6.63 1660 24000 (1969) 91 (1956) 1210 132 191 252 272 494 998 1100 1670 6020
2021-01-31 02:30 6.61 1640 24000 (1969) 91 (1956) 1210 132 191 252 272 494 998 1100 1670 6020
2021-01-31 01:30 6.62 1650 24000 (1969) 91 (1956) 1210 132 191 252 272 494 998 1100 1670 6020
2021-01-31 00:30 6.64 1670 24000 (1969) 91 (1956) 1210 132 191 252 272 494 998 1100 1670 6020
2021-01-30 23:30 6.66 1690 15700 (1969) 88 (1964) 949 136 190 239 255 456 1050 1150 1630 3370
2021-01-30 22:30 6.66 1690 15700 (1969) 88 (1964) 949 136 190 239 255 456 1050 1150 1630 3370
2021-01-30 21:30 6.66 1690 15700 (1969) 88 (1964) 949 136 190 239 255 456 1050 1150 1630 3370
2021-01-30 20:30 6.62 1650 15700 (1969) 88 (1964) 949 136 190 239 255 456 1050 1150 1630 3370
2021-01-30 19:30 6.65 1680 15700 (1969) 88 (1964) 949 136 190 239 255 456 1050 1150 1630 3370
2021-01-30 18:30 6.65 1680 15700 (1969) 88 (1964) 949 136 190 239 255 456 1050 1150 1630 3370
2021-01-30 17:30 6.69 1720 15700 (1969) 88 (1964) 949 136 190 239 255 456 1050 1150 1630 3370
2021-01-30 16:30 6.66 1690 15700 (1969) 88 (1964) 949 136 190 239 255 456 1050 1150 1630 3370
2021-01-30 15:30 6.69 1720 15700 (1969) 88 (1964) 949 136 190 239 255 456 1050 1150 1630 3370
2021-01-30 14:30 6.70 1730 15700 (1969) 88 (1964) 949 136 190 239 255 456 1050 1150 1630 3370
2021-01-30 13:30 6.62 1650 15700 (1969) 88 (1964) 949 136 190 239 255 456 1050 1150 1630 3370
2021-01-30 12:30 6.68 1710 15700 (1969) 88 (1964) 949 136 190 239 255 456 1050 1150 1630 3370
2021-01-30 11:30 6.74 1780 15700 (1969) 88 (1964) 949 136 190 239 255 456 1050 1150 1630 3370
2021-01-30 10:30 6.75 1790 15700 (1969) 88 (1964) 949 136 190 239 255 456 1050 1150 1630 3370
2021-01-30 09:30 6.70 1730 15700 (1969) 88 (1964) 949 136 190 239 255 456 1050 1150 1630 3370
2021-01-30 08:30 6.72 1760 15700 (1969) 88 (1964) 949 136 190 239 255 456 1050 1150 1630 3370
2021-01-30 07:30 6.73 1770 15700 (1969) 88 (1964) 949 136 190 239 255 456 1050 1150 1630 3370
2021-01-30 06:30 6.72 1760 15700 (1969) 88 (1964) 949 136 190 239 255 456 1050 1150 1630 3370
2021-01-30 05:30 6.77 1810 15700 (1969) 88 (1964) 949 136 190 239 255 456 1050 1150 1630 3370
2021-01-30 04:30 6.76 1800 15700 (1969) 88 (1964) 949 136 190 239 255 456 1050 1150 1630 3370
2021-01-30 03:30 6.74 1780 15700 (1969) 88 (1964) 949 136 190 239 255 456 1050 1150 1630 3370
2021-01-30 02:30 6.76 1800 15700 (1969) 88 (1964) 949 136 190 239 255 456 1050 1150 1630 3370
2021-01-30 01:30 6.76 1800 15700 (1969) 88 (1964) 949 136 190 239 255 456 1050 1150 1630 3370
2021-01-30 00:30 6.79 1830 15700 (1969) 88 (1964) 949 136 190 239 255 456 1050 1150 1630 3370
2021-01-29 23:30 6.79 1830 6180 (1949) 88 (1964) 758 134 195 238 248 477 1070 1190 1600 2090
2021-01-29 22:30 6.76 1800 6180 (1949) 88 (1964) 758 134 195 238 248 477 1070 1190 1600 2090
2021-01-29 21:30 6.80 1850 6180 (1949) 88 (1964) 758 134 195 238 248 477 1070 1190 1600 2090
2021-01-29 20:30 6.77 1810 6180 (1949) 88 (1964) 758 134 195 238 248 477 1070 1190 1600 2090
2021-01-29 19:30 6.81 1860 6180 (1949) 88 (1964) 758 134 195 238 248 477 1070 1190 1600 2090
2021-01-29 18:30 6.80 1850 6180 (1949) 88 (1964) 758 134 195 238 248 477 1070 1190 1600 2090
2021-01-29 17:30 6.82 1870 6180 (1949) 88 (1964) 758 134 195 238 248 477 1070 1190 1600 2090
2021-01-29 16:30 6.82 1870 6180 (1949) 88 (1964) 758 134 195 238 248 477 1070 1190 1600 2090
2021-01-29 15:30 6.84 1890 6180 (1949) 88 (1964) 758 134 195 238 248 477 1070 1190 1600 2090
2021-01-29 14:30 6.83 1880 6180 (1949) 88 (1964) 758 134 195 238 248 477 1070 1190 1600 2090
2021-01-29 13:30 6.83 1880 6180 (1949) 88 (1964) 758 134 195 238 248 477 1070 1190 1600 2090
2021-01-29 12:30 6.87 1930 6180 (1949) 88 (1964) 758 134 195 238 248 477 1070 1190 1600 2090
2021-01-29 11:30 6.93 2000 6180 (1949) 88 (1964) 758 134 195 238 248 477 1070 1190 1600 2090
2021-01-29 10:30 6.93 2000 6180 (1949) 88 (1964) 758 134 195 238 248 477 1070 1190 1600 2090
2021-01-29 09:30 6.94 2010 6180 (1949) 88 (1964) 758 134 195 238 248 477 1070 1190 1600 2090
2021-01-29 08:30 7.05 2150 6180 (1949) 88 (1964) 758 134 195 238 248 477 1070 1190 1600 2090
2021-01-29 07:30 7.06 2160 6180 (1949) 88 (1964) 758 134 195 238 248 477 1070 1190 1600 2090
2021-01-29 06:30 7.06 2160 6180 (1949) 88 (1964) 758 134 195 238 248 477 1070 1190 1600 2090
2021-01-29 05:30 7.13 2270 6180 (1949) 88 (1964) 758 134 195 238 248 477 1070 1190 1600 2090
2021-01-29 04:30 7.11 2240 6180 (1949) 88 (1964) 758 134 195 238 248 477 1070 1190 1600 2090
2021-01-29 03:30 7.14 2280 6180 (1949) 88 (1964) 758 134 195 238 248 477 1070 1190 1600 2090
2021-01-29 02:30 7.12 2250 6180 (1949) 88 (1964) 758 134 195 238 248 477 1070 1190 1600 2090
2021-01-29 01:30 7.15 2290 6180 (1949) 88 (1964) 758 134 195 238 248 477 1070 1190 1600 2090
2021-01-29 00:30 7.17 2320 6180 (1949) 88 (1964) 758 134 195 238 248 477 1070 1190 1600 2090
2021-01-28 23:30 7.17 2320 6180 (1949) 86 (1964) 724 126 188 236 257 484 1020 1110 1460 1640
2021-01-28 22:30 7.14 2280 6180 (1949) 86 (1964) 724 126 188 236 257 484 1020 1110 1460 1640
2021-01-28 21:30 7.16 2310 6180 (1949) 86 (1964) 724 126 188 236 257 484 1020 1110 1460 1640
2021-01-28 20:30 7.19 2350 6180 (1949) 86 (1964) 724 126 188 236 257 484 1020 1110 1460 1640
2021-01-28 19:30 7.22 2400 6180 (1949) 86 (1964) 724 126 188 236 257 484 1020 1110 1460 1640
2021-01-28 18:30 7.22 2400 6180 (1949) 86 (1964) 724 126 188 236 257 484 1020 1110 1460 1640
2021-01-28 17:30 7.25 2440 6180 (1949) 86 (1964) 724 126 188 236 257 484 1020 1110 1460 1640
2021-01-28 16:30 7.26 2460 6180 (1949) 86 (1964) 724 126 188 236 257 484 1020 1110 1460 1640
2021-01-28 15:30 7.29 2500 6180 (1949) 86 (1964) 724 126 188 236 257 484 1020 1110 1460 1640
2021-01-28 14:30 7.31 2530 6180 (1949) 86 (1964) 724 126 188 236 257 484 1020 1110 1460 1640
2021-01-28 13:30 7.36 2610 6180 (1949) 86 (1964) 724 126 188 236 257 484 1020 1110 1460 1640
2021-01-28 12:30 7.36 2610 6180 (1949) 86 (1964) 724 126 188 236 257 484 1020 1110 1460 1640
2021-01-28 11:30 7.42 2710 6180 (1949) 86 (1964) 724 126 188 236 257 484 1020 1110 1460 1640
2021-01-28 10:30 7.44 2740 6180 (1949) 86 (1964) 724 126 188 236 257 484 1020 1110 1460 1640
2021-01-28 09:30 7.51 2850 6180 (1949) 86 (1964) 724 126 188 236 257 484 1020 1110 1460 1640
2021-01-28 08:30 7.51 2850 6180 (1949) 86 (1964) 724 126 188 236 257 484 1020 1110 1460 1640
2021-01-28 07:30 7.59 2960 6180 (1949) 86 (1964) 724 126 188 236 257 484 1020 1110 1460 1640
2021-01-28 06:30 7.58 2940 6180 (1949) 86 (1964) 724 126 188 236 257 484 1020 1110 1460 1640
2021-01-28 05:30 7.63 3010 6180 (1949) 86 (1964) 724 126 188 236 257 484 1020 1110 1460 1640
2021-01-28 04:30 7.70 3110 6180 (1949) 86 (1964) 724 126 188 236 257 484 1020 1110 1460 1640
2021-01-28 03:30 7.69 3090 6180 (1949) 86 (1964) 724 126 188 236 257 484 1020 1110 1460 1640
2021-01-28 02:30 7.73 3150 6180 (1949) 86 (1964) 724 126 188 236 257 484 1020 1110 1460 1640
2021-01-28 01:30 7.72 3140 6180 (1949) 86 (1964) 724 126 188 236 257 484 1020 1110 1460 1640
2021-01-28 00:30 7.77 3210 6180 (1949) 86 (1964) 724 126 188 236 257 484 1020 1110 1460 1640
2021-01-27 23:30 7.80 3250 4760 (1949) 82 (1964) 728 119 186 229 261 471 978 1150 1540 1950
2021-01-27 22:30 7.81 3270 4760 (1949) 82 (1964) 728 119 186 229 261 471 978 1150 1540 1950
2021-01-27 21:30 7.88 3370 4760 (1949) 82 (1964) 728 119 186 229 261 471 978 1150 1540 1950
2021-01-27 20:30 7.89 3380 4760 (1949) 82 (1964) 728 119 186 229 261 471 978 1150 1540 1950
2021-01-27 19:30 7.93 3440 4760 (1949) 82 (1964) 728 119 186 229 261 471 978 1150 1540 1950
2021-01-27 18:30 8.03 3590 4760 (1949) 82 (1964) 728 119 186 229 261 471 978 1150 1540 1950
2021-01-27 17:30 8.01 3560 4760 (1949) 82 (1964) 728 119 186 229 261 471 978 1150 1540 1950
2021-01-27 16:30 8.04 3600 4760 (1949) 82 (1964) 728 119 186 229 261 471 978 1150 1540 1950
2021-01-27 15:30 8.09 3680 4760 (1949) 82 (1964) 728 119 186 229 261 471 978 1150 1540 1950
2021-01-27 14:30 8.16 3780 4760 (1949) 82 (1964) 728 119 186 229 261 471 978 1150 1540 1950
2021-01-27 13:30 8.20 3840 4760 (1949) 82 (1964) 728 119 186 229 261 471 978 1150 1540 1950
2021-01-27 12:30 8.30 3990 4760 (1949) 82 (1964) 728 119 186 229 261 471 978 1150 1540 1950
2021-01-27 11:30 8.34 4050 4760 (1949) 82 (1964) 728 119 186 229 261 471 978 1150 1540 1950
2021-01-27 10:30 8.42 4170 4760 (1949) 82 (1964) 728 119 186 229 261 471 978 1150 1540 1950
2021-01-27 09:30 8.49 4280 4760 (1949) 82 (1964) 728 119 186 229 261 471 978 1150 1540 1950
2021-01-27 08:30 8.55 4380 4760 (1949) 82 (1964) 728 119 186 229 261 471 978 1150 1540 1950
2021-01-27 07:30 8.63 4500 4760 (1949) 82 (1964) 728 119 186 229 261 471 978 1150 1540 1950
2021-01-27 06:30 8.67 4560 4760 (1949) 82 (1964) 728 119 186 229 261 471 978 1150 1540 1950
2021-01-27 05:30 8.76 4700 4760 (1949) 82 (1964) 728 119 186 229 261 471 978 1150 1540 1950
2021-01-27 04:30 8.87 4870 4760 (1949) 82 (1964) 728 119 186 229 261 471 978 1150 1540 1950
2021-01-27 03:30 8.93 4970 4760 (1949) 82 (1964) 728 119 186 229 261 471 978 1150 1540 1950
2021-01-27 02:30 9.06 5170 4760 (1949) 82 (1964) 728 119 186 229 261 471 978 1150 1540 1950
2021-01-27 01:30 9.15 5310 4760 (1949) 82 (1964) 728 119 186 229 261 471 978 1150 1540 1950
2021-01-27 00:30 9.30 5540 4760 (1949) 82 (1964) 728 119 186 229 261 471 978 1150 1540 1950
2021-01-26 23:30 9.40 5700 7300 (1949) 86 (1956) 769 120 178 219 265 477 894 1110 1640 2250
2021-01-26 22:30 9.53 5910 7300 (1949) 86 (1956) 769 120 178 219 265 477 894 1110 1640 2250
2021-01-26 21:30 9.69 6220 7300 (1949) 86 (1956) 769 120 178 219 265 477 894 1110 1640 2250
2021-01-26 20:30 9.83 6500 7300 (1949) 86 (1956) 769 120 178 219 265 477 894 1110 1640 2250
2021-01-26 19:30 10.02 6880 7300 (1949) 86 (1956) 769 120 178 219 265 477 894 1110 1640 2250
2021-01-26 18:30 10.17 7190 7300 (1949) 86 (1956) 769 120 178 219 265 477 894 1110 1640 2250
2021-01-26 17:30 10.34 7560 7300 (1949) 86 (1956) 769 120 178 219 265 477 894 1110 1640 2250
2021-01-26 16:30 10.48 7860 7300 (1949) 86 (1956) 769 120 178 219 265 477 894 1110 1640 2250
2021-01-26 15:30 10.57 8060 7300 (1949) 86 (1956) 769 120 178 219 265 477 894 1110 1640 2250
2021-01-26 14:30 10.63 8200 7300 (1949) 86 (1956) 769 120 178 219 265 477 894 1110 1640 2250
2021-01-26 13:30 10.62 8170 7300 (1949) 86 (1956) 769 120 178 219 265 477 894 1110 1640 2250
2021-01-26 12:30 10.59 8110 7300 (1949) 86 (1956) 769 120 178 219 265 477 894 1110 1640 2250
2021-01-26 11:30 10.50 7910 7300 (1949) 86 (1956) 769 120 178 219 265 477 894 1110 1640 2250
2021-01-26 10:30 10.35 7580 7300 (1949) 86 (1956) 769 120 178 219 265 477 894 1110 1640 2250
2021-01-26 09:30 10.17 7190 7300 (1949) 86 (1956) 769 120 178 219 265 477 894 1110 1640 2250
2021-01-26 08:30 9.95 6740 7300 (1949) 86 (1956) 769 120 178 219 265 477 894 1110 1640 2250
2021-01-26 07:30 9.74 6320 7300 (1949) 86 (1956) 769 120 178 219 265 477 894 1110 1640 2250
2021-01-26 06:30 9.57 5990 7300 (1949) 86 (1956) 769 120 178 219 265 477 894 1110 1640 2250
2021-01-26 05:30 9.42 5730 7300 (1949) 86 (1956) 769 120 178 219 265 477 894 1110 1640 2250
2021-01-26 04:30 9.31 5560 7300 (1949) 86 (1956) 769 120 178 219 265 477 894 1110 1640 2250
2021-01-26 03:30 9.20 5390 7300 (1949) 86 (1956) 769 120 178 219 265 477 894 1110 1640 2250
2021-01-26 02:30 9.08 5200 7300 (1949) 86 (1956) 769 120 178 219 265 477 894 1110 1640 2250
2021-01-26 01:30 8.94 4980 7300 (1949) 86 (1956) 769 120 178 219 265 477 894 1110 1640 2250
2021-01-26 00:30 8.80 4760 7300 (1949) 86 (1956) 769 120 178 219 265 477 894 1110 1640 2250
2021-01-25 23:30 8.51 4310 3900 (1949) 84 (1956) 754 107 176 216 269 470 954 1170 1680 2580
2021-01-25 22:30 8.25 3910 3900 (1949) 84 (1956) 754 107 176 216 269 470 954 1170 1680 2580
2021-01-25 21:30 8.00 3550 3900 (1949) 84 (1956) 754 107 176 216 269 470 954 1170 1680 2580
2021-01-25 20:30 7.77 3210 3900 (1949) 84 (1956) 754 107 176 216 269 470 954 1170 1680 2580
2021-01-25 19:30 7.73 3150 3900 (1949) 84 (1956) 754 107 176 216 269 470 954 1170 1680 2580
2021-01-25 18:30 7.68 3080 3900 (1949) 84 (1956) 754 107 176 216 269 470 954 1170 1680 2580
2021-01-25 17:30 7.71 3120 3900 (1949) 84 (1956) 754 107 176 216 269 470 954 1170 1680 2580
2021-01-25 16:30 7.67 3070 3900 (1949) 84 (1956) 754 107 176 216 269 470 954 1170 1680 2580
2021-01-25 15:30 7.60 2970 3900 (1949) 84 (1956) 754 107 176 216 269 470 954 1170 1680 2580
2021-01-25 14:30 7.54 2890 3900 (1949) 84 (1956) 754 107 176 216 269 470 954 1170 1680 2580
2021-01-25 13:30 7.42 2710 3900 (1949) 84 (1956) 754 107 176 216 269 470 954 1170 1680 2580
2021-01-25 12:30 7.33 2560 3900 (1949) 84 (1956) 754 107 176 216 269 470 954 1170 1680 2580
2021-01-25 11:30 7.20 2370 3900 (1949) 84 (1956) 754 107 176 216 269 470 954 1170 1680 2580
2021-01-25 10:30 6.99 2070 3900 (1949) 84 (1956) 754 107 176 216 269 470 954 1170 1680 2580
2021-01-25 09:30 6.62 1650 3900 (1949) 84 (1956) 754 107 176 216 269 470 954 1170 1680 2580
2021-01-25 08:30 6.04 1110 3900 (1949) 84 (1956) 754 107 176 216 269 470 954 1170 1680 2580
2021-01-25 07:30 5.76 896 3900 (1949) 84 (1956) 754 107 176 216 269 470 954 1170 1680 2580
2021-01-25 06:30 5.74 882 3900 (1949) 84 (1956) 754 107 176 216 269 470 954 1170 1680 2580
2021-01-25 05:30 5.75 889 3900 (1949) 84 (1956) 754 107 176 216 269 470 954 1170 1680 2580
2021-01-25 04:30 5.60 788 3900 (1949) 84 (1956) 754 107 176 216 269 470 954 1170 1680 2580
2021-01-25 03:30 5.58 775 3900 (1949) 84 (1956) 754 107 176 216 269 470 954 1170 1680 2580
2021-01-25 02:30 5.57 768 3900 (1949) 84 (1956) 754 107 176 216 269 470 954 1170 1680 2580
2021-01-25 01:30 5.56 762 3900 (1949) 84 (1956) 754 107 176 216 269 470 954 1170 1680 2580
2021-01-25 00:30 5.52 737 3900 (1949) 84 (1956) 754 107 176 216 269 470 954 1170 1680 2580
2021-01-24 23:30 5.52 737 5230 (1973) 82 (1956) 738 108 184 217 267 439 973 1210 1650 2130
2021-01-24 22:30 5.52 737 5230 (1973) 82 (1956) 738 108 184 217 267 439 973 1210 1650 2130
2021-01-24 21:30 5.51 730 5230 (1973) 82 (1956) 738 108 184 217 267 439 973 1210 1650 2130
2021-01-24 20:30 5.53 743 5230 (1973) 82 (1956) 738 108 184 217 267 439 973 1210 1650 2130
2021-01-24 19:30 5.54 749 5230 (1973) 82 (1956) 738 108 184 217 267 439 973 1210 1650 2130
2021-01-24 18:30 5.53 743 5230 (1973) 82 (1956) 738 108 184 217 267 439 973 1210 1650 2130
2021-01-24 17:30 5.53 743 5230 (1973) 82 (1956) 738 108 184 217 267 439 973 1210 1650 2130
2021-01-24 16:30 5.53 743 5230 (1973) 82 (1956) 738 108 184 217 267 439 973 1210 1650 2130
2021-01-24 15:30 5.53 743 5230 (1973) 82 (1956) 738 108 184 217 267 439 973 1210 1650 2130
2021-01-24 14:30 5.53 743 5230 (1973) 82 (1956) 738 108 184 217 267 439 973 1210 1650 2130
2021-01-24 13:30 5.53 743 5230 (1973) 82 (1956) 738 108 184 217 267 439 973 1210 1650 2130
2021-01-24 12:30 5.52 737 5230 (1973) 82 (1956) 738 108 184 217 267 439 973 1210 1650 2130
2021-01-24 11:30 5.54 749 5230 (1973) 82 (1956) 738 108 184 217 267 439 973 1210 1650 2130
2021-01-24 10:30 5.53 743 5230 (1973) 82 (1956) 738 108 184 217 267 439 973 1210 1650 2130
2021-01-24 09:30 5.55 756 5230 (1973) 82 (1956) 738 108 184 217 267 439 973 1210 1650 2130
2021-01-24 08:30 5.55 756 5230 (1973) 82 (1956) 738 108 184 217 267 439 973 1210 1650 2130
2021-01-24 07:30 5.54 749 5230 (1973) 82 (1956) 738 108 184 217 267 439 973 1210 1650 2130
2021-01-24 06:30 5.54 749 5230 (1973) 82 (1956) 738 108 184 217 267 439 973 1210 1650 2130
2021-01-24 05:30 5.55 756 5230 (1973) 82 (1956) 738 108 184 217 267 439 973 1210 1650 2130
2021-01-24 04:30 5.55 756 5230 (1973) 82 (1956) 738 108 184 217 267 439 973 1210 1650 2130
2021-01-24 03:30 5.55 756 5230 (1973) 82 (1956) 738 108 184 217 267 439 973 1210 1650 2130
2021-01-24 02:30 5.56 762 5230 (1973) 82 (1956) 738 108 184 217 267 439 973 1210 1650 2130
2021-01-24 01:30 5.55 756 5230 (1973) 82 (1956) 738 108 184 217 267 439 973 1210 1650 2130
2021-01-24 00:30 5.55 756 5230 (1973) 82 (1956) 738 108 184 217 267 439 973 1210 1650 2130
2021-01-23 23:30 5.56 762 8380 (1973) 78 (1956) 810 108 173 219 266 420 1040 1180 1900 2470
2021-01-23 22:30 5.55 756 8380 (1973) 78 (1956) 810 108 173 219 266 420 1040 1180 1900 2470
2021-01-23 21:30 5.55 756 8380 (1973) 78 (1956) 810 108 173 219 266 420 1040 1180 1900 2470
2021-01-23 20:30 5.56 762 8380 (1973) 78 (1956) 810 108 173 219 266 420 1040 1180 1900 2470
2021-01-23 19:30 5.55 756 8380 (1973) 78 (1956) 810 108 173 219 266 420 1040 1180 1900 2470
2021-01-23 18:30 5.56 762 8380 (1973) 78 (1956) 810 108 173 219 266 420 1040 1180 1900 2470
2021-01-23 17:30 5.56 762 8380 (1973) 78 (1956) 810 108 173 219 266 420 1040 1180 1900 2470
2021-01-23 16:30 5.56 762 8380 (1973) 78 (1956) 810 108 173 219 266 420 1040 1180 1900 2470
2021-01-23 15:30 5.56 762 8380 (1973) 78 (1956) 810 108 173 219 266 420 1040 1180 1900 2470
2021-01-23 14:30 5.58 775 8380 (1973) 78 (1956) 810 108 173 219 266 420 1040 1180 1900 2470
2021-01-23 13:30 5.57 768 8380 (1973) 78 (1956) 810 108 173 219 266 420 1040 1180 1900 2470
2021-01-23 12:30 5.57 768 8380 (1973) 78 (1956) 810 108 173 219 266 420 1040 1180 1900 2470
2021-01-23 11:30 5.59 781 8380 (1973) 78 (1956) 810 108 173 219 266 420 1040 1180 1900 2470
2021-01-23 10:30 5.56 762 8380 (1973) 78 (1956) 810 108 173 219 266 420 1040 1180 1900 2470
2021-01-23 09:30 5.57 768 8380 (1973) 78 (1956) 810 108 173 219 266 420 1040 1180 1900 2470
2021-01-23 08:30 5.58 775 8380 (1973) 78 (1956) 810 108 173 219 266 420 1040 1180 1900 2470
2021-01-23 07:30 5.59 781 8380 (1973) 78 (1956) 810 108 173 219 266 420 1040 1180 1900 2470
2021-01-23 06:30 5.57 768 8380 (1973) 78 (1956) 810 108 173 219 266 420 1040 1180 1900 2470
2021-01-23 05:30 5.59 781 8380 (1973) 78 (1956) 810 108 173 219 266 420 1040 1180 1900 2470
2021-01-23 04:30 5.57 768 8380 (1973) 78 (1956) 810 108 173 219 266 420 1040 1180 1900 2470
2021-01-23 03:30 5.59 781 8380 (1973) 78 (1956) 810 108 173 219 266 420 1040 1180 1900 2470
2021-01-23 02:30 5.59 781 8380 (1973) 78 (1956) 810 108 173 219 266 420 1040 1180 1900 2470
2021-01-23 01:30 5.57 768 8380 (1973) 78 (1956) 810 108 173 219 266 420 1040 1180 1900 2470
2021-01-23 00:30 5.59 781 8380 (1973) 78 (1956) 810 108 173 219 266 420 1040 1180 1900 2470
2021-01-22 23:30 5.59 781 6560 (1973) 73 (1956) 800 106 150 215 265 419 1050 1210 2010 2740
2021-01-22 22:30 5.58 775 6560 (1973) 73 (1956) 800 106 150 215 265 419 1050 1210 2010 2740
2021-01-22 21:30 5.60 788 6560 (1973) 73 (1956) 800 106 150 215 265 419 1050 1210 2010 2740
2021-01-22 20:30 5.60 788 6560 (1973) 73 (1956) 800 106 150 215 265 419 1050 1210 2010 2740
2021-01-22 19:30 5.59 781 6560 (1973) 73 (1956) 800 106 150 215 265 419 1050 1210 2010 2740
2021-01-22 18:30 5.59 781 6560 (1973) 73 (1956) 800 106 150 215 265 419 1050 1210 2010 2740
2021-01-22 17:30 5.58 775 6560 (1973) 73 (1956) 800 106 150 215 265 419 1050 1210 2010 2740
2021-01-22 16:30 5.59 781 6560 (1973) 73 (1956) 800 106 150 215 265 419 1050 1210 2010 2740
2021-01-22 15:30 5.58 775 6560 (1973) 73 (1956) 800 106 150 215 265 419 1050 1210 2010 2740
2021-01-22 14:30 5.59 781 6560 (1973) 73 (1956) 800 106 150 215 265 419 1050 1210 2010 2740
2021-01-22 13:30 5.59 781 6560 (1973) 73 (1956) 800 106 150 215 265 419 1050 1210 2010 2740
2021-01-22 12:30 5.58 775 6560 (1973) 73 (1956) 800 106 150 215 265 419 1050 1210 2010 2740
2021-01-22 11:30 5.59 781 6560 (1973) 73 (1956) 800 106 150 215 265 419 1050 1210 2010 2740
2021-01-22 10:30 5.59 781 6560 (1973) 73 (1956) 800 106 150 215 265 419 1050 1210 2010 2740
2021-01-22 09:30 5.59 781 6560 (1973) 73 (1956) 800 106 150 215 265 419 1050 1210 2010 2740
2021-01-22 08:30 5.59 781 6560 (1973) 73 (1956) 800 106 150 215 265 419 1050 1210 2010 2740
2021-01-22 07:30 5.60 788 6560 (1973) 73 (1956) 800 106 150 215 265 419 1050 1210 2010 2740
2021-01-22 06:30 5.60 788 6560 (1973) 73 (1956) 800 106 150 215 265 419 1050 1210 2010 2740
2021-01-22 05:30 5.60 788 6560 (1973) 73 (1956) 800 106 150 215 265 419 1050 1210 2010 2740
2021-01-22 04:30 5.59 781 6560 (1973) 73 (1956) 800 106 150 215 265 419 1050 1210 2010 2740
2021-01-22 03:30 5.62 801 6560 (1973) 73 (1956) 800 106 150 215 265 419 1050 1210 2010 2740
2021-01-22 02:30 5.61 794 6560 (1973) 73 (1956) 800 106 150 215 265 419 1050 1210 2010 2740
2021-01-22 01:30 5.61 794 6560 (1973) 73 (1956) 800 106 150 215 265 419 1050 1210 2010 2740
2021-01-22 00:30 5.61 794 6560 (1973) 73 (1956) 800 106 150 215 265 419 1050 1210 2010 2740
2021-01-21 23:30 5.60 788 6100 (1990) 71 (1956) 840 99 149 213 261 425 1080 1400 2150 3090
2021-01-21 22:30 5.62 801 6100 (1990) 71 (1956) 840 99 149 213 261 425 1080 1400 2150 3090
2021-01-21 21:30 5.60 788 6100 (1990) 71 (1956) 840 99 149 213 261 425 1080 1400 2150 3090
2021-01-21 20:30 5.60 788 6100 (1990) 71 (1956) 840 99 149 213 261 425 1080 1400 2150 3090
2021-01-21 19:30 5.60 788 6100 (1990) 71 (1956) 840 99 149 213 261 425 1080 1400 2150 3090
2021-01-21 18:30 5.60 788 6100 (1990) 71 (1956) 840 99 149 213 261 425 1080 1400 2150 3090
2021-01-21 17:30 5.61 794 6100 (1990) 71 (1956) 840 99 149 213 261 425 1080 1400 2150 3090
2021-01-21 16:30 5.59 781 6100 (1990) 71 (1956) 840 99 149 213 261 425 1080 1400 2150 3090
2021-01-21 15:30 5.60 788 6100 (1990) 71 (1956) 840 99 149 213 261 425 1080 1400 2150 3090
2021-01-21 14:30 5.60 788 6100 (1990) 71 (1956) 840 99 149 213 261 425 1080 1400 2150 3090
2021-01-21 13:30 5.61 794 6100 (1990) 71 (1956) 840 99 149 213 261 425 1080 1400 2150 3090
2021-01-21 12:30 5.61 794 6100 (1990) 71 (1956) 840 99 149 213 261 425 1080 1400 2150 3090
2021-01-21 11:30 5.62 801 6100 (1990) 71 (1956) 840 99 149 213 261 425 1080 1400 2150 3090
2021-01-21 10:30 5.63 807 6100 (1990) 71 (1956) 840 99 149 213 261 425 1080 1400 2150 3090
2021-01-21 09:30 5.63 807 6100 (1990) 71 (1956) 840 99 149 213 261 425 1080 1400 2150 3090
2021-01-21 08:30 5.62 801 6100 (1990) 71 (1956) 840 99 149 213 261 425 1080 1400 2150 3090
2021-01-21 07:30 5.63 807 6100 (1990) 71 (1956) 840 99 149 213 261 425 1080 1400 2150 3090
2021-01-21 06:30 5.61 794 6100 (1990) 71 (1956) 840 99 149 213 261 425 1080 1400 2150 3090
2021-01-21 05:30 5.63 807 6100 (1990) 71 (1956) 840 99 149 213 261 425 1080 1400 2150 3090
2021-01-21 04:30 5.63 807 6100 (1990) 71 (1956) 840 99 149 213 261 425 1080 1400 2150 3090
2021-01-21 03:30 5.63 807 6100 (1990) 71 (1956) 840 99 149 213 261 425 1080 1400 2150 3090
2021-01-21 02:30 5.64 814 6100 (1990) 71 (1956) 840 99 149 213 261 425 1080 1400 2150 3090
2021-01-21 01:30 5.63 807 6100 (1990) 71 (1956) 840 99 149 213 261 425 1080 1400 2150 3090
2021-01-21 00:30 5.64 814 6100 (1990) 71 (1956) 840 99 149 213 261 425 1080 1400 2150 3090
2021-01-20 23:30 5.65 821 4810 (1990) 69 (1956) 876 99 151 209 251 430 1150 1500 2150 3500
2021-01-20 22:30 5.64 814 4810 (1990) 69 (1956) 876 99 151 209 251 430 1150 1500 2150 3500
2021-01-20 21:30 5.64 814 4810 (1990) 69 (1956) 876 99 151 209 251 430 1150 1500 2150 3500
2021-01-20 20:30 5.65 821 4810 (1990) 69 (1956) 876 99 151 209 251 430 1150 1500 2150 3500
2021-01-20 19:30 5.65 821 4810 (1990) 69 (1956) 876 99 151 209 251 430 1150 1500 2150 3500
2021-01-20 18:30 5.65 821 4810 (1990) 69 (1956) 876 99 151 209 251 430 1150 1500 2150 3500
2021-01-20 17:30 5.65 821 4810 (1990) 69 (1956) 876 99 151 209 251 430 1150 1500 2150 3500
2021-01-20 16:30 5.65 821 4810 (1990) 69 (1956) 876 99 151 209 251 430 1150 1500 2150 3500
2021-01-20 15:30 5.66 827 4810 (1990) 69 (1956) 876 99 151 209 251 430 1150 1500 2150 3500
2021-01-20 14:30 5.65 821 4810 (1990) 69 (1956) 876 99 151 209 251 430 1150 1500 2150 3500
2021-01-20 13:30 5.65 821 4810 (1990) 69 (1956) 876 99 151 209 251 430 1150 1500 2150 3500
2021-01-20 12:30 5.66 827 4810 (1990) 69 (1956) 876 99 151 209 251 430 1150 1500 2150 3500
2021-01-20 11:30 5.66 827 4810 (1990) 69 (1956) 876 99 151 209 251 430 1150 1500 2150 3500
2021-01-20 10:30 5.67 834 4810 (1990) 69 (1956) 876 99 151 209 251 430 1150 1500 2150 3500
2021-01-20 09:30 5.66 827 4810 (1990) 69 (1956) 876 99 151 209 251 430 1150 1500 2150 3500
2021-01-20 08:30 5.68 841 4810 (1990) 69 (1956) 876 99 151 209 251 430 1150 1500 2150 3500
2021-01-20 07:30 5.66 827 4810 (1990) 69 (1956) 876 99 151 209 251 430 1150 1500 2150 3500
2021-01-20 06:30 5.67 834 4810 (1990) 69 (1956) 876 99 151 209 251 430 1150 1500 2150 3500
2021-01-20 05:30 5.67 834 4810 (1990) 69 (1956) 876 99 151 209 251 430 1150 1500 2150 3500
2021-01-20 04:30 5.67 834 4810 (1990) 69 (1956) 876 99 151 209 251 430 1150 1500 2150 3500
2021-01-20 03:30 5.68 841 4810 (1990) 69 (1956) 876 99 151 209 251 430 1150 1500 2150 3500
2021-01-20 02:30 5.68 841 4810 (1990) 69 (1956) 876 99 151 209 251 430 1150 1500 2150 3500
2021-01-20 01:30 5.68 841 4810 (1990) 69 (1956) 876 99 151 209 251 430 1150 1500 2150 3500
2021-01-20 00:30 5.66 827 4810 (1990) 69 (1956) 876 99 151 209 251 430 1150 1500 2150 3500
2021-01-19 23:30 5.69 848 6240 (2020) 69 (1956) 834 99 149 205 249 457 1120 1510 2080 2460
2021-01-19 22:30 5.68 841 6240 (2020) 69 (1956) 834 99 149 205 249 457 1120 1510 2080 2460
2021-01-19 21:30 5.69 848 6240 (2020) 69 (1956) 834 99 149 205 249 457 1120 1510 2080 2460
2021-01-19 20:30 5.68 841 6240 (2020) 69 (1956) 834 99 149 205 249 457 1120 1510 2080 2460
2021-01-19 19:30 5.71 861 6240 (2020) 69 (1956) 834 99 149 205 249 457 1120 1510 2080 2460
2021-01-19 18:30 5.70 855 6240 (2020) 69 (1956) 834 99 149 205 249 457 1120 1510 2080 2460
2021-01-19 17:30 5.69 848 6240 (2020) 69 (1956) 834 99 149 205 249 457 1120 1510 2080 2460
2021-01-19 16:30 5.69 848 6240 (2020) 69 (1956) 834 99 149 205 249 457 1120 1510 2080 2460
2021-01-19 15:30 5.69 848 6240 (2020) 69 (1956) 834 99 149 205 249 457 1120 1510 2080 2460
2021-01-19 14:30 5.68 841 6240 (2020) 69 (1956) 834 99 149 205 249 457 1120 1510 2080 2460
2021-01-19 13:30 5.68 841 6240 (2020) 69 (1956) 834 99 149 205 249 457 1120 1510 2080 2460
2021-01-19 12:30 5.70 855 6240 (2020) 69 (1956) 834 99 149 205 249 457 1120 1510 2080 2460
2021-01-19 11:30 5.69 848 6240 (2020) 69 (1956) 834 99 149 205 249 457 1120 1510 2080 2460
2021-01-19 10:30 5.70 855 6240 (2020) 69 (1956) 834 99 149 205 249 457 1120 1510 2080 2460
2021-01-19 09:30 5.70 855 6240 (2020) 69 (1956) 834 99 149 205 249 457 1120 1510 2080 2460
2021-01-19 08:30 5.74 882 6240 (2020) 69 (1956) 834 99 149 205 249 457 1120 1510 2080 2460
2021-01-19 07:30 5.71 861 6240 (2020) 69 (1956) 834 99 149 205 249 457 1120 1510 2080 2460
2021-01-19 06:30 5.73 875 6240 (2020) 69 (1956) 834 99 149 205 249 457 1120 1510 2080 2460
2021-01-19 05:30 5.72 868 6240 (2020) 69 (1956) 834 99 149 205 249 457 1120 1510 2080 2460
2021-01-19 04:30 5.74 882 6240 (2020) 69 (1956) 834 99 149 205 249 457 1120 1510 2080 2460
2021-01-19 03:30 5.72 868 6240 (2020) 69 (1956) 834 99 149 205 249 457 1120 1510 2080 2460
2021-01-19 02:30 5.73 875 6240 (2020) 69 (1956) 834 99 149 205 249 457 1120 1510 2080 2460
2021-01-19 01:30 5.73 875 6240 (2020) 69 (1956) 834 99 149 205 249 457 1120 1510 2080 2460
2021-01-19 00:30 5.73 875 6240 (2020) 69 (1956) 834 99 149 205 249 457 1120 1510 2080 2460
2021-01-18 23:30 5.74 882 4050 (2020) 67 (1956) 785 98 154 206 251 468 1000 1280 2070 2790
2021-01-18 22:30 5.73 875 4050 (2020) 67 (1956) 785 98 154 206 251 468 1000 1280 2070 2790
2021-01-18 21:30 5.74 882 4050 (2020) 67 (1956) 785 98 154 206 251 468 1000 1280 2070 2790
2021-01-18 20:30 5.73 875 4050 (2020) 67 (1956) 785 98 154 206 251 468 1000 1280 2070 2790
2021-01-18 19:30 5.73 875 4050 (2020) 67 (1956) 785 98 154 206 251 468 1000 1280 2070 2790
2021-01-18 18:30 5.74 882 4050 (2020) 67 (1956) 785 98 154 206 251 468 1000 1280 2070 2790
2021-01-18 17:30 5.73 875 4050 (2020) 67 (1956) 785 98 154 206 251 468 1000 1280 2070 2790
2021-01-18 16:30 5.73 875 4050 (2020) 67 (1956) 785 98 154 206 251 468 1000 1280 2070 2790
2021-01-18 15:30 5.75 889 4050 (2020) 67 (1956) 785 98 154 206 251 468 1000 1280 2070 2790
2021-01-18 14:30 5.74 882 4050 (2020) 67 (1956) 785 98 154 206 251 468 1000 1280 2070 2790
2021-01-18 13:30 5.74 882 4050 (2020) 67 (1956) 785 98 154 206 251 468 1000 1280 2070 2790
2021-01-18 12:30 5.75 889 4050 (2020) 67 (1956) 785 98 154 206 251 468 1000 1280 2070 2790
2021-01-18 11:30 5.76 896 4050 (2020) 67 (1956) 785 98 154 206 251 468 1000 1280 2070 2790
2021-01-18 10:30 5.76 896 4050 (2020) 67 (1956) 785 98 154 206 251 468 1000 1280 2070 2790
2021-01-18 09:30 5.77 903 4050 (2020) 67 (1956) 785 98 154 206 251 468 1000 1280 2070 2790
2021-01-18 08:30 5.76 896 4050 (2020) 67 (1956) 785 98 154 206 251 468 1000 1280 2070 2790
2021-01-18 07:30 5.77 903 4050 (2020) 67 (1956) 785 98 154 206 251 468 1000 1280 2070 2790
2021-01-18 06:30 5.78 911 4050 (2020) 67 (1956) 785 98 154 206 251 468 1000 1280 2070 2790
2021-01-18 05:30 5.78 911 4050 (2020) 67 (1956) 785 98 154 206 251 468 1000 1280 2070 2790
2021-01-18 04:30 5.79 918 4050 (2020) 67 (1956) 785 98 154 206 251 468 1000 1280 2070 2790
2021-01-18 03:30 5.78 911 4050 (2020) 67 (1956) 785 98 154 206 251 468 1000 1280 2070 2790
2021-01-18 02:30 5.78 911 4050 (2020) 67 (1956) 785 98 154 206 251 468 1000 1280 2070 2790
2021-01-18 01:30 5.78 911 4050 (2020) 67 (1956) 785 98 154 206 251 468 1000 1280 2070 2790
2021-01-18 00:30 5.79 918 4050 (2020) 67 (1956) 785 98 154 206 251 468 1000 1280 2070 2790
2021-01-17 23:30 5.79 918 4440 (1991) 65 (1956) 827 96 150 214 244 474 961 1330 2160 3400
2021-01-17 22:30 5.79 918 4440 (1991) 65 (1956) 827 96 150 214 244 474 961 1330 2160 3400
2021-01-17 21:30 5.79 918 4440 (1991) 65 (1956) 827 96 150 214 244 474 961 1330 2160 3400
2021-01-17 20:30 5.78 911 4440 (1991) 65 (1956) 827 96 150 214 244 474 961 1330 2160 3400
2021-01-17 19:30 5.78 911 4440 (1991) 65 (1956) 827 96 150 214 244 474 961 1330 2160 3400
2021-01-17 18:30 5.79 918 4440 (1991) 65 (1956) 827 96 150 214 244 474 961 1330 2160 3400
2021-01-17 17:30 5.79 918 4440 (1991) 65 (1956) 827 96 150 214 244 474 961 1330 2160 3400
2021-01-17 16:30 5.80 925 4440 (1991) 65 (1956) 827 96 150 214 244 474 961 1330 2160 3400
2021-01-17 15:30 5.79 918 4440 (1991) 65 (1956) 827 96 150 214 244 474 961 1330 2160 3400
2021-01-17 14:30 5.80 925 4440 (1991) 65 (1956) 827 96 150 214 244 474 961 1330 2160 3400
2021-01-17 13:30 5.80 925 4440 (1991) 65 (1956) 827 96 150 214 244 474 961 1330 2160 3400
2021-01-17 12:30 5.82 939 4440 (1991) 65 (1956) 827 96 150 214 244 474 961 1330 2160 3400
2021-01-17 11:30 5.81 932 4440 (1991) 65 (1956) 827 96 150 214 244 474 961 1330 2160 3400
2021-01-17 10:30 5.81 932 4440 (1991) 65 (1956) 827 96 150 214 244 474 961 1330 2160 3400
2021-01-17 09:30 5.83 947 4440 (1991) 65 (1956) 827 96 150 214 244 474 961 1330 2160 3400
2021-01-17 08:30 5.82 939 4440 (1991) 65 (1956) 827 96 150 214 244 474 961 1330 2160 3400
2021-01-17 07:30 5.84 954 4440 (1991) 65 (1956) 827 96 150 214 244 474 961 1330 2160 3400
2021-01-17 06:30 5.84 954 4440 (1991) 65 (1956) 827 96 150 214 244 474 961 1330 2160 3400
2021-01-17 05:30 5.84 954 4440 (1991) 65 (1956) 827 96 150 214 244 474 961 1330 2160 3400
2021-01-17 04:30 5.85 962 4440 (1991) 65 (1956) 827 96 150 214 244 474 961 1330 2160 3400
2021-01-17 03:30 5.85 962 4440 (1991) 65 (1956) 827 96 150 214 244 474 961 1330 2160 3400
2021-01-17 02:30 5.85 962 4440 (1991) 65 (1956) 827 96 150 214 244 474 961 1330 2160 3400
2021-01-17 01:30 5.83 947 4440 (1991) 65 (1956) 827 96 150 214 244 474 961 1330 2160 3400
2021-01-16 22:30 5.86 969 11000 (1937) 65 (1956) 984 96 148 210 234 446 929 1400 2190 4010
2021-01-16 21:30 5.86 969 11000 (1937) 65 (1956) 984 96 148 210 234 446 929 1400 2190 4010
2021-01-16 20:30 5.84 954 11000 (1937) 65 (1956) 984 96 148 210 234 446 929 1400 2190 4010
2021-01-16 19:30 5.86 969 11000 (1937) 65 (1956) 984 96 148 210 234 446 929 1400 2190 4010
2021-01-16 18:30 5.86 969 11000 (1937) 65 (1956) 984 96 148 210 234 446 929 1400 2190 4010
2021-01-16 17:30 5.86 969 11000 (1937) 65 (1956) 984 96 148 210 234 446 929 1400 2190 4010
2021-01-16 16:30 5.88 984 11000 (1937) 65 (1956) 984 96 148 210 234 446 929 1400 2190 4010
2021-01-16 15:30 5.87 976 11000 (1937) 65 (1956) 984 96 148 210 234 446 929 1400 2190 4010
2021-01-16 14:30 5.87 976 11000 (1937) 65 (1956) 984 96 148 210 234 446 929 1400 2190 4010
2021-01-16 13:30 5.87 976 11000 (1937) 65 (1956) 984 96 148 210 234 446 929 1400 2190 4010
2021-01-16 12:30 5.88 984 11000 (1937) 65 (1956) 984 96 148 210 234 446 929 1400 2190 4010
2021-01-16 11:30 5.89 991 11000 (1937) 65 (1956) 984 96 148 210 234 446 929 1400 2190 4010
2021-01-16 10:30 5.89 991 11000 (1937) 65 (1956) 984 96 148 210 234 446 929 1400 2190 4010
2021-01-16 09:30 5.90 999 11000 (1937) 65 (1956) 984 96 148 210 234 446 929 1400 2190 4010
2021-01-16 08:30 5.90 999 11000 (1937) 65 (1956) 984 96 148 210 234 446 929 1400 2190 4010
2021-01-16 07:30 5.91 1010 11000 (1937) 65 (1956) 984 96 148 210 234 446 929 1400 2190 4010
2021-01-16 06:30 5.91 1010 11000 (1937) 65 (1956) 984 96 148 210 234 446 929 1400 2190 4010
2021-01-16 05:30 5.91 1010 11000 (1937) 65 (1956) 984 96 148 210 234 446 929 1400 2190 4010
2021-01-16 04:30 5.90 999 11000 (1937) 65 (1956) 984 96 148 210 234 446 929 1400 2190 4010
2021-01-16 03:30 5.91 1010 11000 (1937) 65 (1956) 984 96 148 210 234 446 929 1400 2190 4010
2021-01-16 02:30 5.90 999 11000 (1937) 65 (1956) 984 96 148 210 234 446 929 1400 2190 4010
2021-01-16 01:30 5.89 991 11000 (1937) 65 (1956) 984 96 148 210 234 446 929 1400 2190 4010
2021-01-16 00:30 5.91 1010 11000 (1937) 65 (1956) 984 96 148 210 234 446 929 1400 2190 4010
2021-01-15 23:30 5.91 1010 13100 (1995) 65 (1956) 1220 98 147 215 238 437 827 1360 2510 7970
2021-01-15 22:30 5.92 1010 13100 (1995) 65 (1956) 1220 98 147 215 238 437 827 1360 2510 7970
2021-01-15 21:30 5.93 1020 13100 (1995) 65 (1956) 1220 98 147 215 238 437 827 1360 2510 7970
2021-01-15 20:30 5.91 1010 13100 (1995) 65 (1956) 1220 98 147 215 238 437 827 1360 2510 7970
2021-01-15 19:30 5.92 1010 13100 (1995) 65 (1956) 1220 98 147 215 238 437 827 1360 2510 7970
2021-01-15 18:30 5.92 1010 13100 (1995) 65 (1956) 1220 98 147 215 238 437 827 1360 2510 7970
2021-01-15 17:30 5.93 1020 13100 (1995) 65 (1956) 1220 98 147 215 238 437 827 1360 2510 7970
2021-01-15 16:30 5.93 1020 13100 (1995) 65 (1956) 1220 98 147 215 238 437 827 1360 2510 7970
2021-01-15 15:30 5.95 1040 13100 (1995) 65 (1956) 1220 98 147 215 238 437 827 1360 2510 7970
2021-01-15 14:30 5.95 1040 13100 (1995) 65 (1956) 1220 98 147 215 238 437 827 1360 2510 7970
2021-01-15 13:30 5.96 1050 13100 (1995) 65 (1956) 1220 98 147 215 238 437 827 1360 2510 7970
2021-01-15 12:30 5.96 1050 13100 (1995) 65 (1956) 1220 98 147 215 238 437 827 1360 2510 7970
2021-01-15 11:30 5.95 1040 13100 (1995) 65 (1956) 1220 98 147 215 238 437 827 1360 2510 7970
2021-01-15 10:30 5.95 1040 13100 (1995) 65 (1956) 1220 98 147 215 238 437 827 1360 2510 7970
2021-01-15 09:30 5.96 1050 13100 (1995) 65 (1956) 1220 98 147 215 238 437 827 1360 2510 7970
2021-01-15 08:30 5.97 1050 13100 (1995) 65 (1956) 1220 98 147 215 238 437 827 1360 2510 7970
2021-01-15 07:30 5.98 1060 13100 (1995) 65 (1956) 1220 98 147 215 238 437 827 1360 2510 7970
2021-01-15 06:30 5.95 1040 13100 (1995) 65 (1956) 1220 98 147 215 238 437 827 1360 2510 7970
2021-01-15 05:30 5.97 1050 13100 (1995) 65 (1956) 1220 98 147 215 238 437 827 1360 2510 7970
2021-01-15 04:30 5.97 1050 13100 (1995) 65 (1956) 1220 98 147 215 238 437 827 1360 2510 7970
2021-01-15 03:30 5.97 1050 13100 (1995) 65 (1956) 1220 98 147 215 238 437 827 1360 2510 7970
2021-01-15 02:30 5.97 1050 13100 (1995) 65 (1956) 1220 98 147 215 238 437 827 1360 2510 7970
2021-01-15 01:30 5.99 1070 13100 (1995) 65 (1956) 1220 98 147 215 238 437 827 1360 2510 7970
2021-01-15 00:30 5.97 1050 13100 (1995) 65 (1956) 1220 98 147 215 238 437 827 1360 2510 7970
2021-01-14 23:30 5.98 1060 12700 (2005) 65 (1956) 1150 99 144 215 232 455 851 1490 2510 6320
2021-01-14 22:30 5.98 1060 12700 (2005) 65 (1956) 1150 99 144 215 232 455 851 1490 2510 6320
2021-01-14 21:30 5.99 1070 12700 (2005) 65 (1956) 1150 99 144 215 232 455 851 1490 2510 6320
2021-01-14 20:30 5.99 1070 12700 (2005) 65 (1956) 1150 99 144 215 232 455 851 1490 2510 6320
2021-01-14 19:30 6.01 1080 12700 (2005) 65 (1956) 1150 99 144 215 232 455 851 1490 2510 6320
2021-01-14 18:30 6.01 1080 12700 (2005) 65 (1956) 1150 99 144 215 232 455 851 1490 2510 6320
2021-01-14 17:30 6.00 1080 12700 (2005) 65 (1956) 1150 99 144 215 232 455 851 1490 2510 6320
2021-01-14 16:30 6.00 1080 12700 (2005) 65 (1956) 1150 99 144 215 232 455 851 1490 2510 6320
2021-01-14 15:30 6.02 1090 12700 (2005) 65 (1956) 1150 99 144 215 232 455 851 1490 2510 6320
2021-01-14 14:30 6.00 1080 12700 (2005) 65 (1956) 1150 99 144 215 232 455 851 1490 2510 6320
2021-01-14 13:30 6.01 1080 12700 (2005) 65 (1956) 1150 99 144 215 232 455 851 1490 2510 6320
2021-01-14 12:30 6.00 1080 12700 (2005) 65 (1956) 1150 99 144 215 232 455 851 1490 2510 6320
2021-01-14 11:30 6.04 1110 12700 (2005) 65 (1956) 1150 99 144 215 232 455 851 1490 2510 6320
2021-01-14 10:30 6.01 1080 12700 (2005) 65 (1956) 1150 99 144 215 232 455 851 1490 2510 6320
2021-01-14 09:30 6.04 1110 12700 (2005) 65 (1956) 1150 99 144 215 232 455 851 1490 2510 6320
2021-01-14 08:30 6.03 1100 12700 (2005) 65 (1956) 1150 99 144 215 232 455 851 1490 2510 6320
2021-01-14 07:30 6.04 1110 12700 (2005) 65 (1956) 1150 99 144 215 232 455 851 1490 2510 6320
2021-01-14 06:30 6.03 1100 12700 (2005) 65 (1956) 1150 99 144 215 232 455 851 1490 2510 6320
2021-01-14 05:30 6.04 1110 12700 (2005) 65 (1956) 1150 99 144 215 232 455 851 1490 2510 6320
2021-01-14 04:30 6.04 1110 12700 (2005) 65 (1956) 1150 99 144 215 232 455 851 1490 2510 6320
2021-01-14 03:30 6.05 1120 12700 (2005) 65 (1956) 1150 99 144 215 232 455 851 1490 2510 6320
2021-01-14 02:30 6.05 1120 12700 (2005) 65 (1956) 1150 99 144 215 232 455 851 1490 2510 6320
2021-01-14 01:30 6.07 1130 12700 (2005) 65 (1956) 1150 99 144 215 232 455 851 1490 2510 6320
2021-01-14 00:30 6.06 1130 12700 (2005) 65 (1956) 1150 99 144 215 232 455 851 1490 2510 6320
2021-01-13 23:30 6.05 1120 9310 (2005) 67 (1956) 909 99 142 213 224 452 849 989 2350 3430
2021-01-13 22:30 6.06 1130 9310 (2005) 67 (1956) 909 99 142 213 224 452 849 989 2350 3430
2021-01-13 21:30 6.06 1130 9310 (2005) 67 (1956) 909 99 142 213 224 452 849 989 2350 3430
2021-01-13 20:30 6.08 1140 9310 (2005) 67 (1956) 909 99 142 213 224 452 849 989 2350 3430
2021-01-13 19:30 6.06 1130 9310 (2005) 67 (1956) 909 99 142 213 224 452 849 989 2350 3430
2021-01-13 18:30 6.07 1130 9310 (2005) 67 (1956) 909 99 142 213 224 452 849 989 2350 3430
2021-01-13 17:30 6.07 1130 9310 (2005) 67 (1956) 909 99 142 213 224 452 849 989 2350 3430
2021-01-13 16:30 6.08 1140 9310 (2005) 67 (1956) 909 99 142 213 224 452 849 989 2350 3430
2021-01-13 15:30 6.08 1140 9310 (2005) 67 (1956) 909 99 142 213 224 452 849 989 2350 3430
2021-01-13 14:30 6.09 1150 9310 (2005) 67 (1956) 909 99 142 213 224 452 849 989 2350 3430
2021-01-13 13:30 6.09 1150 9310 (2005) 67 (1956) 909 99 142 213 224 452 849 989 2350 3430
2021-01-13 12:30 6.10 1160 9310 (2005) 67 (1956) 909 99 142 213 224 452 849 989 2350 3430
2021-01-13 11:30 6.10 1160 9310 (2005) 67 (1956) 909 99 142 213 224 452 849 989 2350 3430
2021-01-13 10:30 6.11 1170 9310 (2005) 67 (1956) 909 99 142 213 224 452 849 989 2350 3430
2021-01-13 09:30 6.12 1180 9310 (2005) 67 (1956) 909 99 142 213 224 452 849 989 2350 3430
2021-01-13 08:30 6.14 1190 9310 (2005) 67 (1956) 909 99 142 213 224 452 849 989 2350 3430
2021-01-13 07:30 6.13 1180 9310 (2005) 67 (1956) 909 99 142 213 224 452 849 989 2350 3430
2021-01-13 06:30 6.12 1180 9310 (2005) 67 (1956) 909 99 142 213 224 452 849 989 2350 3430
2021-01-13 05:30 6.13 1180 9310 (2005) 67 (1956) 909 99 142 213 224 452 849 989 2350 3430
2021-01-13 04:30 6.14 1190 9310 (2005) 67 (1956) 909 99 142 213 224 452 849 989 2350 3430
2021-01-13 03:30 6.16 1210 9310 (2005) 67 (1956) 909 99 142 213 224 452 849 989 2350 3430
2021-01-13 02:30 6.14 1190 9310 (2005) 67 (1956) 909 99 142 213 224 452 849 989 2350 3430
2021-01-13 01:30 6.15 1200 9310 (2005) 67 (1956) 909 99 142 213 224 452 849 989 2350 3430
2021-01-13 00:30 6.15 1200 9310 (2005) 67 (1956) 909 99 142 213 224 452 849 989 2350 3430
2021-01-12 23:30 6.17 1220 17300 (2020) 67 (1956) 964 97 142 209 228 477 882 1010 2320 2790
2021-01-12 22:30 6.17 1220 17300 (2020) 67 (1956) 964 97 142 209 228 477 882 1010 2320 2790
2021-01-12 21:30 6.18 1230 17300 (2020) 67 (1956) 964 97 142 209 228 477 882 1010 2320 2790
2021-01-12 20:30 6.17 1220 17300 (2020) 67 (1956) 964 97 142 209 228 477 882 1010 2320 2790
2021-01-12 19:30 6.17 1220 17300 (2020) 67 (1956) 964 97 142 209 228 477 882 1010 2320 2790
2021-01-12 18:30 6.16 1210 17300 (2020) 67 (1956) 964 97 142 209 228 477 882 1010 2320 2790
2021-01-12 17:30 6.18 1230 17300 (2020) 67 (1956) 964 97 142 209 228 477 882 1010 2320 2790
2021-01-12 16:30 6.17 1220 17300 (2020) 67 (1956) 964 97 142 209 228 477 882 1010 2320 2790
2021-01-12 15:30 6.18 1230 17300 (2020) 67 (1956) 964 97 142 209 228 477 882 1010 2320 2790
2021-01-12 14:30 6.20 1240 17300 (2020) 67 (1956) 964 97 142 209 228 477 882 1010 2320 2790
2021-01-12 13:30 6.20 1240 17300 (2020) 67 (1956) 964 97 142 209 228 477 882 1010 2320 2790
2021-01-12 12:30 6.20 1240 17300 (2020) 67 (1956) 964 97 142 209 228 477 882 1010 2320 2790
2021-01-12 11:30 6.22 1260 17300 (2020) 67 (1956) 964 97 142 209 228 477 882 1010 2320 2790
2021-01-12 10:30 6.21 1250 17300 (2020) 67 (1956) 964 97 142 209 228 477 882 1010 2320 2790
2021-01-12 09:30 6.22 1260 17300 (2020) 67 (1956) 964 97 142 209 228 477 882 1010 2320 2790
2021-01-12 08:30 6.24 1280 17300 (2020) 67 (1956) 964 97 142 209 228 477 882 1010 2320 2790
2021-01-12 07:30 6.24 1280 17300 (2020) 67 (1956) 964 97 142 209 228 477 882 1010 2320 2790
2021-01-12 06:30 6.25 1290 17300 (2020) 67 (1956) 964 97 142 209 228 477 882 1010 2320 2790
2021-01-12 05:30 6.24 1280 17300 (2020) 67 (1956) 964 97 142 209 228 477 882 1010 2320 2790
2021-01-12 04:30 6.24 1280 17300 (2020) 67 (1956) 964 97 142 209 228 477 882 1010 2320 2790
2021-01-12 03:30 6.26 1300 17300 (2020) 67 (1956) 964 97 142 209 228 477 882 1010 2320 2790
2021-01-12 02:30 6.27 1310 17300 (2020) 67 (1956) 964 97 142 209 228 477 882 1010 2320 2790
2021-01-12 01:30 6.27 1310 17300 (2020) 67 (1956) 964 97 142 209 228 477 882 1010 2320 2790
2021-01-12 00:30 6.27 1310 17300 (2020) 67 (1956) 964 97 142 209 228 477 882 1010 2320 2790
2021-01-11 23:30 6.27 1310 10600 (2020) 67 (1956) 929 99 142 210 227 490 905 981 2420 3520
2021-01-11 22:30 6.29 1320 10600 (2020) 67 (1956) 929 99 142 210 227 490 905 981 2420 3520
2021-01-11 21:30 6.30 1330 10600 (2020) 67 (1956) 929 99 142 210 227 490 905 981 2420 3520
2021-01-11 20:30 6.27 1310 10600 (2020) 67 (1956) 929 99 142 210 227 490 905 981 2420 3520
2021-01-11 19:30 6.31 1340 10600 (2020) 67 (1956) 929 99 142 210 227 490 905 981 2420 3520
2021-01-11 18:30 6.31 1340 10600 (2020) 67 (1956) 929 99 142 210 227 490 905 981 2420 3520
2021-01-11 17:30 6.30 1330 10600 (2020) 67 (1956) 929 99 142 210 227 490 905 981 2420 3520
2021-01-11 16:30 6.29 1320 10600 (2020) 67 (1956) 929 99 142 210 227 490 905 981 2420 3520
2021-01-11 15:30 6.31 1340 10600 (2020) 67 (1956) 929 99 142 210 227 490 905 981 2420 3520
2021-01-11 14:30 6.31 1340 10600 (2020) 67 (1956) 929 99 142 210 227 490 905 981 2420 3520
2021-01-11 13:30 6.31 1340 10600 (2020) 67 (1956) 929 99 142 210 227 490 905 981 2420 3520
2021-01-11 12:30 6.32 1350 10600 (2020) 67 (1956) 929 99 142 210 227 490 905 981 2420 3520
2021-01-11 11:30 6.35 1380 10600 (2020) 67 (1956) 929 99 142 210 227 490 905 981 2420 3520
2021-01-11 10:30 6.35 1380 10600 (2020) 67 (1956) 929 99 142 210 227 490 905 981 2420 3520
2021-01-11 09:30 6.31 1340 10600 (2020) 67 (1956) 929 99 142 210 227 490 905 981 2420 3520
2021-01-11 08:30 6.33 1360 10600 (2020) 67 (1956) 929 99 142 210 227 490 905 981 2420 3520
2021-01-11 07:30 6.33 1360 10600 (2020) 67 (1956) 929 99 142 210 227 490 905 981 2420 3520
2021-01-11 06:30 6.35 1380 10600 (2020) 67 (1956) 929 99 142 210 227 490 905 981 2420 3520
2021-01-11 05:30 6.34 1370 10600 (2020) 67 (1956) 929 99 142 210 227 490 905 981 2420 3520
2021-01-11 04:30 6.35 1380 10600 (2020) 67 (1956) 929 99 142 210 227 490 905 981 2420 3520
2021-01-11 03:30 6.36 1390 10600 (2020) 67 (1956) 929 99 142 210 227 490 905 981 2420 3520
2021-01-11 02:30 6.37 1400 10600 (2020) 67 (1956) 929 99 142 210 227 490 905 981 2420 3520
2021-01-11 01:30 6.37 1400 10600 (2020) 67 (1956) 929 99 142 210 227 490 905 981 2420 3520
2021-01-11 00:30 6.38 1410 10600 (2020) 67 (1956) 929 99 142 210 227 490 905 981 2420 3520
2021-01-10 23:30 6.38 1410 8220 (1937) 67 (1956) 870 103 143 211 228 505 960 1080 1980 2910
2021-01-10 22:30 6.39 1420 8220 (1937) 67 (1956) 870 103 143 211 228 505 960 1080 1980 2910
2021-01-10 21:30 6.40 1430 8220 (1937) 67 (1956) 870 103 143 211 228 505 960 1080 1980 2910
2021-01-10 20:30 6.41 1440 8220 (1937) 67 (1956) 870 103 143 211 228 505 960 1080 1980 2910
2021-01-10 19:30 6.40 1430 8220 (1937) 67 (1956) 870 103 143 211 228 505 960 1080 1980 2910
2021-01-10 18:30 6.41 1440 8220 (1937) 67 (1956) 870 103 143 211 228 505 960 1080 1980 2910
2021-01-10 17:30 6.43 1460 8220 (1937) 67 (1956) 870 103 143 211 228 505 960 1080 1980 2910
2021-01-10 16:30 6.42 1450 8220 (1937) 67 (1956) 870 103 143 211 228 505 960 1080 1980 2910
2021-01-10 15:30 6.41 1440 8220 (1937) 67 (1956) 870 103 143 211 228 505 960 1080 1980 2910
2021-01-10 14:30 6.44 1470 8220 (1937) 67 (1956) 870 103 143 211 228 505 960 1080 1980 2910
2021-01-10 13:30 6.45 1480 8220 (1937) 67 (1956) 870 103 143 211 228 505 960 1080 1980 2910
2021-01-10 12:30 6.44 1470 8220 (1937) 67 (1956) 870 103 143 211 228 505 960 1080 1980 2910
2021-01-10 11:30 6.48 1510 8220 (1937) 67 (1956) 870 103 143 211 228 505 960 1080 1980 2910
2021-01-10 10:30 6.48 1510 8220 (1937) 67 (1956) 870 103 143 211 228 505 960 1080 1980 2910
2021-01-10 09:30 6.51 1540 8220 (1937) 67 (1956) 870 103 143 211 228 505 960 1080 1980 2910
2021-01-10 08:30 6.52 1550 8220 (1937) 67 (1956) 870 103 143 211 228 505 960 1080 1980 2910
2021-01-10 07:30 6.50 1530 8220 (1937) 67 (1956) 870 103 143 211 228 505 960 1080 1980 2910
2021-01-10 06:30 6.52 1550 8220 (1937) 67 (1956) 870 103 143 211 228 505 960 1080 1980 2910
2021-01-10 05:30 6.55 1580 8220 (1937) 67 (1956) 870 103 143 211 228 505 960 1080 1980 2910
2021-01-10 04:30 6.55 1580 8220 (1937) 67 (1956) 870 103 143 211 228 505 960 1080 1980 2910
2021-01-10 03:30 6.56 1590 8220 (1937) 67 (1956) 870 103 143 211 228 505 960 1080 1980 2910
2021-01-10 02:30 6.58 1610 8220 (1937) 67 (1956) 870 103 143 211 228 505 960 1080 1980 2910
2021-01-10 01:30 6.58 1610 8220 (1937) 67 (1956) 870 103 143 211 228 505 960 1080 1980 2910
2021-01-10 00:30 6.57 1600 8220 (1937) 67 (1956) 870 103 143 211 228 505 960 1080 1980 2910
2021-01-09 23:30 6.58 1610 10900 (1998) 67 (1956) 880 105 141 212 235 505 970 1140 1970 3040
2021-01-09 22:30 6.64 1670 10900 (1998) 67 (1956) 880 105 141 212 235 505 970 1140 1970 3040
2021-01-09 20:30 6.62 1650 10900 (1998) 67 (1956) 880 105 141 212 235 505 970 1140 1970 3040
2021-01-09 19:30 6.66 1690 10900 (1998) 67 (1956) 880 105 141 212 235 505 970 1140 1970 3040
2021-01-09 18:30 6.67 1700 10900 (1998) 67 (1956) 880 105 141 212 235 505 970 1140 1970 3040
2021-01-09 17:30 6.66 1690 10900 (1998) 67 (1956) 880 105 141 212 235 505 970 1140 1970 3040
2021-01-09 16:30 6.67 1700 10900 (1998) 67 (1956) 880 105 141 212 235 505 970 1140 1970 3040
2021-01-09 15:30 6.69 1720 10900 (1998) 67 (1956) 880 105 141 212 235 505 970 1140 1970 3040
2021-01-09 14:30 6.70 1730 10900 (1998) 67 (1956) 880 105 141 212 235 505 970 1140 1970 3040
2021-01-09 13:30 6.70 1730 10900 (1998) 67 (1956) 880 105 141 212 235 505 970 1140 1970 3040
2021-01-09 12:30 6.72 1760 10900 (1998) 67 (1956) 880 105 141 212 235 505 970 1140 1970 3040
2021-01-09 11:30 6.74 1780 10900 (1998) 67 (1956) 880 105 141 212 235 505 970 1140 1970 3040
2021-01-09 10:30 6.73 1770 10900 (1998) 67 (1956) 880 105 141 212 235 505 970 1140 1970 3040
2021-01-09 09:30 6.78 1820 10900 (1998) 67 (1956) 880 105 141 212 235 505 970 1140 1970 3040
2021-01-09 08:30 6.72 1760 10900 (1998) 67 (1956) 880 105 141 212 235 505 970 1140 1970 3040
2021-01-09 07:30 6.78 1820 10900 (1998) 67 (1956) 880 105 141 212 235 505 970 1140 1970 3040
2021-01-09 06:30 6.78 1820 10900 (1998) 67 (1956) 880 105 141 212 235 505 970 1140 1970 3040
2021-01-09 05:30 6.79 1830 10900 (1998) 67 (1956) 880 105 141 212 235 505 970 1140 1970 3040
2021-01-09 04:30 6.81 1860 10900 (1998) 67 (1956) 880 105 141 212 235 505 970 1140 1970 3040
2021-01-09 03:30 6.83 1880 10900 (1998) 67 (1956) 880 105 141 212 235 505 970 1140 1970 3040
2021-01-09 02:30 6.82 1870 10900 (1998) 67 (1956) 880 105 141 212 235 505 970 1140 1970 3040
2021-01-09 01:30 6.84 1890 10900 (1998) 67 (1956) 880 105 141 212 235 505 970 1140 1970 3040
2021-01-09 00:30 6.85 1900 10900 (1998) 67 (1956) 880 105 141 212 235 505 970 1140 1970 3040
2021-01-08 23:30 6.83 1880 8080 (1998) 69 (1956) 860 108 149 219 241 528 997 1250 1740 2470
2021-01-08 22:30 6.84 1890 8080 (1998) 69 (1956) 860 108 149 219 241 528 997 1250 1740 2470
2021-01-08 21:30 6.84 1890 8080 (1998) 69 (1956) 860 108 149 219 241 528 997 1250 1740 2470
2021-01-08 20:30 6.82 1870 8080 (1998) 69 (1956) 860 108 149 219 241 528 997 1250 1740 2470
2021-01-08 19:30 6.81 1860 8080 (1998) 69 (1956) 860 108 149 219 241 528 997 1250 1740 2470
2021-01-08 18:30 6.79 1830 8080 (1998) 69 (1956) 860 108 149 219 241 528 997 1250 1740 2470
2021-01-08 17:30 6.77 1810 8080 (1998) 69 (1956) 860 108 149 219 241 528 997 1250 1740 2470
2021-01-08 16:30 6.75 1790 8080 (1998) 69 (1956) 860 108 149 219 241 528 997 1250 1740 2470
2021-01-08 15:30 6.71 1750 8080 (1998) 69 (1956) 860 108 149 219 241 528 997 1250 1740 2470
2021-01-08 14:30 6.68 1710 8080 (1998) 69 (1956) 860 108 149 219 241 528 997 1250 1740 2470
2021-01-08 13:30 6.67 1700 8080 (1998) 69 (1956) 860 108 149 219 241 528 997 1250 1740 2470
2021-01-08 12:30 6.62 1650 8080 (1998) 69 (1956) 860 108 149 219 241 528 997 1250 1740 2470
2021-01-08 11:30 6.58 1610 8080 (1998) 69 (1956) 860 108 149 219 241 528 997 1250 1740 2470
2021-01-08 10:30 6.54 1570 8080 (1998) 69 (1956) 860 108 149 219 241 528 997 1250 1740 2470
2021-01-08 09:30 6.52 1550 8080 (1998) 69 (1956) 860 108 149 219 241 528 997 1250 1740 2470
2021-01-08 08:30 6.50 1530 8080 (1998) 69 (1956) 860 108 149 219 241 528 997 1250 1740 2470
2021-01-08 07:30 6.43 1460 8080 (1998) 69 (1956) 860 108 149 219 241 528 997 1250 1740 2470
2021-01-08 06:30 6.42 1450 8080 (1998) 69 (1956) 860 108 149 219 241 528 997 1250 1740 2470
2021-01-08 05:30 6.37 1400 8080 (1998) 69 (1956) 860 108 149 219 241 528 997 1250 1740 2470
2021-01-08 04:30 6.40 1430 8080 (1998) 69 (1956) 860 108 149 219 241 528 997 1250 1740 2470
2021-01-08 03:30 6.36 1390 8080 (1998) 69 (1956) 860 108 149 219 241 528 997 1250 1740 2470
2021-01-08 02:30 6.35 1380 8080 (1998) 69 (1956) 860 108 149 219 241 528 997 1250 1740 2470
2021-01-08 01:30 6.33 1360 8080 (1998) 69 (1956) 860 108 149 219 241 528 997 1250 1740 2470
2021-01-08 00:30 6.32 1350 8080 (1998) 69 (1956) 860 108 149 219 241 528 997 1250 1740 2470
2021-01-07 23:30 6.34 1370 11100 (2005) 69 (1956) 965 102 147 223 246 540 970 1210